ECMWFNIL_850_thetae_000.txt.gz
Theta_e
323 324 325 326 327 327 328 328 329 329 329 331 332 333 333 333 333 333 333 333 333 332 332 332 332 332 331 332 333 333 333 333 333 333 333 334 334 334 333 334 335 335
325 325 325 326 327 327 328 328 327 327 327 328 328 329 329 329 328 328 328 329 329 329 329 330 331 331 332 331 331 332 332 332 332 331 332 332 333 334 334 333 334 335
326 326 325 325 326 326 326 327 326 326 325 326 327 327 326 326 325 326 326 326 326 327 327 328 328 329 330 331 331 331 332 332 331 330 329 330 330 331 332 333 333 334
326 326 325 324 324 324 325 325 325 325 326 327 327 326 325 325 325 325 325 325 326 326 327 328 329 329 329 330 330 331 331 331 331 330 330 330 329 330 331 332 332 332
327 325 325 324 323 323 324 325 325 327 327 326 326 326 325 324 324 323 324 324 325 326 327 328 329 330 330 330 331 330 330 330 329 329 330 330 330 330 331 332 332 332
326 325 324 323 323 323 324 325 326 328 327 325 325 325 324 324 324 325 325 325 326 326 326 327 328 328 329 330 331 331 331 331 330 330 331 331 330 331 331 332 332 332
325 324 323 323 323 323 324 324 326 328 328 327 325 325 325 324 324 325 326 326 326 325 324 324 325 326 326 327 329 330 331 331 331 331 330 330 331 331 332 332 332 332
324 323 323 323 324 324 325 325 326 328 328 328 327 326 325 324 324 325 325 326 326 325 325 325 325 325 325 326 326 327 328 330 331 331 331 331 331 332 332 332 332 332
323 323 323 324 325 326 327 327 327 328 328 328 327 327 326 324 324 325 325 325 325 325 325 326 326 326 327 326 325 325 325 326 328 329 330 331 331 331 332 332 333 333
322 323 324 324 325 326 327 327 328 329 329 328 328 327 327 326 325 325 325 324 324 324 325 325 325 326 326 327 326 325 325 325 327 328 329 330 330 331 331 331 332 333
322 323 323 323 324 325 326 327 328 328 328 328 328 327 327 327 325 326 325 324 323 324 323 323 324 324 326 327 326 325 326 327 329 330 330 331 331 332 332 331 332 332
322 323 323 322 321 321 323 325 326 327 327 327 328 327 328 327 326 327 326 323 323 323 321 320 321 322 324 325 325 324 325 326 328 329 330 331 332 333 333 333 332 332
323 323 321 320 320 319 320 322 324 326 326 327 328 328 328 328 328 327 325 323 323 322 320 319 320 321 323 324 324 324 324 324 325 326 327 329 330 332 334 334 333 333
323 322 322 321 320 320 319 319 322 325 326 327 328 328 328 329 329 328 325 323 324 322 320 320 321 322 324 325 325 324 325 326 326 325 325 327 327 329 332 334 333 333
322 322 322 322 321 321 320 319 320 323 325 327 328 328 328 328 329 327 325 323 324 323 321 320 322 324 325 325 325 324 326 328 328 327 326 326 326 326 330 333 334 334
322 322 323 323 323 323 323 322 322 323 325 326 327 328 328 328 328 327 325 324 324 324 322 322 322 324 325 325 324 325 327 328 329 329 328 328 327 326 328 331 334 335
324 324 323 323 324 324 325 325 324 324 325 326 327 327 327 327 327 326 325 325 325 325 324 323 324 325 325 324 324 326 328 328 329 331 332 332 330 328 328 330 332 333
326 326 325 324 323 322 324 325 325 325 325 326 327 327 327 327 326 326 325 325 325 325 324 325 326 326 325 323 323 326 327 326 326 327 329 332 333 332 331 331 331 332
327 326 325 324 322 320 321 323 324 325 325 325 326 327 326 326 325 325 325 325 325 325 325 326 327 326 324 322 323 325 326 324 324 323 324 327 331 333 333 333 333 334
328 327 325 322 320 318 318 320 322 324 325 325 326 326 325 325 325 325 325 325 325 325 326 327 328 326 324 322 322 324 325 324 322 322 322 323 327 330 331 332 333 334
329 328 324 321 319 319 319 320 321 324 325 325 326 326 326 325 325 325 325 324 324 324 326 327 328 326 324 323 322 321 323 323 322 322 322 322 325 327 329 330 331 331
329 327 323 321 320 320 321 321 322 325 326 325 326 326 325 325 325 324 324 323 323 324 326 327 327 324 323 323 322 321 321 322 322 322 321 321 323 326 327 329 330 330
330 326 322 322 322 322 321 322 323 325 325 325 325 325 325 325 325 323 323 323 322 323 326 327 325 324 323 321 321 321 321 321 321 322 321 319 320 323 326 328 329 329
328 325 322 322 322 322 322 322 323 324 325 325 325 325 325 325 324 322 322 323 322 322 325 326 324 323 322 320 319 320 321 321 321 322 321 318 318 320 322 325 327 328
325 323 323 323 322 322 322 323 324 324 325 324 324 324 324 325 323 322 323 324 323 321 322 324 325 323 322 320 318 318 319 320 321 322 321 318 317 318 318 320 323 325
324 324 324 323 323 322 322 323 324 324 324 323 322 323 324 324 322 322 323 324 324 322 320 321 324 324 322 321 321 319 318 318 319 322 323 320 318 319 320 319 319 321

ECMWFNIL_850_thetae_003.txt.gz
Theta_e
324 325 325 325 324 324 324 324 325 324 325 327 327 327 327 326 326 325 324 325 325 325 326 326 327 329 330 331 331 332 332 332 333 333 334 334 335 336 336 335 335 335
325 325 326 325 324 323 322 323 324 324 325 327 328 327 327 326 325 324 323 323 324 324 324 325 326 327 328 329 330 331 331 332 332 332 333 334 334 334 334 333 334 335
325 325 325 325 323 322 321 322 323 324 326 327 327 326 325 325 325 323 323 323 324 325 325 325 326 326 326 327 329 331 332 331 331 331 332 333 333 333 332 332 333 334
325 325 325 324 323 322 322 323 323 324 326 327 327 326 326 326 325 324 323 324 325 325 325 326 325 325 325 326 327 330 331 331 332 332 332 332 332 332 332 332 333 333
325 324 324 323 322 322 323 325 325 325 326 327 328 328 327 327 326 324 324 325 325 324 324 325 326 327 327 328 328 328 328 329 329 330 330 332 332 332 332 332 332 332
324 323 323 322 322 323 325 326 327 327 326 327 328 328 327 326 325 325 325 325 324 322 323 324 326 327 327 328 328 328 328 328 328 328 328 329 330 331 331 332 332 332
323 322 322 322 323 324 325 327 327 327 327 328 328 328 327 327 326 326 325 325 324 323 324 326 327 327 327 327 327 327 327 327 327 328 328 328 329 329 329 331 332 332
322 321 321 322 323 323 324 325 326 327 328 328 328 328 328 327 327 327 326 326 325 325 325 326 326 326 325 324 325 325 325 325 326 326 327 327 328 329 329 329 330 331
321 321 321 322 323 322 322 322 323 325 327 327 327 327 328 328 328 327 327 326 326 326 325 323 323 323 322 322 323 324 324 325 326 326 327 327 327 328 329 330 330 330
320 320 321 322 322 321 320 320 320 322 324 326 326 327 328 328 328 327 327 326 327 326 324 322 321 320 320 321 323 324 325 325 325 326 327 328 327 327 328 330 330 330
319 320 322 323 322 320 320 320 319 320 321 324 326 326 327 327 327 327 327 328 327 326 324 323 321 321 323 324 325 325 325 324 326 327 328 329 329 328 328 329 330 330
319 321 322 322 321 321 321 320 320 319 320 321 324 325 327 327 327 327 328 328 327 325 325 324 322 323 325 325 325 324 324 325 326 326 326 328 329 330 330 329 328 329
320 321 322 321 322 322 322 322 322 322 321 321 322 324 326 327 327 327 327 328 327 325 325 325 324 324 324 324 323 323 323 325 325 324 324 325 326 328 330 330 329 329
320 321 321 322 323 323 324 323 323 323 324 324 323 324 325 326 327 327 327 327 326 326 326 325 325 325 324 324 324 324 323 324 323 322 323 324 324 325 328 330 331 330
321 321 322 323 324 324 324 323 323 323 324 325 325 325 325 326 327 327 327 326 326 326 326 326 326 325 325 325 325 323 323 323 323 322 322 322 322 324 325 328 331 332
323 323 324 325 325 325 325 323 322 321 322 323 325 325 325 326 327 327 327 326 326 325 326 326 326 325 326 326 325 323 322 322 322 321 321 321 321 324 325 327 330 332
326 327 327 327 326 326 326 323 320 319 319 320 323 324 325 325 326 327 326 325 325 325 325 326 325 326 326 325 324 323 321 321 321 321 321 320 320 323 325 326 328 331
327 328 329 328 327 326 325 323 320 318 318 319 321 324 325 325 326 326 325 325 325 324 324 325 326 327 326 324 323 323 322 321 321 321 321 319 318 321 324 326 327 328
327 328 329 329 329 327 324 321 320 319 319 320 323 325 325 325 326 326 325 325 324 324 323 323 326 328 326 323 323 322 321 321 322 322 322 320 318 320 321 324 326 327
327 328 329 329 329 327 323 322 322 321 320 322 325 326 325 326 326 325 325 325 323 323 322 322 326 327 326 324 322 320 319 321 322 323 322 321 320 320 319 321 324 326
328 328 328 329 329 326 323 323 323 321 320 322 325 326 325 325 325 325 325 323 322 323 322 322 325 327 325 323 321 318 318 320 321 322 323 322 320 321 320 319 321 324
329 329 329 329 328 325 323 322 322 321 321 322 324 325 325 325 325 325 324 323 323 323 323 322 323 325 325 323 321 319 317 317 317 319 323 323 321 321 321 319 320 323
327 328 328 328 326 324 322 322 322 322 323 323 324 325 324 324 324 325 324 323 323 323 323 322 321 321 323 324 322 321 320 318 317 317 321 323 322 322 321 320 320 321
325 326 326 326 324 323 323 323 322 322 323 324 324 323 322 322 323 324 324 323 323 323 323 323 321 320 322 323 322 321 322 322 320 319 319 322 324 323 322 321 321 322
325 325 325 324 323 323 323 323 323 322 322 323 323 322 321 321 321 323 323 322 322 322 323 324 323 321 321 322 320 320 322 323 322 321 320 321 323 324 323 321 322 323
324 325 323 323 323 323 323 324 323 323 322 322 322 321 320 321 321 321 321 321 321 322 322 323 324 322 320 320 319 319 321 322 323 323 323 322 322 324 324 321 320 323

ECMWFNIL_850_thetae_006.txt.gz
Theta_e
324 324 326 329 329 326 324 323 322 321 323 325 325 326 328 328 329 329 327 324 323 323 324 325 327 327 328 329 329 329 329 330 331 331 333 334 333 333 335 337 338 339
324 326 327 330 331 327 325 324 323 323 324 325 325 325 328 329 330 330 329 327 324 324 325 325 324 324 326 328 329 329 330 329 330 331 331 331 332 332 333 332 334 334
321 325 328 331 330 327 325 324 325 326 326 326 326 327 328 329 329 330 329 327 326 326 326 324 323 324 324 327 330 330 329 329 330 330 330 330 330 330 330 331 332 332
320 321 325 327 327 324 323 324 326 327 327 328 329 329 328 329 329 329 326 326 327 327 327 325 324 324 323 326 329 330 329 329 329 330 330 329 328 329 329 330 331 331
320 321 322 324 323 322 323 324 325 327 327 328 329 330 329 329 329 328 327 327 327 327 326 325 324 323 324 327 329 329 329 328 327 328 328 328 327 328 329 330 331 331
319 321 321 321 322 322 324 324 324 325 327 327 328 329 329 328 327 326 326 327 328 327 326 324 324 323 324 326 327 327 326 326 325 326 327 327 327 328 328 329 331 330
320 321 321 322 323 323 324 325 323 324 325 326 327 327 326 326 325 325 326 327 328 327 326 325 325 325 324 324 324 324 323 324 325 327 326 326 327 328 328 328 329 330
320 321 321 322 324 325 327 328 327 327 325 323 324 325 325 324 324 325 326 327 327 327 326 326 326 325 324 323 322 323 323 325 327 328 328 327 327 327 328 328 330 330
320 320 321 323 325 328 330 330 329 330 328 325 322 322 324 325 325 326 326 327 327 327 327 327 326 325 324 324 323 324 325 327 329 329 328 328 326 325 324 325 327 328
320 320 321 325 328 330 329 328 328 329 329 328 324 322 322 323 325 326 327 327 327 328 328 329 328 327 325 324 324 325 326 328 329 327 326 325 323 322 322 322 324 326
321 323 324 326 328 329 329 328 328 328 328 328 327 325 324 324 324 326 327 327 328 328 329 329 330 329 327 325 325 326 326 327 327 325 324 323 321 321 321 321 323 325
323 325 326 328 329 329 329 328 329 329 328 327 327 327 327 327 327 327 328 329 328 328 329 330 331 331 329 326 325 325 326 326 325 324 323 322 321 321 321 320 321 324
325 325 325 327 329 328 328 328 329 328 327 326 326 327 327 328 329 329 329 330 330 329 329 329 330 330 329 327 325 326 326 325 324 323 322 322 321 321 320 320 321 324
324 324 325 326 326 327 327 328 328 327 327 327 326 326 326 326 328 329 329 329 330 330 329 328 329 329 328 326 326 326 325 323 322 321 322 322 321 320 320 321 322 324
323 323 325 326 327 327 327 327 327 327 327 327 326 326 326 326 327 327 327 328 330 331 330 328 328 328 327 326 326 326 324 322 319 319 322 323 321 321 322 322 321 321
323 323 325 328 328 328 327 327 327 327 326 326 326 326 327 326 325 325 328 330 331 332 331 330 327 325 325 326 326 326 324 321 318 318 322 323 322 322 322 321 320 320
324 326 327 329 329 329 329 329 328 326 326 325 326 327 327 327 326 327 329 330 331 331 330 329 328 325 323 324 326 326 324 321 317 318 321 323 324 323 322 321 321 321
326 328 329 329 329 330 331 331 329 326 326 326 327 328 328 327 328 329 330 330 330 329 328 328 328 325 322 324 325 325 323 320 318 317 319 323 324 323 322 321 322 322
327 330 331 330 331 331 331 331 328 327 326 327 327 327 327 328 329 329 331 331 330 328 327 328 329 326 322 323 325 325 323 321 319 318 318 322 324 323 322 322 323 323
328 330 332 331 331 331 331 330 329 328 327 326 327 327 327 328 329 329 330 330 329 329 328 329 329 327 323 321 322 324 324 322 321 319 319 321 323 324 322 321 322 323
328 331 332 332 333 333 333 331 328 328 327 326 326 326 327 329 329 329 330 329 328 328 328 328 328 325 323 321 321 322 323 323 322 321 320 321 322 323 322 320 320 321
330 332 333 333 333 333 333 331 328 327 328 327 326 327 328 328 328 328 329 329 329 328 327 327 327 325 323 323 321 322 322 322 322 321 322 322 321 322 322 319 318 319
331 332 331 331 331 333 333 330 327 327 328 327 327 327 327 327 326 326 328 329 329 328 327 327 327 326 325 324 322 322 321 320 320 321 324 324 321 321 322 320 318 318
331 330 327 327 330 332 331 329 327 327 328 328 328 327 326 326 325 325 325 327 327 326 326 326 326 325 325 324 323 321 319 318 319 320 324 324 322 320 321 321 320 319
330 327 324 325 328 330 330 329 328 327 327 326 326 325 325 325 324 323 324 325 325 325 324 325 325 326 326 324 323 322 320 319 319 320 322 324 321 319 319 320 320 321
328 325 323 324 327 330 331 329 327 325 323 323 323 323 324 324 323 323 323 323 323 324 324 324 325 327 326 324 323 322 321 320 320 320 322 323 321 319 319 319 319 319

ECMWFNIL_850_thetae_009.txt.gz
Theta_e
335 336 334 335 336 335 334 334 334 332 330 328 328 329 329 326 326 326 327 328 329 329 329 329 330 330 329 329 329 330 331 332 332 332 333 331 329 330 331 331 331 332
336 336 333 334 336 334 333 334 332 329 328 327 328 328 326 325 327 327 327 328 329 330 330 331 332 331 329 329 330 330 330 330 330 330 330 329 328 328 328 328 330 331
336 336 335 335 336 334 334 333 332 332 332 330 330 330 328 328 328 327 327 329 329 329 330 331 332 331 329 328 328 329 329 329 330 330 329 328 328 329 330 331 332 331
335 333 333 335 335 334 333 333 333 334 334 333 332 331 330 328 327 326 326 326 327 328 330 330 329 329 328 328 327 328 328 329 330 331 330 329 329 330 330 331 331 330
332 329 329 331 332 332 332 333 334 334 334 334 333 332 329 327 326 326 325 324 325 327 329 330 330 330 330 328 326 326 327 328 330 330 330 328 328 329 329 329 328 328
327 325 324 326 328 330 332 333 333 333 334 334 334 332 329 327 325 325 324 324 325 326 327 328 329 329 329 327 326 326 326 327 327 327 327 327 327 328 328 328 327 326
331 331 329 330 331 332 333 333 333 333 333 334 334 332 330 328 326 325 324 323 323 325 325 326 326 327 327 326 327 326 326 326 326 325 324 325 326 328 328 328 326 324
334 334 333 333 334 334 333 333 333 332 332 332 333 333 332 331 328 325 324 324 324 324 325 326 326 326 327 327 327 326 326 326 325 324 324 325 326 328 328 327 325 323
332 332 332 332 333 333 333 333 332 330 330 331 332 332 332 332 330 326 323 324 324 325 327 326 325 326 326 327 328 328 328 327 326 325 325 324 325 326 326 325 324 322
333 332 333 333 333 332 332 332 331 330 329 330 330 331 331 332 331 329 327 326 327 327 327 326 326 326 326 327 329 331 330 329 327 326 325 323 322 322 324 325 324 323
335 334 334 334 333 332 332 331 330 329 329 329 330 330 330 330 330 330 331 330 330 329 328 328 327 326 326 327 328 331 331 329 328 326 325 323 321 321 324 325 325 325
336 335 335 334 333 332 332 331 330 329 329 329 329 329 329 328 328 329 330 330 330 330 331 333 332 330 331 331 330 330 330 328 327 327 325 323 321 322 325 326 325 325
336 335 334 333 332 332 332 331 331 330 330 330 329 330 330 329 328 329 329 330 330 331 332 335 336 335 336 335 332 331 329 327 326 326 326 325 320 321 325 326 325 324
334 334 334 332 331 331 331 332 332 331 331 330 330 330 330 329 328 329 328 329 331 332 333 334 335 334 335 335 334 330 328 327 326 327 327 325 321 321 326 326 324 323
333 333 332 331 331 332 332 332 332 332 332 331 331 331 330 330 329 329 330 330 332 333 333 332 332 333 334 333 330 328 326 325 325 326 327 325 321 322 326 326 323 321
334 333 331 331 331 332 333 333 332 333 333 332 331 331 330 330 330 330 331 331 332 333 333 332 332 333 332 330 327 324 324 323 324 325 326 324 322 322 325 326 323 319
334 333 332 332 333 333 333 333 334 334 333 332 331 331 330 330 330 330 330 330 331 333 333 333 333 332 331 330 328 324 321 322 323 324 325 324 322 322 323 325 324 319
333 333 334 334 334 334 333 334 334 334 334 333 332 331 330 329 329 330 330 331 332 333 334 334 333 331 330 330 328 323 321 321 321 322 323 324 323 323 322 323 323 321
333 334 334 334 334 334 334 334 335 335 335 334 332 330 329 329 329 330 330 331 332 333 334 333 331 330 330 330 326 323 322 322 321 321 323 324 324 324 323 323 322 321
333 334 334 334 334 334 334 334 335 335 335 333 331 330 329 329 329 331 331 331 331 331 329 329 329 328 328 328 326 325 324 323 322 322 323 324 324 324 325 325 323 321
334 335 334 334 335 335 335 335 335 335 334 332 330 330 330 330 330 330 330 329 329 328 325 325 327 327 326 327 327 326 325 324 323 322 322 324 325 325 326 325 322 320
335 335 334 334 335 335 335 335 335 335 333 331 330 330 330 329 328 328 327 326 326 325 324 324 325 325 326 326 326 326 325 325 323 322 322 324 326 326 327 326 322 319
335 335 334 334 334 333 333 334 335 335 332 330 330 330 329 328 327 326 327 326 324 324 323 324 324 325 325 325 324 325 326 326 324 322 322 324 325 326 328 326 321 319
335 335 335 334 333 332 332 332 334 334 332 330 329 328 327 328 328 327 327 328 327 326 324 322 323 323 324 324 323 324 325 326 324 322 321 322 325 327 329 327 322 320
335 335 335 334 332 331 331 332 332 332 332 330 329 329 328 328 328 328 328 329 329 327 325 324 324 323 322 322 323 323 324 325 325 323 321 322 325 327 327 326 323 320
336 336 335 334 332 331 330 331 332 333 333 332 331 330 329 328 328 329 329 329 329 327 326 327 326 323 320 321 322 322 323 324 324 324 321 321 324 325 323 323 322 319

ECMWFNIL_850_thetae_012.txt.gz
Theta_e
325 325 324 324 325 327 328 328 329 330 329 328 328 331 333 331 328 326 327 327 328 328 329 330 331 332 333 332 330 329 329 329 330 330 331 331 331 330 330 331 332 332
325 326 324 321 322 327 328 329 331 329 326 326 328 329 330 328 328 328 328 327 327 327 328 329 329 330 330 329 328 329 328 328 329 329 330 330 329 329 329 329 329 329
324 326 328 326 329 334 335 332 328 325 327 331 332 332 334 333 330 329 327 326 325 326 326 326 327 327 327 327 328 329 328 326 327 328 329 328 328 328 327 327 327 327
328 328 329 331 332 332 330 327 325 328 332 335 335 335 334 332 328 326 325 324 324 324 324 324 325 325 326 327 328 328 327 326 327 328 328 327 327 327 326 327 328 328
331 330 326 325 327 328 326 325 328 332 334 335 335 334 334 332 328 325 324 324 324 324 324 324 325 325 326 326 327 327 326 326 326 327 327 326 326 325 326 328 328 327
328 327 324 321 322 323 323 326 330 332 332 332 331 331 331 331 329 326 325 323 323 324 324 324 324 326 326 327 327 326 326 326 326 326 326 325 325 326 326 326 324 324
323 323 322 321 322 323 326 329 331 330 330 330 330 330 331 331 331 331 330 326 324 323 323 323 325 326 328 329 328 327 327 327 326 326 326 326 325 326 325 323 322 322
326 328 328 325 326 328 332 333 331 331 332 331 331 332 333 332 332 333 332 330 327 324 323 324 325 327 329 330 330 328 328 328 328 327 327 326 326 327 325 323 322 323
329 334 334 331 331 333 334 334 333 332 331 330 331 332 332 331 331 331 332 331 330 329 327 325 325 329 330 330 330 329 328 329 329 327 326 327 327 327 327 324 323 324
330 333 333 333 335 335 334 334 333 331 330 330 331 330 330 330 330 330 330 330 331 331 331 328 327 329 331 330 330 329 328 330 331 328 326 326 326 327 328 326 325 325
333 334 334 334 335 335 334 333 332 331 330 329 329 329 331 331 331 330 329 329 329 330 331 330 330 330 331 330 329 328 328 329 330 330 327 325 325 327 329 327 326 326
337 336 336 336 336 335 334 332 331 330 329 329 330 331 332 330 329 329 329 329 329 329 330 331 331 330 330 330 329 328 327 326 327 329 327 326 326 329 330 328 326 327
338 337 336 336 336 334 334 333 332 331 331 329 329 328 328 328 329 330 330 330 330 329 330 330 331 331 330 330 329 328 326 325 325 327 327 326 327 329 329 328 326 326
338 337 336 336 334 331 330 331 331 330 329 326 325 327 328 330 331 331 330 329 328 329 330 331 332 333 331 331 331 328 326 326 325 326 326 324 325 326 327 327 326 325
331 333 334 333 331 328 327 329 330 329 328 328 328 330 330 330 331 330 329 329 329 330 331 331 333 333 332 332 332 330 329 329 327 324 323 321 322 324 324 326 326 324
323 325 327 327 325 324 325 327 329 330 330 331 331 330 331 330 329 328 329 330 331 331 331 332 332 331 328 328 331 331 330 329 325 322 321 321 321 322 323 325 326 326
319 319 321 321 321 322 323 325 327 329 330 332 332 332 332 331 330 330 330 329 330 330 332 332 330 329 327 326 327 328 329 328 324 322 322 323 322 323 324 326 327 327
319 319 321 321 322 322 323 324 326 328 331 333 334 334 334 332 331 330 330 329 330 331 331 330 328 328 328 325 324 326 328 328 326 325 324 323 323 323 324 325 326 326
320 321 322 322 322 323 323 324 326 329 332 334 335 335 334 333 331 330 330 330 331 330 329 328 328 327 326 324 324 325 326 327 327 327 325 324 324 323 323 323 324 325
320 322 322 322 323 323 324 325 327 329 332 334 335 335 334 332 331 330 330 330 330 328 327 326 326 325 324 322 323 324 325 327 326 326 325 324 324 324 324 323 322 324
322 322 322 323 324 325 326 328 329 331 333 332 332 333 333 331 331 330 329 327 326 325 325 325 324 324 324 322 322 323 324 325 325 325 324 323 322 323 323 322 321 322
324 324 324 326 328 329 329 332 334 334 333 332 332 332 330 329 329 328 327 326 326 327 327 327 326 326 324 322 321 322 322 324 324 324 324 323 322 322 323 321 321 321
328 329 330 331 331 332 332 335 336 335 333 333 333 334 331 329 330 329 328 328 328 329 329 329 329 328 325 323 322 322 321 322 323 323 323 324 323 322 322 321 322 322
333 334 334 335 334 334 334 335 335 333 333 333 334 334 332 331 331 330 329 329 329 329 330 330 330 328 327 326 324 322 321 321 322 323 324 324 323 322 321 322 323 323
335 336 336 336 336 335 335 335 333 332 332 332 333 334 332 331 331 330 329 329 329 329 329 330 330 329 329 328 325 322 321 321 321 322 322 323 323 322 321 322 323 323
336 336 337 336 336 336 336 334 332 331 331 331 332 333 333 332 332 331 330 328 328 329 329 330 330 329 329 329 326 322 321 321 321 321 321 322 323 322 322 322 323 323

ECMWFNIL_850_thetae_015.txt.gz
Theta_e
316 316 316 316 316 317 318 320 322 322 321 321 323 325 327 328 328 327 327 327 327 327 326 327 327 327 327 327 326 326 328 328 327 326 327 327 328 327 327 327 326 326
317 317 316 316 317 317 318 320 320 319 320 320 323 328 331 331 330 329 327 326 325 325 325 324 324 325 326 326 326 327 328 328 327 326 326 327 327 326 326 326 325 326
317 317 316 316 317 318 320 322 322 322 322 321 327 334 334 332 331 331 328 326 325 324 324 323 323 324 325 326 327 327 327 327 326 326 326 326 326 326 326 325 325 325
317 317 317 317 317 318 321 325 325 322 321 322 329 334 331 327 326 326 325 325 324 324 324 323 324 324 325 326 327 327 327 326 326 326 326 326 326 326 325 325 325 325
318 318 317 317 318 318 320 322 321 319 320 324 327 328 327 326 323 321 321 321 321 321 322 322 324 325 325 326 327 328 327 327 326 326 327 326 326 326 326 325 325 324
318 318 317 317 318 319 319 320 319 321 324 326 327 327 329 329 325 323 324 323 320 321 322 322 323 323 324 326 328 329 328 327 328 328 328 329 329 329 328 327 326 325
318 317 317 318 318 318 319 319 320 324 327 328 329 330 330 330 328 328 329 327 325 325 325 325 325 323 323 325 328 330 329 329 329 329 331 332 331 330 330 329 328 327
319 318 317 318 318 318 318 319 321 326 329 329 330 331 330 330 330 330 330 329 328 328 328 328 328 326 326 326 328 330 331 330 329 329 330 332 332 330 330 330 329 328
320 318 317 318 318 318 319 320 323 328 330 330 330 330 329 330 330 330 331 330 330 329 329 329 329 329 329 328 328 330 332 331 330 329 329 331 331 330 330 331 331 330
321 319 318 317 318 318 319 322 325 329 331 332 331 330 330 331 330 330 331 330 330 329 329 330 329 329 330 329 328 329 331 331 329 329 328 329 330 330 330 331 331 330
323 320 318 318 319 320 321 324 329 332 333 332 331 330 329 329 330 330 330 330 330 329 329 330 330 329 330 330 328 328 328 328 328 328 327 327 327 328 328 328 330 330
326 324 320 318 319 321 322 325 329 331 331 330 328 327 327 329 330 330 329 329 329 329 329 330 330 330 330 329 329 329 328 328 328 328 327 326 326 325 324 323 325 326
329 325 321 320 320 320 321 322 324 324 325 326 326 326 327 328 329 327 327 327 327 328 328 328 328 328 328 328 329 330 328 328 329 328 327 327 325 322 321 320 321 322
327 322 320 321 322 320 320 321 321 322 322 323 324 324 325 326 326 326 326 326 326 325 326 327 326 326 327 327 329 330 328 327 329 328 327 327 325 321 320 321 321 321
326 323 321 321 320 320 320 321 321 321 322 322 323 323 323 324 324 325 326 325 325 325 327 328 327 326 327 328 329 329 327 326 326 327 327 327 324 321 320 321 321 321
329 328 323 320 319 319 321 322 321 322 322 322 322 323 323 324 324 325 326 326 325 325 327 328 326 326 327 328 329 328 326 325 324 325 327 326 324 323 321 321 321 322
330 328 323 319 319 320 322 322 321 322 322 322 322 322 323 324 325 326 326 326 326 327 327 327 325 325 327 327 327 327 326 324 324 325 326 326 326 325 322 322 322 322
326 324 321 319 320 322 322 322 322 322 322 322 322 323 324 325 325 326 326 326 327 327 327 327 326 326 327 327 327 326 325 324 324 325 325 325 326 325 324 322 322 322
323 321 320 320 321 322 322 323 323 323 323 322 323 323 325 327 328 329 329 329 329 328 327 327 326 326 326 327 326 325 325 324 323 323 323 324 325 325 324 323 322 322
322 321 320 319 320 321 322 322 323 323 323 323 323 324 327 330 332 332 331 330 330 329 328 327 326 326 326 326 327 326 325 324 323 322 322 323 324 325 325 324 323 322
324 322 321 319 319 321 322 321 322 323 323 323 324 325 327 331 333 333 332 331 330 330 329 327 326 326 327 328 328 328 327 325 323 322 322 322 322 323 324 324 324 323
326 322 321 321 320 321 321 321 322 322 323 325 326 326 327 329 331 333 333 331 330 329 329 329 328 328 330 330 330 330 328 327 325 322 321 321 321 322 323 324 324 322
328 322 322 322 320 321 322 321 323 323 324 327 329 328 328 329 331 333 333 332 330 330 330 329 329 329 329 329 329 330 329 329 327 323 321 321 321 321 322 323 323 323
332 325 323 322 322 322 322 324 326 326 326 329 331 331 331 331 332 333 333 331 330 329 329 328 328 328 327 326 326 327 329 329 328 324 321 320 321 321 321 322 322 322
335 331 327 324 323 323 325 327 330 330 331 332 333 333 332 332 333 333 331 330 329 329 328 328 327 327 327 326 326 326 329 329 327 323 321 321 321 321 320 321 321 321
338 337 333 329 329 331 332 333 334 334 335 334 333 333 332 332 331 331 331 330 328 328 329 329 328 327 327 326 326 326 329 329 326 323 322 322 321 321 321 321 321 321

ECMWFNIL_850_thetae_018.txt.gz
Theta_e
316 316 316 315 315 316 316 317 317 318 318 318 317 318 322 324 325 326 327 327 326 326 325 324 324 324 324 325 325 325 326 327 326 326 325 326 327 327 326 326 325 325
317 316 316 316 316 316 316 317 318 319 319 318 318 320 324 325 326 327 327 327 326 325 324 323 323 323 323 323 324 324 325 325 325 325 325 325 326 326 326 325 325 325
318 317 316 316 316 316 316 317 318 319 319 318 319 322 324 325 325 325 325 326 326 324 324 323 323 323 323 323 323 323 324 326 326 325 325 325 326 326 325 325 325 325
319 318 316 316 317 316 317 317 318 318 318 319 320 323 324 325 323 321 323 324 323 323 323 322 322 323 322 322 322 323 325 327 327 326 326 326 326 326 326 325 325 325
320 318 317 316 316 317 317 317 318 318 319 321 323 325 327 326 324 323 325 326 324 323 322 322 322 322 322 322 322 324 325 327 328 328 327 326 327 327 326 326 326 325
320 318 317 317 317 317 317 318 319 319 320 323 326 327 327 327 326 327 329 329 327 326 326 326 326 326 325 325 324 324 326 327 328 328 328 327 327 328 329 329 328 327
320 318 317 317 317 317 318 318 318 318 321 325 327 329 328 328 328 329 329 329 329 328 328 328 328 328 328 328 327 327 327 327 327 329 329 328 328 329 331 332 331 329
320 319 317 317 317 317 317 317 318 317 320 325 327 328 329 329 329 329 329 330 330 329 329 328 329 329 329 329 329 329 328 328 327 329 330 330 329 329 329 331 331 329
319 318 317 317 317 317 317 318 317 318 321 325 327 328 328 329 329 329 330 330 330 329 329 329 329 329 329 329 329 329 329 328 328 329 330 330 330 329 327 327 328 329
320 319 317 316 317 317 317 317 317 320 324 326 327 328 329 329 330 329 329 328 329 329 329 329 329 329 328 329 329 329 329 329 328 328 329 329 329 329 327 326 327 328
321 319 317 317 317 317 316 317 319 322 325 327 328 329 330 330 329 328 327 328 329 329 329 329 329 328 328 328 329 330 329 329 329 329 328 328 328 328 327 326 326 326
322 320 318 317 317 317 317 318 319 322 324 328 329 331 330 329 328 327 328 330 330 330 329 328 328 327 327 327 328 328 329 329 330 330 329 329 329 328 327 326 324 322
324 321 319 318 317 318 318 320 321 320 323 328 329 329 328 327 327 327 328 329 328 327 326 326 326 325 324 325 326 327 328 329 329 328 327 327 328 329 328 326 322 321
325 323 321 320 318 318 320 321 321 320 322 326 326 324 324 325 324 325 325 325 325 325 325 325 324 324 323 324 326 327 327 328 328 327 325 325 326 328 328 325 322 321
327 326 324 323 320 318 320 322 321 321 322 323 323 322 322 323 323 323 324 324 324 324 323 323 323 323 323 324 325 327 327 328 328 327 325 324 324 326 327 325 324 323
329 327 322 322 321 318 320 322 321 321 322 321 322 321 321 322 323 323 324 323 323 323 322 322 322 322 322 324 325 326 327 329 329 328 326 324 324 324 325 326 326 325
329 327 322 321 321 318 320 322 321 321 322 321 322 322 322 322 323 323 324 323 322 322 321 321 322 323 325 326 326 327 329 329 329 327 326 324 324 325 325 326 326 326
331 330 328 325 323 319 320 322 321 322 322 321 322 322 322 322 322 323 323 324 324 325 324 324 324 325 328 328 327 328 328 328 327 326 325 323 323 324 325 325 326 326
332 331 331 330 325 320 320 322 321 322 322 322 322 322 322 322 322 323 324 326 330 332 331 328 327 327 329 328 328 327 328 328 327 326 326 325 323 323 323 323 323 324
329 331 333 331 324 319 320 321 321 321 322 322 322 322 322 322 323 325 325 327 330 331 330 329 329 330 330 329 328 328 329 329 329 328 329 327 325 322 321 321 321 322
331 335 337 331 324 322 321 320 321 322 321 322 323 322 323 324 325 327 327 327 328 330 329 329 329 330 331 329 329 329 329 329 330 330 330 329 327 324 322 321 320 321
335 339 339 332 325 323 321 319 320 321 321 322 323 324 326 327 328 329 328 329 332 333 331 330 330 330 330 329 329 328 328 328 329 329 329 329 328 326 323 321 320 321
337 339 339 333 326 323 321 320 320 321 321 323 325 327 327 327 329 330 331 332 334 333 332 330 330 330 329 329 328 328 327 327 327 327 328 329 329 326 323 320 320 320
338 338 338 334 329 324 321 320 320 320 322 324 326 327 327 328 330 331 331 333 333 332 331 330 330 329 329 329 329 328 327 327 326 327 327 328 328 325 322 321 320 320
337 338 337 335 331 328 324 323 322 322 325 328 330 331 331 331 333 332 332 333 333 332 331 330 330 328 327 329 328 326 326 326 326 326 328 328 327 324 322 322 321 321
338 338 337 335 335 334 331 328 326 327 330 332 334 334 334 333 334 333 332 332 332 331 330 331 330 328 327 328 326 324 325 326 325 326 327 326 324 322 321 321 321 321

ECMWFNIL_850_thetae_021.txt.gz
Theta_e
320 318 317 316 316 315 315 315 315 316 317 318 319 319 319 319 321 322 322 323 324 325 325 325 324 324 323 323 324 324 324 325 327 326 326 325 325 325 325 325 325 325
320 318 316 316 316 315 315 316 316 316 317 317 318 317 317 318 321 323 323 324 325 325 325 324 324 324 323 322 323 323 323 324 325 325 325 325 324 325 325 325 325 325
319 318 317 316 316 316 316 316 316 317 317 317 317 317 317 319 321 323 323 324 325 324 324 324 324 324 323 323 322 322 322 322 324 325 325 325 325 325 325 325 325 325
319 318 317 316 316 316 316 316 316 317 317 318 318 318 319 321 321 321 321 322 322 321 321 321 321 321 321 322 322 322 322 322 323 325 326 325 325 326 326 325 325 325
319 318 318 317 316 316 316 316 316 317 318 318 318 319 322 322 320 321 324 326 323 321 321 322 322 322 323 323 323 323 323 323 323 324 326 326 327 327 327 327 327 327
319 318 318 317 316 316 316 316 317 317 318 318 319 323 325 324 323 325 328 328 325 324 325 326 326 326 327 327 327 326 327 326 325 325 326 327 327 328 328 327 328 328
320 318 318 318 316 316 316 317 317 318 318 319 322 326 327 325 326 328 328 328 327 327 328 328 328 328 328 329 328 328 328 328 328 328 327 328 328 329 329 328 328 328
321 318 318 318 317 316 316 317 318 318 318 321 324 327 327 327 328 328 328 328 327 328 329 329 329 329 329 329 329 329 329 329 329 329 329 329 329 329 329 330 329 328
321 319 319 318 317 317 317 317 318 318 319 321 324 326 327 327 328 328 328 327 327 327 329 329 329 329 329 329 329 329 329 329 330 329 329 329 329 329 329 329 329 329
321 320 320 319 318 318 317 317 318 318 318 320 324 327 327 326 327 327 328 327 326 326 328 328 329 329 329 329 329 329 329 329 329 329 329 329 330 329 329 329 329 328
321 320 320 319 320 318 318 317 317 318 318 321 324 326 326 325 325 326 326 326 325 325 327 328 329 329 329 329 328 329 329 328 328 329 329 329 330 329 329 329 329 329
322 321 320 320 319 318 318 318 317 318 319 322 323 323 324 323 323 325 326 325 325 324 326 327 328 328 327 327 328 328 328 327 327 327 328 328 329 328 327 327 328 329
322 321 320 319 319 318 318 318 318 318 320 322 323 321 321 322 322 325 326 324 324 325 326 327 327 326 326 326 326 325 325 325 326 327 327 326 326 326 325 324 325 327
322 322 321 319 320 320 319 318 318 319 321 322 322 321 321 321 323 325 326 324 325 326 327 327 326 326 326 325 324 323 324 326 326 326 325 324 324 325 325 324 324 325
324 322 321 321 322 322 318 318 319 320 321 321 321 321 320 321 324 326 326 325 326 327 326 326 326 326 325 323 323 324 326 326 327 327 326 324 325 325 326 325 324 324
326 323 322 323 324 321 318 319 320 322 323 320 319 320 320 321 325 327 327 326 327 326 325 325 325 325 324 323 324 325 326 326 326 326 326 325 325 326 325 324 323 323
325 323 324 326 325 322 319 320 321 324 324 320 320 320 320 323 327 329 328 326 326 325 324 325 324 323 323 323 325 326 327 327 326 326 326 326 326 326 325 324 323 322
325 325 327 329 329 326 325 323 322 323 321 319 320 321 321 325 330 331 329 326 325 325 324 324 323 322 322 323 323 325 328 329 328 327 327 327 327 327 327 327 326 323
328 325 328 331 330 327 328 327 322 321 321 320 320 321 322 326 330 330 328 326 325 324 324 324 324 326 326 325 324 325 327 329 330 329 328 328 328 329 329 329 328 326
330 326 330 334 330 326 329 331 324 321 321 321 321 321 323 326 328 328 326 325 324 324 324 325 327 328 329 328 328 328 328 329 330 330 329 328 328 328 328 329 329 328
330 328 333 334 330 328 332 332 325 320 320 321 321 321 322 324 327 327 325 323 323 324 325 326 327 330 330 328 328 329 329 330 330 329 328 327 327 326 327 328 328 328
331 330 335 333 329 331 334 329 323 320 319 320 320 321 322 325 327 327 324 324 323 324 326 327 328 331 331 329 328 329 329 329 329 329 328 327 326 326 327 328 328 328
332 331 334 333 330 334 335 328 322 320 320 320 320 321 324 328 328 326 324 324 324 326 328 330 330 332 331 330 330 330 329 328 328 328 326 324 325 326 326 327 328 327
334 332 334 332 330 334 337 331 325 322 321 320 320 322 327 329 327 325 325 326 327 330 332 332 331 331 331 331 330 330 329 328 327 326 324 323 324 325 325 327 327 325
336 335 335 332 330 334 337 335 331 328 325 322 321 324 328 328 327 327 328 330 331 333 335 333 332 331 331 331 330 329 329 329 327 325 323 323 324 324 324 325 325 323
338 338 337 335 333 335 337 336 334 333 331 327 324 328 332 331 328 329 330 332 333 334 333 332 332 331 330 330 330 329 328 327 327 325 323 323 323 323 323 323 323 323

ECMWFNIL_850_thetae_024.txt.gz
Theta_e
326 327 325 323 320 320 321 320 319 317 316 316 316 316 317 319 321 321 320 321 322 323 324 325 325 325 324 324 323 324 324 324 324 324 325 324 324 324 324 324 325 325
326 326 325 323 320 320 320 318 317 316 315 315 315 316 318 318 319 319 320 321 322 323 324 325 325 324 324 323 323 322 323 323 323 323 324 324 324 324 324 324 324 325
325 325 324 322 320 319 319 317 316 316 315 315 316 316 317 318 317 317 319 322 322 323 324 325 325 324 324 323 323 323 322 322 322 322 323 324 324 324 324 324 325 325
324 324 323 322 321 320 319 317 316 315 316 316 316 317 317 317 317 317 320 322 322 323 324 324 323 322 322 321 321 321 321 321 321 322 322 323 324 325 325 326 326 326
323 324 324 323 323 323 320 317 315 315 316 316 316 317 317 317 318 319 320 320 322 322 320 319 320 320 321 321 321 322 322 322 323 323 323 324 325 326 327 327 327 327
325 326 326 325 325 323 320 317 316 316 316 316 317 317 317 318 319 319 319 320 322 320 318 320 323 324 325 326 326 327 326 326 327 327 326 326 326 327 327 328 328 328
326 328 328 327 325 323 320 318 316 316 316 316 317 317 318 319 319 319 321 324 324 321 321 325 327 327 328 328 328 329 329 329 329 329 328 328 327 327 327 327 328 328
328 331 331 328 325 323 321 319 317 316 316 317 317 317 319 321 320 321 325 327 326 325 325 327 328 328 328 328 328 329 329 329 329 329 329 329 328 327 327 328 328 328
329 333 333 329 323 321 320 319 317 316 316 317 317 318 321 322 323 325 328 327 327 327 327 328 328 329 329 329 329 329 329 329 329 329 329 329 329 328 328 329 329 329
331 337 336 328 320 319 321 320 318 316 316 317 317 318 321 324 325 327 328 328 328 327 327 327 328 328 328 329 329 329 329 329 329 329 329 329 329 328 328 329 329 328
332 334 334 328 322 320 321 320 318 316 316 317 318 318 322 325 326 327 328 328 328 327 327 327 327 328 328 329 329 329 329 328 328 329 328 327 327 328 328 329 329 327
335 338 341 336 326 321 320 320 318 317 317 318 318 318 321 325 327 327 327 327 328 327 327 327 327 328 329 329 329 329 328 328 329 328 327 326 326 327 328 328 328 326
346 348 344 335 327 324 324 323 320 318 317 318 318 318 321 324 325 324 323 325 328 328 327 327 327 328 328 328 327 327 327 328 328 326 325 325 325 326 326 327 327 326
350 348 337 331 329 327 326 324 321 319 319 318 318 319 322 322 322 321 320 324 328 327 326 326 327 327 327 325 325 326 326 326 326 324 324 324 324 324 325 325 326 326
350 345 338 336 333 327 324 323 320 318 319 318 318 320 322 322 320 320 320 324 327 326 324 325 327 326 324 323 324 324 324 324 323 323 324 324 324 324 324 324 325 325
350 349 344 339 333 327 325 323 318 317 319 318 318 320 323 325 323 320 321 324 326 325 324 325 326 324 323 323 324 323 322 322 322 323 325 326 326 326 325 325 326 326
352 351 343 334 330 326 323 322 319 318 319 318 319 322 325 326 324 321 322 324 325 324 323 325 326 324 323 324 324 324 323 323 323 325 326 328 328 328 328 328 328 327
352 351 342 334 330 324 320 321 319 319 321 320 321 325 325 324 323 322 322 324 324 323 324 326 326 324 324 325 326 327 328 328 327 327 327 328 329 330 330 329 328 327
351 349 341 336 332 322 320 322 319 319 322 321 322 326 325 322 322 321 322 325 326 325 325 327 327 326 326 327 329 331 331 331 330 329 329 329 329 329 329 329 328 327
350 346 338 335 332 324 323 325 321 319 322 322 324 326 323 321 321 321 324 327 327 327 327 328 328 327 326 328 330 333 333 333 331 329 329 328 327 328 328 328 327 326
349 344 337 335 334 327 325 327 324 321 323 326 327 326 322 320 321 322 326 328 329 328 328 328 328 327 326 329 331 334 335 334 331 329 329 328 327 327 326 325 324 324
348 343 338 336 332 325 322 324 324 324 326 330 329 325 321 320 321 322 325 328 329 329 328 328 327 327 328 331 333 335 335 333 331 330 330 329 328 327 326 324 322 323
347 343 339 335 329 323 321 323 325 326 328 331 330 327 323 320 320 321 324 327 329 328 327 328 328 327 330 333 334 334 333 332 331 330 329 328 327 327 325 323 322 323
345 343 340 335 327 323 324 326 325 326 328 330 331 330 326 321 320 320 323 327 330 329 330 330 328 328 332 334 334 333 332 331 331 330 329 328 326 326 325 323 322 322
345 343 341 337 329 325 326 326 323 324 328 331 330 328 324 321 321 321 324 328 331 332 332 331 330 331 333 334 333 332 331 330 330 329 328 327 326 325 324 322 321 322
345 343 341 337 331 328 329 328 324 325 329 333 331 328 327 326 324 323 325 329 332 333 332 331 332 333 333 333 332 331 330 330 329 329 327 326 325 323 322 321 320 321

ECMWFNIL_850_thetae_027.txt.gz
Theta_e
340 338 337 337 336 336 333 332 331 330 327 325 324 322 320 318 318 318 317 317 318 319 321 323 324 324 325 324 324 324 324 324 324 324 324 324 325 325 325 325 325 326
339 336 335 335 335 334 332 330 329 328 325 324 322 320 318 317 317 317 317 317 318 320 322 323 324 325 325 325 324 323 323 323 322 323 323 323 324 325 325 325 325 326
336 332 333 333 334 333 330 331 331 327 324 324 321 318 317 316 316 317 317 317 318 321 322 323 324 325 325 324 324 324 323 323 323 323 323 323 323 324 325 325 326 327
333 330 331 332 334 333 333 334 333 328 325 323 320 317 316 316 317 317 317 317 318 321 322 322 323 325 325 324 324 323 323 322 322 323 323 323 323 324 324 325 326 326
333 330 330 332 334 335 336 339 335 328 325 323 319 317 317 316 316 317 317 317 317 320 321 322 324 325 324 322 321 321 321 321 322 324 324 323 324 324 324 324 325 326
334 331 330 330 332 335 338 338 333 327 325 322 318 316 316 316 316 317 317 317 318 319 321 323 324 322 321 321 321 323 324 325 326 326 326 326 326 326 325 325 326 326
335 333 332 333 335 337 339 338 333 328 326 324 320 317 316 316 317 317 317 318 318 318 321 322 321 321 322 324 325 327 328 328 329 329 329 329 328 328 328 328 328 327
336 335 335 336 337 337 337 337 332 328 325 321 319 317 316 316 317 317 318 318 318 319 322 321 321 324 326 327 328 328 329 329 330 330 330 330 329 329 329 329 328 328
334 335 335 335 335 335 336 334 328 325 323 319 316 316 316 317 316 317 320 318 318 322 323 321 323 326 328 328 328 328 329 329 329 330 329 329 329 329 329 329 328 327
334 332 331 332 334 337 337 332 325 324 321 318 317 316 315 317 317 318 320 320 321 325 325 323 324 327 327 328 329 328 329 329 329 329 329 329 329 329 328 327 327 327
335 329 329 331 334 338 338 333 326 323 320 317 318 318 316 316 317 319 320 321 324 326 326 325 325 326 328 329 329 328 329 329 329 329 329 329 328 327 325 324 324 325
337 332 332 331 332 335 337 334 327 321 319 318 319 321 320 317 316 319 321 323 325 326 326 325 324 325 328 328 328 328 329 329 329 328 328 328 326 325 323 323 323 324
342 339 335 332 332 334 338 338 332 323 319 319 321 322 321 318 317 318 321 324 326 326 326 324 322 325 328 328 328 328 329 329 328 328 327 327 325 324 323 323 324 324
347 345 340 335 333 335 339 341 334 324 320 322 324 323 319 317 318 318 320 324 326 326 325 323 322 325 328 329 328 329 328 328 327 327 327 326 325 324 323 324 324 324
350 350 348 343 335 329 335 341 334 323 321 326 329 327 322 319 318 319 320 323 326 326 324 323 323 325 328 329 329 328 327 326 326 326 325 325 324 324 324 325 325 325
353 352 351 349 343 332 333 341 336 324 321 327 330 331 329 322 319 319 320 322 326 326 323 322 323 326 329 329 329 328 326 325 325 324 323 323 324 324 324 325 326 327
353 353 351 350 348 344 342 341 336 327 323 325 329 332 330 323 319 320 320 322 325 324 323 323 325 329 331 330 329 328 326 324 325 324 324 325 326 326 326 327 329 329
352 352 352 350 349 349 346 340 335 331 326 323 327 332 329 322 320 320 321 324 325 324 323 323 326 330 331 330 330 329 326 325 326 327 328 329 328 328 329 329 329 330
352 351 351 351 349 349 349 343 337 333 327 324 328 330 325 320 319 319 323 327 326 324 323 324 327 331 331 330 330 329 327 327 328 330 330 330 329 328 328 328 329 329
352 351 351 351 350 349 350 348 342 333 326 326 329 327 320 318 318 319 324 328 326 323 323 324 328 330 330 330 330 330 329 329 330 331 332 331 331 329 328 328 328 328
351 351 351 351 349 349 349 349 344 334 326 327 329 324 318 317 318 321 326 328 325 323 323 324 326 329 329 329 330 330 330 330 330 331 333 334 333 331 329 329 328 328
350 351 351 350 349 348 348 349 344 334 329 329 328 324 321 320 319 323 327 326 323 323 322 322 325 327 328 328 329 330 330 330 331 332 334 334 333 331 330 329 328 328
350 350 350 350 349 348 348 348 344 337 333 330 325 324 325 322 321 325 328 326 323 323 321 321 324 326 327 328 329 331 331 331 332 334 334 333 332 331 329 328 328 327
350 350 350 350 349 348 348 347 343 338 334 328 324 325 325 321 322 326 328 326 324 321 320 321 323 326 328 330 332 332 331 332 333 334 333 332 331 330 329 328 327 326
349 350 349 349 348 348 348 346 343 339 333 326 325 326 322 319 322 326 328 328 325 322 321 321 322 326 330 333 333 333 332 333 333 333 332 330 329 328 327 327 325 324
349 349 349 348 348 347 346 345 343 338 331 326 326 324 319 320 325 329 330 330 328 325 323 322 324 328 332 334 334 333 332 333 333 332 330 329 329 327 326 325 324 322

ECMWFNIL_850_thetae_030.txt.gz
Theta_e
347 346 346 344 344 345 345 349 351 346 342 342 338 336 333 329 330 331 328 324 320 319 320 320 322 328 333 334 332 332 332 332 330 328 329 329 327 328 328 327 326 326
347 346 346 345 344 344 343 344 346 343 340 340 337 337 334 328 330 330 326 324 322 321 322 321 323 325 329 333 334 334 334 331 328 327 328 329 328 328 327 327 328 326
347 347 345 344 344 342 340 341 341 340 341 340 339 340 335 329 330 328 323 322 323 323 322 322 324 324 324 328 332 335 335 332 330 329 329 328 327 327 327 327 329 328
347 347 346 343 342 341 339 340 340 339 342 342 340 339 334 330 330 327 321 320 320 320 320 321 324 325 324 325 329 334 334 332 329 328 327 327 326 325 326 327 328 328
347 347 346 343 342 343 341 340 341 340 342 342 339 334 331 330 330 325 320 319 318 317 318 319 321 323 324 326 330 332 330 330 330 325 324 326 327 327 328 328 327 326
347 346 346 345 345 345 343 340 340 340 341 340 337 331 327 328 327 322 319 319 320 319 318 320 323 323 324 327 329 327 324 329 332 329 326 327 329 331 331 329 327 325
348 347 347 347 347 348 345 340 339 339 339 338 335 327 322 321 321 319 318 319 320 319 318 320 323 323 324 325 324 322 321 326 331 330 329 329 330 331 331 329 326 325
348 348 349 349 349 349 347 339 337 338 337 335 332 326 319 318 317 316 317 318 318 318 318 319 320 320 321 321 320 322 324 327 329 330 330 331 331 331 330 328 327 326
347 348 349 350 349 350 346 336 334 337 336 334 331 325 320 318 317 316 316 317 317 318 319 319 319 319 318 319 321 324 327 329 330 330 331 332 332 331 329 328 327 326
347 348 349 350 352 351 344 333 333 335 334 334 331 325 319 318 317 316 316 318 317 318 320 321 320 320 319 320 324 327 327 328 330 330 330 331 331 330 329 329 328 326
347 348 348 351 352 347 338 333 336 337 334 334 332 325 320 317 318 317 317 318 319 319 320 320 321 322 321 321 325 328 328 330 331 330 329 328 329 329 329 328 327 326
347 347 348 351 350 340 335 337 339 338 335 335 333 327 321 318 317 317 318 320 320 320 320 320 321 323 323 323 325 328 329 331 331 329 328 328 328 329 329 328 326 325
347 348 348 352 350 342 338 338 337 337 336 336 336 330 322 319 318 317 319 320 320 319 320 320 320 322 324 324 325 327 328 329 330 328 328 328 328 328 328 329 329 328
347 347 348 352 352 349 342 338 334 336 339 339 337 332 324 321 319 319 321 320 319 319 320 320 320 322 325 326 325 326 327 327 329 328 327 327 328 327 326 327 329 330
353 350 349 353 353 352 349 343 335 333 336 339 338 333 326 322 320 321 324 321 318 319 320 320 320 322 324 326 325 324 325 327 330 329 328 328 328 328 326 326 328 328
358 354 351 353 353 352 351 349 344 336 332 333 337 335 327 321 320 323 324 321 318 319 320 320 321 321 323 325 324 324 327 329 331 330 327 326 327 327 327 329 330 329
358 354 352 353 353 353 353 352 350 345 335 332 337 337 328 321 320 323 325 323 320 321 321 321 321 322 323 325 324 325 329 331 330 330 328 326 326 327 328 330 332 332
355 352 354 353 353 353 353 352 352 350 344 339 341 340 331 323 320 322 325 324 322 322 321 321 322 324 325 324 323 326 330 331 330 331 330 329 329 330 332 333 334 335
355 352 353 352 352 353 352 352 353 352 349 345 344 343 335 326 322 322 324 326 324 322 321 321 323 324 324 324 323 327 331 332 331 331 331 331 333 335 336 336 336 334
352 350 352 351 351 352 351 352 352 352 351 347 345 344 338 328 324 323 325 327 325 321 320 323 324 324 324 324 323 327 332 332 331 331 331 331 333 334 335 335 335 334
349 349 351 351 350 351 351 351 351 351 351 348 345 344 339 330 326 324 326 328 326 321 321 326 327 325 326 325 324 327 332 332 331 332 332 332 332 332 332 333 334 334
349 349 350 351 351 351 350 350 349 350 351 349 346 344 339 333 329 326 326 328 327 323 324 327 327 326 326 325 323 327 331 332 332 332 333 332 332 332 332 333 334 334
348 348 350 350 350 350 349 349 349 349 350 349 348 345 339 333 329 326 325 328 327 325 326 326 324 324 326 324 323 326 330 331 332 333 334 333 332 332 332 333 334 333
349 349 350 350 350 349 349 349 348 348 349 349 349 347 339 332 329 327 326 328 327 326 326 323 322 326 325 322 323 327 329 332 333 334 334 333 332 332 332 333 333 332
350 349 350 350 349 349 349 348 348 348 348 348 348 346 339 334 332 330 328 327 327 329 329 324 325 328 326 321 322 325 328 331 333 334 334 333 333 333 332 332 332 330
350 349 349 349 349 349 348 348 347 347 348 347 346 344 338 334 333 333 331 330 330 332 331 325 325 328 326 322 322 323 326 330 332 334 334 333 333 333 333 333 332 330

ECMWFNIL_850_thetae_033.txt.gz
Theta_e
346 345 345 345 347 346 347 349 352 352 352 350 349 349 347 346 346 343 343 341 333 330 335 333 330 335 338 338 337 338 338 338 338 338 337 337 337 338 338 337 335 334
346 347 346 346 346 346 345 346 349 351 351 350 350 349 347 347 346 342 340 340 334 330 333 332 331 334 338 339 338 338 338 337 338 338 337 337 337 337 336 336 336 334
346 347 347 347 346 345 344 344 346 348 348 347 348 349 348 346 345 343 338 334 334 336 335 334 336 337 337 338 338 337 337 337 338 337 336 337 336 336 337 336 336 336
346 347 346 347 347 346 344 343 344 344 344 344 343 346 348 345 344 343 335 327 330 338 338 334 336 338 337 337 337 337 337 337 337 337 337 337 333 331 335 336 335 336
346 347 347 346 348 349 347 344 343 342 341 342 341 342 344 342 338 338 336 328 326 334 337 328 325 331 333 332 331 329 330 333 336 335 333 335 334 331 333 335 334 335
347 347 347 347 347 349 350 346 344 343 341 343 344 342 341 336 330 331 333 328 324 330 331 321 319 323 323 323 323 321 321 324 332 336 333 332 334 336 336 335 334 334
348 347 347 347 346 347 349 346 345 345 341 343 347 344 338 333 327 326 325 323 325 329 325 317 319 319 318 320 319 319 319 318 325 336 335 331 333 337 337 336 334 331
347 348 346 347 347 346 348 346 346 346 342 343 350 347 337 330 327 324 320 319 322 324 319 316 319 318 318 320 318 318 318 316 320 328 330 330 333 336 336 335 332 327
346 347 347 347 347 347 348 347 346 347 344 343 351 350 338 329 328 324 321 318 317 318 317 318 321 320 319 319 319 318 317 317 321 324 325 331 335 336 336 335 331 325
345 346 346 346 347 347 347 348 348 350 348 344 350 351 340 330 329 326 322 318 317 318 317 318 320 320 320 319 319 320 317 318 321 324 327 334 337 337 336 334 332 328
344 345 346 346 347 347 347 349 352 355 353 347 348 349 342 333 330 327 324 320 317 317 317 318 319 320 321 321 320 319 319 319 321 323 329 334 336 336 332 330 330 329
344 344 345 345 345 347 348 350 354 356 356 352 349 348 344 337 332 329 325 321 317 317 317 318 319 321 321 321 321 320 320 321 322 323 330 335 335 331 329 329 330 331
344 344 344 344 345 346 347 350 353 356 358 356 353 352 348 342 336 332 328 323 319 317 318 318 320 322 321 322 324 322 320 323 323 323 329 334 332 328 329 333 334 335
345 345 345 345 345 346 347 348 351 353 357 357 353 353 351 345 339 335 331 325 319 318 319 319 320 322 320 322 325 323 321 323 322 323 328 331 329 327 331 335 336 335
350 348 347 347 347 348 347 348 349 349 354 356 354 353 352 347 343 339 335 328 321 318 319 319 321 322 321 322 325 324 323 322 321 322 326 328 327 329 333 336 336 335
354 351 351 351 350 350 349 348 349 349 352 355 355 354 351 348 345 342 338 333 324 319 319 320 320 321 321 322 325 326 324 322 321 322 323 324 329 333 335 336 336 336
356 355 354 353 352 354 354 352 350 350 352 354 355 355 352 348 345 342 340 335 325 320 323 323 320 321 321 323 325 325 323 322 322 322 322 325 330 335 336 336 336 336
354 354 355 354 353 354 357 358 354 352 353 354 355 355 351 348 345 343 342 336 325 322 326 323 319 321 322 323 325 324 323 324 324 323 322 324 330 334 336 337 337 336
355 357 356 356 354 353 357 359 355 354 355 355 355 354 351 348 346 344 342 337 327 324 324 321 319 322 323 322 323 323 323 324 325 324 323 324 331 336 337 338 339 337
358 359 358 359 358 354 357 358 356 355 356 355 355 355 352 349 347 345 343 336 327 323 321 321 321 322 322 322 321 322 323 324 325 324 323 325 331 336 337 338 340 340
356 355 357 361 359 356 356 357 355 356 355 354 355 354 353 349 347 346 343 333 326 324 324 323 322 322 323 323 321 321 323 324 325 325 325 326 331 335 337 337 337 338
351 353 357 359 357 356 356 355 355 355 354 353 354 353 353 349 346 347 344 333 328 328 327 323 322 324 325 324 322 322 322 323 324 324 325 326 329 333 336 335 335 334
347 352 357 357 356 356 356 354 354 355 352 352 352 352 352 349 345 346 345 337 331 328 324 322 323 325 326 325 324 323 322 323 325 324 324 325 327 331 334 335 335 334
345 348 353 356 356 355 354 353 353 353 352 351 351 350 351 348 345 344 343 340 336 330 322 322 325 326 327 326 326 326 325 325 325 324 324 325 327 331 334 335 335 333
344 343 345 351 354 354 353 353 352 352 351 350 350 350 349 347 345 343 342 342 340 333 325 325 328 329 328 328 328 328 327 325 324 324 325 327 330 334 337 337 335 334
341 338 337 345 351 354 353 351 351 351 350 350 349 348 347 346 344 344 343 341 338 334 330 329 329 329 331 331 331 330 327 324 324 326 328 330 333 337 339 339 337 334

ECMWFNIL_850_thetae_036.txt.gz
Theta_e
345 344 344 345 345 345 347 348 347 346 347 346 344 341 337 340 346 348 346 341 330 322 319 320 319 322 330 331 333 338 335 333 337 337 334 335 334 334 337 336 335 335
346 344 344 344 343 344 346 348 348 346 346 347 344 342 340 338 342 346 344 340 332 324 318 317 318 321 326 328 329 332 334 334 336 337 334 332 333 335 335 335 336 335
346 345 344 343 342 343 344 346 349 347 345 346 344 344 344 341 339 341 341 338 332 324 317 316 319 319 323 331 333 330 332 333 334 336 335 331 333 333 333 335 336 336
347 346 344 343 343 343 344 345 348 348 345 347 346 345 346 344 342 339 337 335 331 322 316 315 320 319 322 334 338 333 330 331 333 336 335 333 334 331 327 331 335 336
347 347 346 345 344 344 344 344 346 345 345 346 347 346 346 344 343 340 335 333 328 320 317 316 319 321 323 332 338 336 331 331 333 334 332 332 332 327 322 324 330 334
347 348 347 346 346 345 345 345 345 345 345 345 346 347 346 344 342 340 336 333 327 320 316 317 320 324 324 326 333 334 330 329 331 329 327 327 325 325 326 325 327 331
348 348 348 348 348 347 347 346 345 345 345 344 345 346 345 344 342 340 338 334 329 322 316 316 320 323 323 323 326 327 324 324 324 321 324 324 322 326 331 330 330 332
348 348 348 348 349 349 349 350 348 346 345 345 347 346 344 343 342 341 339 335 331 324 318 317 318 319 320 321 322 321 320 321 319 320 327 328 323 326 329 329 332 332
349 348 347 348 349 349 350 351 351 349 348 348 350 348 346 345 344 342 340 338 334 327 320 318 317 317 319 320 320 318 319 319 317 321 330 330 323 323 326 327 329 330
349 349 348 347 348 348 348 349 351 351 350 350 351 351 350 348 346 345 344 341 337 330 323 319 317 317 318 319 320 321 321 320 317 320 326 326 322 322 324 325 327 328
348 349 349 348 348 347 346 348 350 353 352 352 352 353 352 350 348 347 346 345 340 332 325 321 318 317 318 319 322 325 325 322 319 318 320 321 322 322 324 325 325 327
346 348 348 348 348 348 348 349 352 356 356 355 354 354 353 352 349 348 347 345 342 335 328 324 320 317 318 320 323 326 326 324 320 319 319 321 322 323 324 326 325 326
344 345 347 347 346 347 349 351 355 358 358 358 358 356 354 353 351 349 347 346 343 338 332 327 322 318 318 320 323 325 325 325 322 319 319 320 321 322 324 326 326 325
344 345 347 347 346 346 349 352 356 358 359 359 359 358 356 355 353 350 349 348 345 341 335 330 323 318 318 320 322 324 325 325 323 320 320 321 321 323 325 326 325 325
346 346 347 346 347 347 348 351 355 358 359 359 359 358 357 356 354 352 351 349 347 343 339 334 325 318 318 319 321 324 325 325 324 321 320 321 323 323 325 327 326 324
350 348 347 347 348 349 348 351 355 358 359 358 358 359 357 356 355 353 352 350 348 346 342 337 328 319 317 318 321 324 324 325 325 322 320 323 325 324 326 328 326 324
353 350 349 348 348 350 351 354 356 358 358 358 358 358 358 357 354 354 353 351 349 347 344 340 331 320 317 319 321 323 323 324 325 322 322 325 326 325 326 327 327 328
356 354 353 352 352 354 357 358 358 359 359 358 358 359 358 358 355 354 353 351 349 347 346 344 336 324 318 318 321 323 323 323 324 323 322 324 323 323 323 325 327 331
358 358 358 358 359 360 360 361 361 360 359 358 359 359 358 358 357 355 353 350 349 348 346 346 341 330 321 318 320 323 323 322 323 323 323 323 322 323 323 323 328 332
362 363 363 363 363 363 362 363 362 360 359 357 357 358 358 359 357 355 354 351 349 348 346 346 343 336 324 318 321 323 322 322 323 324 324 323 323 326 325 324 329 332
365 366 365 364 363 362 363 364 361 359 357 355 356 358 359 359 358 356 354 351 349 348 347 345 343 337 324 318 322 324 322 322 323 324 324 323 325 327 326 327 332 334
367 366 365 364 363 362 363 363 360 358 356 354 356 358 358 358 357 356 355 352 350 348 347 344 341 334 323 320 324 325 322 321 322 323 323 323 325 327 326 328 332 332
366 365 365 364 362 361 362 362 360 357 355 354 356 358 357 357 357 356 355 353 351 349 347 343 337 331 327 327 326 323 321 321 322 323 323 323 324 326 327 330 330 327
364 365 365 363 362 362 362 360 358 356 355 355 356 356 355 355 355 355 355 354 352 349 346 341 336 334 334 333 326 320 320 321 322 323 323 323 323 324 328 331 329 325
365 365 363 361 359 358 357 356 355 355 355 355 355 355 354 353 353 354 354 353 350 347 344 341 338 337 337 333 324 320 321 322 322 323 323 322 323 324 327 330 329 326
365 362 359 356 352 350 352 354 354 354 354 354 353 353 352 352 352 353 353 351 347 344 342 341 339 337 336 332 324 321 323 322 321 322 322 322 324 326 329 332 331 328

ECMWFNIL_850_thetae_039.txt.gz
Theta_e
340 339 339 339 341 344 346 348 349 350 349 346 343 342 343 343 342 343 343 341 338 331 324 318 316 317 318 322 328 333 335 330 325 324 325 325 324 325 327 329 331 332
340 340 338 339 341 343 346 348 348 348 346 343 341 341 342 343 343 342 340 340 336 328 320 317 316 317 319 321 325 331 333 329 325 325 324 325 326 325 326 328 330 329
340 340 339 340 342 343 345 348 348 347 345 343 341 342 343 343 342 341 338 336 333 328 322 318 317 317 319 321 323 326 328 326 323 324 325 326 327 327 328 330 331 328
340 340 340 340 342 343 344 348 349 348 346 344 342 342 344 344 343 341 337 332 329 327 323 318 316 317 319 320 322 323 325 324 323 324 325 327 328 327 328 332 333 332
340 341 342 341 342 343 344 346 347 348 347 345 344 343 344 344 343 340 336 331 326 325 323 319 316 317 318 319 319 322 324 323 323 325 325 324 325 327 327 329 333 335
341 342 343 342 342 343 344 345 346 346 346 345 344 345 344 344 342 341 338 334 330 327 325 322 318 316 318 318 318 321 323 322 322 324 325 323 323 325 325 326 329 334
341 342 344 343 343 343 343 344 345 345 345 344 344 344 344 343 342 341 340 339 337 333 329 326 321 317 318 318 319 321 321 321 321 323 323 322 322 323 323 322 324 329
343 342 344 344 344 345 344 344 344 344 344 344 344 343 343 342 341 341 341 341 340 337 334 330 325 320 318 318 319 320 321 320 320 322 322 321 321 322 321 321 323 327
345 343 344 344 345 345 345 344 343 343 344 344 343 343 343 342 341 340 340 341 341 339 336 334 330 324 319 318 319 320 322 321 321 323 323 321 322 322 322 323 325 327
349 346 345 345 345 345 345 344 344 344 344 344 344 343 343 342 341 341 341 341 341 339 338 335 333 328 322 319 318 319 321 322 322 324 323 321 322 322 322 323 325 327
351 348 347 346 345 345 345 345 345 345 345 346 345 344 344 343 343 342 342 342 342 341 339 337 336 333 327 321 318 318 321 322 323 324 323 322 321 322 322 322 324 326
353 350 348 346 346 345 345 345 346 346 346 347 347 346 345 345 343 343 342 343 343 342 341 340 339 336 332 324 319 318 319 321 323 324 324 323 322 322 322 322 324 325
353 350 347 346 346 345 345 346 347 346 347 347 348 348 348 346 345 344 344 344 344 344 343 342 341 340 335 327 322 320 318 319 323 324 324 323 321 321 321 322 323 325
353 349 347 346 346 346 346 346 347 348 348 348 349 349 349 348 347 347 347 348 347 347 346 345 344 342 337 331 327 324 319 318 323 324 324 322 320 320 321 322 323 324
354 350 348 347 347 347 347 346 347 349 350 350 351 351 351 350 350 351 351 351 350 350 349 347 346 344 341 337 333 328 321 319 323 325 325 323 321 319 320 321 322 323
355 351 348 347 347 347 346 346 347 349 351 352 353 353 353 353 353 353 353 353 352 352 351 350 348 346 344 341 338 333 324 320 322 324 325 324 322 320 320 321 322 323
356 352 350 348 346 346 345 347 349 351 353 354 355 355 355 355 355 354 354 354 353 353 352 352 350 347 346 343 341 338 328 320 321 324 324 324 323 321 321 322 322 323
357 353 351 349 347 346 346 348 351 354 355 356 357 357 358 358 358 356 355 355 355 354 354 353 351 349 347 346 344 341 332 321 320 323 323 323 323 322 321 322 323 324
359 356 353 351 349 349 349 351 354 356 357 357 357 358 359 360 359 358 357 356 356 355 354 354 352 350 348 348 346 345 338 325 319 321 323 322 323 322 322 322 323 324
359 358 355 353 352 353 353 355 356 357 357 357 358 359 359 360 360 359 359 357 357 356 355 354 353 351 350 349 347 347 343 330 320 320 323 322 323 323 322 322 323 324
360 360 359 357 356 357 357 357 357 357 358 358 359 359 359 360 360 359 359 358 358 357 356 355 354 352 350 350 348 348 346 334 321 320 322 322 323 324 323 323 323 323
361 362 361 360 359 359 359 359 358 358 359 359 359 359 360 360 360 359 359 358 358 358 356 355 354 352 351 351 349 349 346 335 322 319 322 323 324 324 324 324 323 323
362 363 363 362 361 362 361 360 360 360 360 360 360 360 360 360 359 359 358 359 358 358 357 355 354 353 352 351 350 349 346 336 324 320 321 324 326 326 324 323 323 324
363 364 363 363 363 362 362 361 361 361 361 361 360 361 360 359 359 359 359 359 359 359 358 356 355 353 352 351 350 348 345 337 327 321 321 324 326 325 324 323 324 324
364 364 364 364 364 364 363 362 362 362 361 361 361 361 360 359 358 357 358 359 359 359 358 356 354 353 352 351 349 347 345 339 328 321 321 324 324 324 324 325 324 323
365 365 365 365 365 365 364 363 363 361 360 360 361 361 360 358 356 355 355 357 358 358 357 355 353 352 351 349 348 347 345 338 327 322 322 324 325 324 325 325 324 323

ECMWFNIL_850_thetae_042.txt.gz
Theta_e
337 337 337 338 339 340 342 343 343 343 344 344 345 345 342 340 341 342 341 340 339 338 337 335 331 328 325 320 318 317 321 325 322 319 320 320 321 322 322 326 327 326
339 337 338 338 339 340 341 341 342 343 344 344 345 344 343 341 341 342 341 340 339 337 337 335 328 324 321 317 317 317 321 324 321 319 320 320 322 322 322 325 326 326
343 339 338 338 339 339 340 341 341 342 344 345 345 345 344 343 342 342 341 341 340 338 337 336 327 319 317 317 317 318 320 323 321 319 320 321 321 322 322 324 326 326
347 342 340 339 339 339 340 341 340 341 343 345 345 345 345 345 344 343 341 341 341 339 338 336 327 318 317 318 317 318 319 321 321 320 320 320 320 321 322 323 325 326
350 346 343 341 341 341 341 341 341 340 342 344 345 346 346 346 345 343 341 340 340 340 338 336 329 320 316 318 318 318 319 320 321 320 320 320 320 322 322 322 324 324
352 350 347 344 344 344 344 342 341 340 341 343 344 346 347 346 344 342 341 340 340 340 339 335 330 323 318 317 318 318 318 320 321 320 320 321 320 321 323 322 322 322
354 353 350 348 346 346 345 343 341 341 342 343 343 345 346 346 344 342 341 341 341 341 339 333 328 324 319 316 318 318 318 320 321 320 321 321 321 321 322 322 322 322
355 354 353 350 349 348 347 344 342 341 342 343 343 343 345 345 344 342 341 342 341 341 340 335 328 324 321 318 317 318 318 319 321 321 321 322 322 322 322 322 323 322
356 356 354 353 351 349 348 345 342 341 342 343 343 342 344 345 344 343 341 341 342 341 341 338 333 329 324 320 318 318 318 319 320 321 321 323 323 323 322 322 323 322
356 356 355 354 353 350 348 345 342 342 341 342 342 342 343 344 344 344 342 342 342 341 341 340 338 335 331 325 321 319 318 318 320 321 321 323 324 324 323 323 323 323
357 357 356 355 353 350 347 345 344 342 341 341 342 343 343 344 344 345 344 343 342 342 341 340 340 339 337 333 327 322 319 318 319 320 320 322 324 324 323 323 322 322
357 357 355 354 353 350 346 345 345 344 342 342 342 342 343 343 344 344 345 344 343 342 342 341 340 340 340 338 334 328 323 319 319 320 320 321 323 324 324 323 322 322
357 356 354 353 352 349 346 345 345 344 343 342 343 343 343 342 343 344 344 344 344 344 343 342 341 341 341 340 339 335 328 323 320 320 320 321 322 323 324 323 322 322
357 356 353 351 350 348 346 345 345 345 343 343 344 344 343 342 342 344 345 345 345 345 344 344 343 342 342 342 342 339 335 328 323 320 320 321 322 323 324 322 321 322
358 357 354 352 350 349 347 346 346 346 345 344 345 345 344 344 343 344 345 345 346 346 346 345 344 343 343 344 343 342 340 336 329 324 320 320 321 323 324 323 321 321
358 357 356 354 352 350 348 346 346 346 346 346 346 346 345 346 346 346 346 346 346 346 346 346 345 344 344 346 346 345 343 341 337 330 322 319 320 322 323 323 322 320
358 358 357 355 353 351 350 347 347 348 348 348 347 347 347 348 349 348 348 348 348 348 347 347 345 345 346 348 348 347 346 345 342 337 329 322 319 320 321 322 323 321
358 358 358 356 354 353 351 350 350 351 351 350 349 349 348 349 350 349 349 349 349 349 348 348 347 348 349 350 349 349 348 347 346 343 338 330 322 319 320 323 323 322
358 359 359 356 355 353 352 353 354 354 354 352 351 349 349 349 350 349 350 350 350 349 349 349 350 350 351 351 351 350 350 350 348 346 344 339 329 321 320 323 324 323
358 359 358 357 355 354 355 356 356 355 355 354 352 351 351 351 350 350 350 349 349 349 349 350 352 352 353 353 352 352 352 351 350 347 346 343 337 328 321 321 323 324
358 358 358 358 357 357 357 357 356 356 356 354 353 352 352 351 350 350 349 349 349 349 351 352 353 354 354 354 353 353 353 352 350 348 346 344 342 335 324 320 322 323
357 357 358 359 359 359 358 357 357 356 356 355 354 353 353 352 352 351 349 349 350 351 353 354 355 356 356 355 355 354 354 353 351 348 346 344 343 340 330 321 320 322
358 357 358 359 360 360 359 357 356 356 355 355 355 354 354 353 352 351 350 350 352 353 355 356 357 357 357 356 356 355 354 354 351 349 347 344 343 343 336 325 320 321
358 358 358 359 360 360 358 358 357 356 355 354 354 353 353 352 352 352 352 354 355 355 356 357 358 358 358 357 357 356 355 354 353 350 348 345 343 342 339 329 321 320
359 359 358 359 360 359 359 358 357 356 354 353 353 353 353 353 354 355 355 356 357 357 358 359 359 359 359 358 357 356 356 354 352 350 347 345 344 342 339 332 322 319
359 359 359 360 359 359 360 360 358 357 355 354 354 355 356 356 356 356 357 357 358 359 359 359 360 359 359 358 357 356 355 353 352 350 348 346 344 342 339 332 323 320

ECMWFNIL_850_thetae_045.txt.gz
Theta_e
347 346 345 342 340 336 334 333 334 337 340 340 340 340 341 341 341 343 342 341 340 338 338 338 337 336 334 331 327 324 320 318 319 321 321 319 319 320 322 322 322 326
348 348 347 344 340 337 336 336 337 339 341 340 340 340 340 341 342 342 341 340 339 336 337 337 336 336 335 331 327 323 320 318 319 321 322 321 320 319 320 321 321 324
348 348 347 346 342 338 336 337 338 340 342 342 340 340 341 341 342 342 341 341 339 337 337 336 336 336 334 331 327 322 319 318 319 321 322 321 320 319 319 321 321 322
348 348 348 347 344 339 336 337 338 339 341 342 341 341 341 341 342 342 342 342 340 338 338 338 338 337 335 332 326 322 319 318 318 321 322 321 319 319 320 321 322 322
348 348 348 348 347 343 338 337 337 338 339 341 342 341 341 342 342 342 343 343 341 339 339 340 339 337 336 334 327 322 320 318 317 320 322 321 320 319 320 322 323 322
348 348 348 348 348 346 341 337 336 338 339 340 341 342 341 342 342 343 343 342 342 340 339 339 340 338 338 337 331 323 320 318 317 319 321 322 321 320 320 322 323 322
348 349 349 349 349 349 346 340 337 337 338 339 340 341 341 341 342 343 343 342 342 341 340 339 339 338 338 338 335 326 319 318 318 318 320 322 322 321 320 321 322 322
349 349 349 350 350 350 349 345 339 337 337 339 339 341 341 341 341 343 343 343 343 342 341 340 339 338 338 339 337 330 321 318 317 318 319 320 322 321 320 321 321 322
349 350 350 351 351 351 350 347 342 338 337 339 339 340 341 341 341 343 343 343 343 343 342 341 340 339 339 340 339 334 326 320 317 317 318 320 321 321 321 321 321 322
350 350 351 351 352 352 351 348 344 341 339 339 340 340 341 341 341 342 343 343 343 343 342 341 340 340 340 341 340 336 331 325 320 317 318 319 320 320 321 322 322 322
351 351 351 352 353 352 351 349 346 344 341 340 341 341 342 342 341 342 344 344 343 343 343 342 341 340 340 341 340 338 335 330 324 320 318 318 319 320 321 322 322 322
352 352 352 353 353 353 352 351 348 346 343 341 341 342 343 342 342 342 343 343 342 342 343 343 342 341 340 340 341 340 337 333 328 324 320 318 318 319 320 322 322 323
352 352 353 353 354 354 353 352 350 348 345 342 341 342 343 343 341 341 342 343 343 343 343 344 344 343 341 341 341 341 340 337 334 331 326 320 318 319 320 321 322 324
352 353 353 354 354 354 354 353 352 349 346 344 343 342 342 341 341 341 341 342 343 343 343 344 345 344 343 343 343 343 342 340 338 337 334 327 321 318 319 320 322 323
353 353 354 354 355 355 355 354 353 352 349 347 344 341 340 340 340 341 342 342 342 343 343 344 344 344 343 344 344 344 343 343 342 341 339 336 328 321 319 320 321 322
354 354 354 355 355 355 356 355 355 354 352 349 345 341 338 338 341 342 342 342 342 342 343 343 343 342 342 344 345 345 345 344 344 343 343 341 337 330 323 320 320 321
355 355 355 355 355 356 356 356 356 355 354 351 347 342 337 337 340 342 343 342 342 342 343 342 341 340 341 344 346 346 346 346 345 345 345 344 343 339 334 327 321 320
356 356 356 355 355 357 357 357 357 356 355 353 349 342 337 337 339 341 343 343 342 343 343 342 340 340 342 344 346 347 347 346 346 346 346 346 345 344 343 338 328 320
356 357 357 356 356 357 357 357 357 356 355 352 349 344 339 338 338 340 342 343 343 343 343 342 341 342 343 345 346 347 347 347 347 347 347 347 347 347 346 344 337 326
357 357 357 356 356 357 358 358 357 356 355 352 350 347 343 338 337 338 340 341 342 342 342 342 342 343 344 345 346 347 348 348 349 349 349 349 349 349 347 347 344 336
357 357 357 357 357 358 358 358 357 357 356 353 352 349 344 339 337 338 338 339 341 341 342 343 343 344 344 345 346 348 348 350 350 350 351 351 350 350 349 348 345 342
356 357 357 357 358 359 359 358 357 357 356 355 354 350 347 345 342 339 338 339 340 342 343 343 343 344 345 345 347 349 350 351 351 351 352 352 352 352 350 347 345 344
356 357 357 358 358 359 359 358 358 357 357 356 355 353 351 347 344 341 340 340 340 341 342 343 343 344 344 345 347 350 351 352 353 353 354 352 352 352 349 345 344 344
356 357 357 358 358 358 358 358 358 358 357 357 356 355 351 346 344 344 342 341 341 341 341 343 343 343 343 345 348 350 352 353 354 355 354 352 351 351 349 346 346 346
356 357 357 357 358 358 358 359 359 358 358 358 357 356 353 349 347 347 344 342 342 342 343 344 344 344 344 346 350 352 353 354 355 356 355 353 351 350 349 348 348 346
355 356 357 357 358 357 358 358 358 358 359 358 358 357 356 354 352 350 348 346 345 345 345 345 345 346 346 349 352 353 354 355 356 357 355 353 352 351 349 349 349 347

ECMWFNIL_850_thetae_048.txt.gz
Theta_e
347 346 344 343 341 339 337 337 336 336 335 334 334 333 333 335 338 341 342 342 344 344 343 342 343 343 341 340 338 336 333 330 328 325 324 323 324 324 324 325 326 327
347 347 346 346 345 342 339 336 335 334 333 333 332 333 333 334 337 340 341 341 343 344 342 342 342 341 340 339 337 335 332 328 326 323 321 322 323 324 324 323 324 325
347 347 347 347 346 345 343 340 337 334 333 332 332 332 333 335 337 339 340 341 342 343 342 341 340 339 338 337 336 335 332 328 325 322 320 321 322 323 323 324 323 323
347 347 347 347 346 346 346 345 342 337 334 332 333 333 334 336 338 339 340 341 342 342 342 341 340 337 336 335 335 335 333 329 325 323 322 321 321 322 324 325 324 322
346 346 346 346 346 346 346 346 346 343 337 333 333 334 335 337 339 340 340 340 341 341 342 342 341 338 336 335 335 335 334 331 326 324 323 321 320 321 323 324 323 322
346 346 347 347 347 346 346 346 346 346 342 336 333 333 335 337 340 340 340 340 341 341 342 342 342 339 337 336 336 336 335 333 329 326 324 321 320 321 323 324 324 321
346 346 347 347 347 347 347 347 346 347 346 342 336 333 334 336 338 340 340 340 340 341 342 342 342 341 339 337 337 336 336 335 333 330 325 321 320 320 321 324 324 321
346 346 347 347 347 347 347 347 347 346 346 346 341 336 333 335 337 338 339 340 340 341 342 342 343 342 340 339 338 337 336 336 335 333 328 323 321 319 319 322 324 322
346 346 347 347 347 347 347 347 347 347 347 347 345 339 334 334 336 337 338 340 340 340 341 342 343 343 342 340 339 338 337 336 337 336 333 328 322 319 318 320 322 323
346 347 347 347 347 347 347 347 347 347 348 348 347 344 339 335 335 336 337 339 340 340 340 341 342 342 342 341 340 339 338 338 338 338 337 333 327 321 318 318 320 322
347 347 347 347 347 347 348 347 348 348 348 348 349 348 344 338 335 335 336 337 338 339 339 339 340 341 342 341 340 339 339 338 339 339 339 337 333 327 322 318 318 320
347 347 347 347 347 348 348 348 348 348 348 349 349 349 347 342 336 335 335 336 337 338 339 338 339 340 341 341 340 340 339 339 339 340 340 340 337 333 329 323 319 318
347 347 347 347 347 348 348 348 348 348 348 349 350 350 349 345 338 335 335 336 337 337 338 338 338 339 340 340 341 340 340 340 340 340 340 341 339 336 333 330 324 319
346 347 347 347 347 347 348 348 348 348 349 349 350 351 350 346 340 336 335 336 337 337 338 338 338 338 339 340 340 340 340 340 340 340 340 341 340 339 337 334 330 325
347 347 347 347 348 348 348 348 348 349 349 350 351 352 351 347 342 338 337 336 337 337 338 338 337 337 338 338 338 339 339 340 341 341 340 341 341 341 340 337 336 333
348 348 348 348 348 348 348 348 349 349 350 350 351 352 351 348 345 342 338 336 336 337 337 337 337 336 336 337 337 338 338 340 341 341 342 342 342 342 342 341 339 338
349 349 349 349 348 349 349 349 349 350 350 351 351 353 352 350 347 343 339 337 336 336 336 336 336 336 336 336 336 337 338 339 340 341 343 344 345 344 344 343 343 341
349 349 350 349 349 349 348 349 350 350 351 351 352 353 352 352 348 343 340 339 337 335 335 335 336 336 336 336 336 337 338 339 339 341 342 344 346 346 346 345 344 343
349 350 350 349 349 349 350 350 350 350 351 351 351 353 353 352 349 343 341 339 337 335 333 334 335 336 336 336 337 337 338 339 340 341 342 344 346 348 347 346 345 344
349 350 350 350 350 350 351 351 351 351 351 351 352 353 353 353 350 345 341 339 336 334 332 333 334 335 336 336 337 337 339 340 341 342 344 346 348 349 348 347 346 345
350 350 350 351 351 351 352 352 351 351 352 352 353 353 353 354 352 349 344 338 335 334 334 333 333 334 336 336 337 338 339 341 342 344 347 348 349 349 348 347 348 346
350 350 351 352 353 353 353 352 352 352 352 353 354 354 354 355 355 353 348 342 339 337 335 333 332 333 335 336 337 338 340 342 344 347 348 349 349 349 348 349 349 348
351 352 352 353 354 354 354 353 353 353 353 354 355 355 355 355 355 355 353 350 347 343 338 334 332 333 334 335 337 338 340 343 346 348 349 349 349 349 349 350 350 350
352 352 353 353 354 354 353 353 353 353 354 355 355 355 355 356 356 356 356 355 353 348 341 336 334 333 334 335 336 337 341 343 347 349 350 349 349 349 350 351 351 350
351 353 353 354 354 354 354 354 354 354 355 355 355 355 355 355 356 356 356 356 355 353 349 344 340 337 335 335 336 337 341 345 349 350 351 350 350 350 351 352 352 351
352 352 353 354 353 353 353 354 354 355 355 356 356 356 355 356 356 356 356 356 356 355 353 351 348 343 339 336 337 338 341 346 349 351 351 351 351 351 352 353 353 353

ECMWFNIL_850_thetae_051.txt.gz
Theta_e
346 344 343 341 340 339 338 337 337 338 338 338 338 337 336 336 335 336 335 336 338 339 341 342 342 343 344 344 344 344 344 344 343 340 336 334 332 330 329 328 328 327
347 346 345 345 344 342 339 337 337 337 337 337 338 337 336 335 335 335 335 334 335 337 339 341 342 343 344 344 343 343 343 344 343 340 336 333 331 329 328 327 328 328
346 347 346 346 346 345 343 340 338 337 337 337 337 337 336 335 334 334 334 334 334 334 337 340 341 342 343 343 343 342 342 343 342 340 337 333 330 328 326 326 327 328
346 346 346 346 346 346 345 344 342 340 339 337 336 336 335 334 333 333 333 333 333 334 335 339 341 341 341 342 342 342 340 341 341 340 339 335 330 328 326 325 326 327
344 345 345 345 345 345 346 346 345 343 342 339 336 335 334 333 332 332 333 334 334 335 336 338 340 340 341 341 341 340 339 339 339 338 338 336 332 330 327 324 325 326
344 344 344 345 345 345 346 346 346 345 344 342 339 336 334 333 332 332 333 335 336 337 337 339 339 340 340 340 340 339 338 337 337 336 337 336 333 331 328 325 325 325
343 343 344 345 345 345 345 346 345 345 345 344 343 341 338 335 333 332 333 334 336 337 338 338 339 339 340 340 340 339 338 337 336 336 336 336 334 332 329 327 325 324
343 343 344 344 345 345 345 345 345 345 345 345 345 344 343 340 335 332 332 334 335 337 338 338 338 338 339 340 341 340 340 338 337 337 337 336 336 334 330 328 325 324
343 343 343 343 344 345 345 345 345 345 345 345 345 345 345 344 340 335 332 332 334 335 337 338 338 338 339 339 340 341 341 340 339 338 338 338 337 336 334 330 327 324
343 343 343 344 345 345 345 345 345 345 345 345 346 345 345 346 344 341 336 333 333 334 336 337 338 338 338 339 340 341 342 342 341 340 339 338 338 338 338 336 331 326
343 343 343 343 344 344 344 344 344 345 345 345 345 346 346 346 346 345 342 337 333 333 334 336 337 337 337 338 339 340 341 342 343 342 340 339 339 339 340 339 337 332
343 343 343 343 344 344 344 344 344 345 345 345 345 346 346 346 346 346 345 341 336 333 333 335 336 337 337 337 338 339 340 342 343 343 342 341 340 340 341 340 340 337
343 343 343 343 343 344 344 344 344 345 345 345 345 346 346 346 346 347 347 345 341 336 334 334 335 336 337 337 338 338 338 340 342 343 343 342 341 341 341 341 340 339
343 342 343 343 343 343 344 344 344 345 345 345 345 345 346 346 347 347 347 347 345 342 337 335 334 335 336 336 337 337 338 339 340 342 343 343 343 343 341 340 340 340
343 343 343 343 343 343 344 344 344 345 345 345 345 345 346 346 347 347 348 348 348 346 342 338 335 334 335 335 336 337 337 338 339 340 342 344 344 344 342 339 340 341
343 344 343 344 344 344 344 344 345 345 345 345 345 346 346 346 347 347 348 348 349 349 346 342 337 334 334 335 335 336 337 338 338 339 341 343 344 344 342 341 341 341
343 343 344 344 344 344 344 345 345 345 345 345 346 346 346 347 347 347 348 348 349 350 349 344 338 334 333 334 335 336 337 338 338 338 339 341 343 342 342 343 343 341
344 344 344 344 344 345 345 345 345 345 346 346 346 346 346 347 347 348 348 348 349 350 349 345 338 333 333 334 334 336 337 338 338 338 338 340 341 342 342 344 344 342
344 344 344 344 345 345 345 346 345 346 346 346 346 346 347 347 347 348 348 348 350 350 349 346 340 334 335 335 335 335 337 339 339 338 338 338 339 341 342 343 342 342
344 344 344 345 345 345 346 346 346 346 346 347 347 347 347 348 348 348 349 349 350 350 350 349 343 336 335 336 336 337 338 339 341 340 339 338 339 341 342 342 342 342
344 344 345 345 346 346 347 347 347 347 347 347 347 347 347 348 348 348 349 349 350 350 351 350 345 339 337 336 337 339 340 341 342 342 340 339 339 341 342 341 342 343
344 344 345 345 346 347 347 348 348 347 347 348 348 348 348 349 349 348 349 349 349 351 352 351 348 344 340 338 339 341 342 343 344 343 343 342 341 342 342 342 343 344
344 345 345 346 346 347 348 348 347 348 348 349 349 349 349 349 349 349 350 349 350 350 351 351 351 349 344 341 342 342 344 344 344 344 344 343 343 343 342 343 345 345
345 346 346 347 347 347 348 348 348 348 348 349 349 349 349 350 350 351 351 350 349 350 351 351 351 349 345 345 345 345 345 345 344 344 345 345 344 344 344 344 345 346
346 346 347 347 347 347 348 348 348 348 348 349 349 349 349 350 351 351 352 351 350 351 351 351 352 351 348 348 350 349 349 348 347 347 347 347 346 345 345 345 345 346
346 346 347 347 347 348 348 348 349 349 349 349 349 350 350 351 351 352 352 352 352 353 353 351 351 352 351 351 352 352 352 352 350 348 349 348 347 346 346 346 346 347

ECMWFNIL_850_thetae_054.txt.gz
Theta_e
338 338 338 338 337 337 337 337 337 337 338 337 337 337 336 337 337 338 339 339 339 339 338 339 340 341 340 342 346 347 348 348 348 350 351 346 338 334 331 330 331 332
338 338 338 338 338 338 338 338 338 337 337 337 337 337 337 337 337 337 338 338 338 338 338 338 338 339 340 340 344 347 347 348 348 349 351 348 341 335 330 327 328 327
339 339 339 339 339 339 339 339 339 338 338 337 337 337 337 338 338 338 338 338 338 337 336 336 335 336 338 339 341 344 347 348 348 350 351 350 347 339 331 328 329 327
340 340 341 342 342 342 341 341 340 339 338 338 337 337 337 337 338 338 338 338 338 337 337 335 334 335 336 338 339 342 345 346 348 350 351 351 351 344 335 331 331 329
340 342 344 344 345 345 345 343 342 341 340 339 338 337 336 336 337 337 338 338 338 337 337 336 334 334 334 335 338 340 342 347 349 350 350 351 352 348 338 331 330 327
341 342 344 345 346 346 346 345 344 343 343 342 341 338 336 336 336 337 337 337 337 337 337 336 334 334 334 335 338 339 341 347 350 349 348 350 352 349 342 332 328 325
340 342 343 344 345 346 346 346 345 345 344 344 344 342 340 338 336 335 336 336 336 335 335 335 334 333 334 335 337 339 339 342 348 348 345 347 351 351 345 335 329 326
339 341 343 343 344 345 345 345 345 345 344 345 345 344 343 341 339 336 335 335 335 335 334 334 334 333 335 336 336 339 339 338 344 346 342 343 349 350 345 336 331 328
339 340 341 342 343 344 344 344 344 344 344 344 345 345 345 344 342 340 337 335 334 334 334 333 334 334 334 337 337 337 339 338 340 342 340 340 344 345 340 335 333 331
339 339 340 341 342 342 342 342 343 344 344 344 344 345 345 345 344 344 342 339 337 335 334 333 333 334 334 336 338 338 338 339 339 340 340 339 339 338 336 336 336 335
339 339 339 340 340 340 341 341 342 343 343 343 343 344 345 345 344 345 345 344 342 339 336 334 333 334 334 335 337 338 338 338 339 340 341 340 338 337 337 337 338 337
342 341 341 341 341 340 341 341 341 342 342 343 343 343 344 344 345 345 345 345 345 343 340 337 335 334 333 334 336 337 338 339 339 339 340 341 340 338 338 339 339 338
342 342 342 342 341 341 341 341 341 342 342 342 342 342 343 344 344 345 345 345 345 345 344 342 340 338 335 333 334 335 337 338 340 339 339 340 340 340 339 340 340 340
342 342 342 342 342 342 342 342 341 342 342 342 342 343 343 343 344 344 345 345 345 345 346 345 344 343 340 337 335 334 335 337 338 339 339 339 339 340 341 341 341 341
342 342 342 342 342 342 342 342 342 342 342 342 342 343 343 343 344 344 344 345 345 345 346 346 346 345 344 341 338 335 334 335 337 338 338 339 339 339 340 342 342 343
343 342 342 342 342 342 342 342 342 342 342 343 342 343 343 343 343 344 344 345 345 345 346 346 346 346 345 343 340 338 335 334 335 336 337 338 338 338 339 340 341 343
343 343 343 343 342 342 343 342 342 342 343 343 343 343 343 343 343 344 344 345 345 345 346 346 346 347 346 345 344 342 340 338 335 334 336 337 337 338 338 338 340 341
343 343 343 343 343 342 342 342 342 342 343 343 343 343 343 343 344 344 344 345 345 346 346 346 346 346 347 347 347 346 345 343 340 337 335 335 336 337 337 337 339 339
343 343 343 343 343 342 343 343 342 343 343 343 343 343 344 344 344 344 344 344 345 346 345 346 346 347 347 347 348 348 347 347 346 343 339 336 335 336 337 337 338 338
343 343 342 343 343 342 343 343 343 343 343 344 344 344 344 344 344 344 345 345 345 346 346 346 346 346 347 347 348 348 348 348 349 348 344 339 336 335 336 337 337 338
343 343 343 343 343 343 343 343 343 343 343 344 345 345 345 345 345 344 345 345 345 346 346 346 347 347 347 348 348 348 349 349 349 350 349 345 341 338 337 337 338 338
343 343 343 343 344 344 344 343 343 343 344 344 345 346 346 346 345 345 345 346 346 346 346 346 347 347 347 348 348 348 349 349 350 351 351 350 347 343 340 339 341 341
342 343 343 343 344 344 343 343 343 343 344 344 345 346 346 346 346 346 346 346 346 346 346 346 348 350 349 348 348 349 348 349 350 351 352 352 350 348 344 339 339 340
342 342 343 343 343 343 343 343 343 343 344 345 345 346 346 346 348 348 348 347 347 347 347 347 349 351 351 348 348 349 349 349 350 350 351 351 350 348 346 342 340 339
342 342 343 343 343 343 343 344 344 344 345 346 346 346 347 348 350 351 351 350 348 348 348 349 350 351 355 356 351 348 350 350 350 351 351 351 351 350 348 348 347 344
343 343 342 343 343 343 344 344 345 346 347 348 347 348 350 352 352 354 355 353 352 353 353 353 352 351 356 359 356 351 351 352 351 352 352 352 354 352 351 351 349 347

ECMWFNIL_850_thetae_057.txt.gz
Theta_e
333 333 333 333 334 334 336 336 338 339 338 336 338 338 336 335 338 346 349 346 341 340 342 343 343 341 342 343 343 343 345 347 346 345 346 348 345 345 349 348 342 340
333 334 334 334 334 335 335 335 338 340 338 335 337 339 339 337 335 337 341 341 338 340 342 344 344 342 339 340 341 341 343 346 346 345 347 349 346 345 349 349 345 338
334 335 335 336 336 336 336 336 337 338 339 338 337 338 340 342 340 336 336 337 336 338 342 344 346 345 340 339 339 340 342 343 345 345 346 348 347 345 348 350 348 343
334 335 335 336 337 336 337 337 337 336 338 339 337 336 339 343 346 342 337 337 337 337 339 342 345 347 343 338 338 339 340 341 343 344 344 346 346 344 346 351 350 348
334 335 336 336 336 337 336 336 336 335 336 338 338 338 337 339 345 346 341 338 338 338 338 338 341 344 344 340 336 336 337 339 342 344 344 344 345 343 344 349 351 350
335 335 335 336 336 336 337 335 335 336 337 337 339 340 340 338 340 342 342 339 338 338 339 339 338 340 343 341 338 335 335 337 339 342 344 344 345 346 345 347 349 349
335 336 335 335 336 335 336 337 336 336 337 339 342 342 341 341 339 338 340 340 338 338 339 340 339 338 340 340 337 335 334 335 337 339 342 342 344 346 345 345 347 346
335 335 335 335 336 336 336 336 337 336 336 339 344 344 341 341 341 340 340 340 339 339 339 339 339 338 339 339 337 335 334 334 337 337 339 341 341 342 342 344 346 343
335 336 336 336 336 336 336 336 336 336 337 339 342 345 344 342 342 343 343 341 340 339 338 338 339 338 338 339 337 335 334 334 335 336 338 341 341 341 340 342 344 340
335 335 335 335 336 336 336 336 339 340 340 338 340 345 348 346 343 344 345 343 341 342 340 337 337 337 336 338 337 334 334 335 335 336 337 339 339 340 340 339 340 339
333 334 335 335 335 337 336 337 344 350 349 343 338 341 349 352 348 344 345 345 343 343 342 339 337 336 335 335 335 334 334 334 335 336 337 338 339 338 340 340 338 338
332 333 333 334 334 337 339 341 347 354 355 352 344 338 344 353 354 347 343 344 344 344 344 342 339 338 335 334 334 335 334 334 335 336 336 337 338 338 339 340 340 338
333 332 332 333 333 333 338 344 350 354 356 357 355 346 341 348 355 353 345 342 344 344 344 344 342 340 338 336 334 334 334 334 334 335 337 337 338 338 338 340 341 339
336 336 334 332 333 332 334 341 349 353 355 357 360 357 349 346 352 355 351 344 343 344 344 344 343 342 341 339 337 337 337 335 333 333 337 338 338 338 339 340 341 342
342 340 339 337 337 336 335 338 344 349 352 354 360 361 357 351 350 356 357 351 344 343 344 344 344 344 343 342 340 339 340 339 335 333 335 338 339 338 339 339 341 346
347 344 342 341 340 340 339 338 339 343 348 351 355 359 358 356 353 355 360 358 350 343 342 344 343 344 343 343 341 340 340 341 340 336 334 336 338 339 338 338 340 345
351 348 346 344 343 341 341 341 341 342 343 347 352 354 354 355 355 353 356 360 359 351 344 342 344 344 343 343 342 342 341 343 342 341 337 335 335 336 336 338 338 340
353 350 349 348 347 344 343 342 342 342 342 344 348 348 347 351 353 350 349 355 362 361 353 345 343 343 345 344 344 343 343 344 344 344 343 340 337 337 335 336 337 338
353 351 350 349 350 348 348 346 344 343 343 343 344 344 345 346 348 348 347 348 356 362 359 352 345 343 344 344 345 345 345 346 346 346 346 345 342 341 339 337 336 336
353 351 349 349 350 350 350 349 346 344 344 345 346 346 346 346 347 348 348 346 348 355 358 357 353 349 346 343 344 345 345 346 346 346 347 347 346 345 344 343 340 337
353 351 350 350 351 351 350 348 347 346 346 348 350 351 349 349 348 347 347 347 345 347 352 356 358 356 353 348 344 344 345 345 345 346 347 347 348 347 347 347 345 344
354 353 353 353 352 352 350 348 347 346 347 348 351 354 355 354 352 350 350 351 349 347 349 352 356 357 356 352 348 345 345 345 345 346 347 348 349 349 349 348 348 348
353 351 353 352 352 350 348 347 347 348 350 350 350 354 359 359 358 356 354 353 351 350 349 350 351 353 354 353 351 349 346 346 346 346 347 348 349 350 352 353 352 350
350 349 350 350 349 348 346 347 348 349 350 351 350 351 355 359 362 362 359 355 352 352 352 351 351 350 350 350 350 349 348 347 346 346 347 347 348 348 352 355 357 355
350 349 349 349 348 347 348 348 349 349 350 352 351 351 353 358 362 364 363 360 356 355 356 355 353 353 353 352 350 350 350 349 348 348 347 347 348 349 351 353 355 356
350 349 347 347 347 347 348 348 347 349 352 353 353 355 357 360 361 363 364 365 363 363 362 359 357 358 358 356 354 354 353 353 352 352 349 348 350 352 353 352 352 355

ECMWFNIL_850_thetae_060.txt.gz
Theta_e
331 332 333 334 336 338 342 349 350 349 347 345 342 339 340 341 341 341 340 340 340 340 340 341 339 339 342 344 346 350 353 351 347 346 344 344 342 341 340 335 326 324
331 332 332 332 334 334 338 344 348 348 347 344 342 340 337 339 341 342 341 340 338 339 339 340 341 340 341 342 343 346 349 347 346 345 344 343 343 342 341 340 334 326
331 331 331 331 332 332 334 339 342 345 345 345 344 344 342 341 342 342 342 341 338 338 339 339 340 342 342 342 341 343 345 345 344 343 343 343 343 343 342 341 340 333
331 331 331 331 330 331 333 336 338 340 344 345 345 344 345 344 344 343 342 342 341 339 338 337 338 341 343 344 343 341 341 342 342 342 342 342 342 342 342 343 343 338
332 331 331 330 331 331 333 334 334 337 340 342 344 343 343 344 346 345 343 343 343 342 341 339 337 339 342 344 344 342 340 339 340 342 342 342 342 342 342 343 343 340
332 332 332 332 332 332 332 332 332 335 337 340 342 343 343 343 344 346 347 347 345 344 344 342 338 337 339 342 343 342 340 339 339 340 341 342 341 342 342 342 343 342
332 333 332 332 333 333 334 332 333 336 338 339 342 343 344 344 343 344 347 349 347 345 345 344 342 339 337 339 340 341 340 338 338 337 338 341 341 341 342 342 342 342
333 333 333 333 333 334 334 334 335 336 337 341 344 345 344 345 344 343 345 349 348 346 344 344 345 343 340 338 338 339 338 338 338 337 335 337 340 340 341 342 342 342
334 333 333 333 334 334 334 334 335 337 338 340 344 347 347 346 346 345 346 347 349 348 346 345 345 346 344 341 338 337 338 338 339 339 337 336 337 338 339 339 341 341
336 335 333 334 334 334 334 334 334 335 338 339 341 346 349 348 346 347 349 347 347 349 349 345 344 345 345 344 341 337 337 338 338 338 338 336 335 336 336 338 339 341
337 336 335 333 334 334 333 334 334 335 337 338 339 342 347 349 347 348 351 350 347 347 348 346 344 343 344 345 344 340 337 335 336 337 336 337 337 336 335 336 337 338
339 338 336 335 334 335 334 334 335 337 340 340 340 340 343 346 349 348 350 351 348 345 346 346 344 344 344 344 345 345 342 337 335 335 334 335 337 338 338 337 338 338
339 336 337 337 336 336 338 339 339 341 344 345 344 344 343 346 348 347 348 350 348 346 345 345 345 346 346 345 344 346 347 343 340 337 334 334 335 338 341 341 339 339
340 336 336 337 336 336 339 343 344 345 346 349 350 350 349 350 351 348 347 349 349 348 347 347 348 347 346 347 345 346 348 348 345 340 336 334 333 336 341 343 342 341
345 340 337 337 337 338 339 342 345 347 348 350 352 353 354 355 355 353 352 352 351 352 352 351 350 346 345 345 345 345 346 347 346 343 340 337 334 334 338 341 343 344
351 346 343 340 339 340 341 342 345 348 350 351 351 352 355 358 358 357 356 355 355 356 356 355 351 345 341 342 343 343 343 344 345 344 343 340 338 337 338 340 342 344
357 351 347 345 341 340 341 342 342 345 348 350 351 351 353 356 358 358 357 357 358 359 358 355 349 343 341 339 341 341 341 341 342 343 344 343 341 340 340 340 342 344
359 356 352 349 347 344 342 341 341 342 344 347 349 350 351 354 357 359 358 358 359 361 360 356 350 346 343 340 339 340 340 341 340 341 343 343 343 343 341 340 341 343
362 360 357 353 351 349 346 344 342 342 342 344 345 348 350 353 354 356 358 358 358 360 362 361 356 351 348 344 340 339 340 341 341 341 342 343 343 344 343 342 340 341
364 363 361 358 357 354 352 349 346 343 343 343 345 347 349 351 351 353 356 358 357 358 361 362 361 358 353 348 344 342 341 342 343 342 343 344 344 345 344 345 343 343
365 365 363 362 361 359 356 354 351 348 347 347 348 349 348 348 349 350 353 355 356 356 356 358 360 360 358 352 348 345 345 344 344 344 344 345 346 346 347 348 348 348
366 366 365 365 364 362 359 357 355 354 353 352 352 352 352 351 351 352 351 352 354 354 353 354 356 358 359 357 353 351 351 350 348 348 349 348 349 350 351 352 352 352
366 366 366 366 365 363 361 359 359 358 358 357 355 355 358 358 355 355 353 353 354 355 354 352 352 355 358 360 360 358 358 356 353 352 352 350 350 351 353 355 355 355
365 366 366 366 365 363 361 360 360 360 360 359 357 357 360 361 360 358 356 356 355 355 354 353 351 352 354 356 358 360 362 361 358 357 355 352 350 351 354 356 357 357
364 365 367 366 364 363 361 359 359 359 360 360 359 357 359 361 362 362 360 360 357 356 355 355 354 354 352 352 354 356 359 361 361 361 359 356 355 355 355 356 356 357
365 365 367 366 364 363 361 360 360 360 361 361 361 360 359 359 361 363 363 363 362 361 360 358 357 357 355 354 356 357 359 361 361 361 360 359 359 359 358 358 356 356

ECMWFNIL_850_thetae_063.txt.gz
Theta_e
332 331 330 330 331 330 328 330 332 338 343 342 337 333 332 333 335 338 339 340 341 341 340 340 340 341 341 343 344 344 343 344 345 345 343 343 342 341 340 338 334 327
332 331 330 330 331 331 329 329 330 332 337 339 337 334 333 334 335 336 336 337 338 340 342 341 341 341 340 341 343 345 343 342 343 344 344 343 342 341 340 340 339 335
333 331 330 329 329 330 330 330 330 329 332 337 339 338 336 335 335 335 336 336 337 337 339 339 340 341 340 339 341 344 345 343 342 342 343 342 341 341 342 341 341 340
333 331 330 329 329 329 330 330 330 330 331 334 337 340 338 338 336 336 335 336 336 336 336 337 338 339 340 339 339 341 343 343 343 342 342 342 341 340 341 341 341 340
331 331 330 329 329 329 330 330 331 331 331 332 335 338 339 339 339 337 336 336 336 336 336 335 336 337 339 340 340 341 341 341 341 342 342 341 340 339 340 340 341 340
332 331 331 331 330 331 330 330 330 330 330 331 333 336 338 339 339 339 338 336 336 336 336 335 335 335 336 337 339 341 341 341 341 340 340 339 339 338 338 339 340 340
334 332 331 331 331 331 330 329 329 330 331 331 332 334 336 338 339 339 338 338 337 337 336 335 335 334 334 335 337 339 341 342 342 341 339 339 339 338 338 339 339 340
335 332 332 332 332 331 330 329 329 330 330 332 332 333 334 336 338 338 339 340 341 339 337 336 335 335 335 335 335 336 338 340 341 341 341 339 338 338 338 339 340 339
338 335 334 334 334 332 330 329 329 329 329 331 332 332 333 334 336 338 339 341 342 342 340 338 336 336 336 336 336 336 336 338 338 339 340 339 338 338 338 338 339 340
341 339 337 337 336 334 332 331 330 330 331 331 331 332 333 333 334 337 340 341 341 342 342 340 338 336 336 337 336 337 338 337 337 337 337 337 336 336 336 337 337 337
344 342 340 339 337 334 333 332 333 332 333 332 333 333 334 334 334 336 340 342 341 340 340 340 339 337 336 336 336 337 338 338 338 338 338 337 336 336 336 336 336 336
344 343 342 340 337 336 334 333 334 334 334 334 335 335 334 335 336 337 338 340 341 340 339 339 339 339 337 337 336 336 336 338 338 339 338 338 337 337 336 336 336 336
344 342 340 338 336 335 334 335 335 336 336 336 337 337 337 337 338 338 338 338 339 340 341 340 339 340 339 338 338 338 337 336 337 338 339 339 338 337 337 337 336 335
346 342 339 338 337 336 335 335 335 336 337 338 338 338 339 338 338 338 338 338 339 340 342 342 342 341 341 340 339 339 339 338 337 338 339 340 339 338 337 336 336 335
350 345 343 340 339 338 337 336 335 336 337 338 339 339 338 339 339 339 339 339 340 342 343 344 344 343 341 340 339 339 339 339 338 337 338 339 339 339 339 339 337 336
355 351 347 344 342 340 338 338 338 337 338 339 339 338 338 339 340 341 341 341 341 342 344 345 345 344 342 340 339 338 338 339 338 338 338 338 338 338 338 338 337 336
360 356 352 348 346 342 341 339 339 339 340 340 340 340 339 340 342 343 343 343 344 344 344 345 345 344 342 341 340 339 339 338 338 339 339 338 339 338 337 336 336 335
363 360 357 353 349 346 343 341 340 341 341 342 342 342 343 343 344 344 344 346 347 348 347 346 345 343 343 343 343 342 341 341 340 339 340 340 339 339 339 337 337 337
364 362 360 357 354 350 346 344 344 344 343 343 344 343 345 346 346 347 348 348 349 350 351 349 346 344 345 346 345 345 344 343 342 341 341 341 341 341 341 340 340 339
365 363 362 361 359 355 351 349 347 346 345 344 345 345 346 347 348 349 350 350 350 350 352 351 348 345 346 346 346 347 347 346 346 346 345 344 344 344 343 343 343 342
365 365 363 362 362 358 356 354 350 348 347 346 346 345 345 346 346 347 348 349 351 350 351 352 349 345 345 346 346 346 348 350 351 351 351 350 349 348 347 346 346 345
365 366 364 363 362 361 359 357 354 352 350 348 347 346 346 346 346 346 347 347 348 349 350 352 350 347 345 345 345 346 349 353 355 355 355 354 354 353 351 350 349 349
366 365 365 364 364 363 361 359 358 356 353 351 350 349 348 347 346 346 346 345 347 348 349 349 348 348 347 347 346 348 351 355 357 357 356 356 356 357 356 355 354 353
367 366 366 365 364 364 362 362 360 359 357 355 353 351 350 347 346 345 346 347 347 346 346 346 346 346 348 350 351 353 355 357 358 358 358 358 359 359 359 358 357 356
366 366 366 366 365 364 364 363 362 361 361 359 357 355 352 350 348 348 348 347 348 347 346 347 347 347 349 352 354 356 359 360 362 362 362 362 362 362 361 360 360 360
364 366 367 366 366 365 364 364 364 363 363 362 360 358 356 355 353 352 351 350 349 349 349 350 350 351 353 355 357 358 359 361 362 363 364 364 365 364 363 362 361 362

ECMWFNIL_850_thetae_066.txt.gz
Theta_e
341 338 338 338 337 335 333 332 332 331 330 331 331 330 331 332 333 336 337 338 338 337 337 338 339 341 342 342 343 343 344 345 345 345 344 344 344 342 339 335 329 326
343 339 337 337 337 336 334 332 330 329 328 330 332 332 333 334 334 336 337 338 338 337 337 338 338 339 340 341 342 343 343 343 344 345 344 343 344 343 342 339 336 332
345 341 337 336 335 334 332 331 330 328 327 329 332 333 334 335 335 336 337 338 339 339 340 339 338 338 339 340 341 342 342 342 341 342 343 342 343 343 342 341 340 338
344 342 339 335 333 332 331 331 330 329 328 328 331 332 332 333 334 334 336 336 337 338 339 340 341 340 339 340 340 341 341 341 341 341 342 342 342 342 342 342 342 341
344 342 340 336 334 332 332 331 330 328 328 328 329 331 331 332 333 333 333 334 335 336 337 338 339 340 340 340 341 340 339 339 340 341 341 341 342 341 341 341 341 341
345 343 341 338 336 334 333 331 329 329 328 328 328 329 329 330 332 333 332 333 334 335 336 336 337 338 338 339 339 339 339 338 338 339 339 340 340 341 341 340 340 339
345 343 342 341 339 337 334 331 330 329 328 328 328 328 328 329 330 332 332 333 334 334 335 335 335 335 335 335 337 338 339 338 339 338 338 338 338 339 340 340 339 338
344 343 343 342 341 339 336 332 331 330 329 329 329 328 327 328 328 330 332 333 333 333 334 334 334 334 334 334 335 336 337 338 338 338 338 338 337 337 337 338 338 338
347 346 344 343 342 340 338 335 332 330 330 330 329 328 328 328 328 329 330 332 332 333 333 333 333 334 334 334 334 334 335 336 336 337 336 337 337 337 337 337 337 337
350 348 347 345 343 340 338 336 333 332 332 331 330 329 329 328 329 329 330 331 332 332 332 332 333 333 334 335 335 334 334 334 335 335 335 335 336 335 336 337 337 337
350 349 348 345 343 340 338 336 335 334 333 332 331 331 330 329 329 330 330 331 331 331 331 331 332 333 334 334 335 335 335 335 335 335 335 335 335 335 335 336 336 337
351 348 346 343 342 340 338 336 335 335 333 332 332 331 331 330 330 330 330 330 330 331 331 331 331 332 333 333 334 334 336 336 337 337 336 336 336 336 335 335 335 335
352 350 346 343 341 339 339 337 337 335 333 332 332 331 331 330 330 329 329 329 329 330 330 331 331 332 333 333 334 334 335 336 337 337 337 336 337 336 337 336 335 335
354 352 349 345 341 340 339 339 338 336 335 333 332 331 331 331 329 329 329 330 330 330 331 331 332 333 333 333 333 335 336 336 337 337 337 337 336 336 336 336 336 336
356 354 351 349 346 343 341 340 340 338 336 335 334 332 331 331 331 330 330 331 331 331 331 331 333 333 333 333 333 334 336 336 337 337 338 338 337 336 336 336 336 336
357 356 354 352 350 347 344 343 342 341 341 338 336 334 333 332 333 332 332 332 332 332 332 333 334 334 332 333 333 334 336 336 337 337 338 338 339 338 337 336 336 336
359 357 357 355 353 350 348 346 344 344 343 341 339 338 336 335 336 335 334 334 334 333 333 333 333 333 333 333 333 334 336 337 338 338 339 339 340 340 339 338 337 338
360 360 358 357 356 354 352 350 348 347 346 344 343 341 340 339 338 338 337 337 336 335 335 334 333 333 332 333 333 335 336 339 340 342 342 342 342 342 341 340 340 340
361 361 361 360 359 357 355 354 352 351 349 347 346 344 344 343 341 339 339 338 338 337 336 336 334 333 333 334 334 335 337 340 342 345 345 345 344 344 343 343 342 342
362 363 363 362 362 360 359 357 355 353 351 349 348 347 346 345 342 341 339 340 339 339 338 338 336 335 335 336 337 337 339 341 344 346 347 347 346 345 345 345 344 343
364 365 364 364 364 363 362 360 358 356 354 352 350 349 348 346 344 343 342 340 339 339 340 341 338 336 337 339 339 339 341 343 345 347 348 349 348 348 348 347 346 346
365 365 365 366 365 364 364 362 361 359 357 354 352 351 349 347 346 345 344 343 342 341 342 341 339 338 339 339 340 341 343 346 348 349 351 351 350 350 350 350 350 349
365 366 366 366 366 365 365 364 363 361 359 357 355 352 351 350 348 348 346 345 345 345 344 342 340 338 339 339 340 341 345 348 350 351 352 352 352 352 353 353 354 354
365 366 367 366 367 366 365 365 364 363 361 359 358 355 353 351 350 349 349 348 348 347 345 343 342 340 341 342 342 344 347 349 351 352 353 353 353 353 354 355 356 357
366 366 366 366 367 366 366 366 365 364 363 362 360 359 356 355 353 351 351 350 349 349 348 347 346 346 346 346 346 348 349 351 353 354 355 355 355 355 356 357 358 359
366 367 366 367 367 366 366 366 365 365 364 363 362 361 359 357 356 354 352 351 350 350 350 350 351 351 352 351 351 352 352 354 355 356 355 356 356 356 357 358 358 359

ECMWFNIL_850_thetae_069.txt.gz
Theta_e
345 345 344 342 340 338 337 337 337 337 337 337 336 334 332 331 331 334 336 336 336 337 338 337 338 339 341 342 344 345 345 346 346 346 346 345 344 342 341 339 333 329
347 347 346 345 342 339 338 338 337 338 337 337 336 333 331 331 329 331 336 337 337 338 338 337 337 337 339 340 342 343 343 344 345 346 346 346 344 344 343 341 337 333
348 347 347 345 341 338 337 338 337 338 339 338 337 334 331 330 329 329 334 337 337 338 339 338 337 337 337 339 341 342 341 341 343 344 345 346 345 344 343 342 341 338
349 348 346 344 341 338 337 337 337 338 339 339 337 334 331 330 330 329 332 335 335 337 338 337 337 337 336 337 339 339 339 340 341 342 343 344 344 343 343 342 342 340
349 348 345 343 341 340 337 336 336 337 338 338 337 336 332 330 331 331 331 333 334 335 337 337 337 337 337 337 337 338 338 338 340 340 341 341 341 342 341 342 342 341
349 348 346 343 341 340 338 335 334 334 335 336 336 336 333 330 330 332 333 333 333 334 336 337 338 338 338 338 338 338 338 338 338 339 339 339 339 340 340 341 341 340
349 348 346 344 342 341 339 336 334 333 333 334 335 335 333 330 329 331 333 334 332 332 334 336 337 338 338 339 339 339 338 338 338 338 338 337 337 338 339 339 339 339
349 349 347 346 345 343 341 338 336 334 332 333 335 333 332 330 328 329 332 332 332 331 332 333 334 335 336 337 338 338 338 338 338 338 337 336 336 336 336 336 337 337
350 350 348 348 347 345 342 340 338 336 334 333 332 331 330 329 328 329 330 331 331 332 332 332 333 334 334 335 335 336 336 336 336 337 337 336 336 334 334 335 335 335
350 350 350 349 348 346 344 341 339 338 336 334 333 332 330 329 328 328 328 329 330 330 331 332 333 334 334 334 334 334 334 334 334 334 335 335 334 333 333 334 334 334
351 351 351 350 349 347 344 342 339 338 337 336 334 333 331 329 329 328 328 328 328 328 329 331 332 333 333 333 333 333 333 333 333 333 334 334 334 333 333 333 334 333
352 352 352 351 350 348 345 342 340 339 338 336 335 334 332 330 329 329 328 328 327 327 328 329 331 331 332 332 332 332 333 333 333 333 333 333 333 334 334 334 334 333
353 353 352 352 350 348 346 343 341 339 338 336 335 334 332 331 330 329 328 328 327 327 327 328 329 330 331 331 331 332 332 332 333 333 333 333 333 333 334 334 334 334
353 353 353 353 352 350 348 345 342 339 337 336 335 334 332 331 330 329 328 328 328 328 328 328 329 330 330 330 331 331 332 332 332 332 332 333 333 333 334 334 335 335
354 354 354 354 354 353 351 348 344 341 339 337 336 335 333 332 331 330 329 328 328 328 328 328 329 329 329 330 330 330 331 331 331 332 332 332 332 333 334 335 335 335
354 355 355 355 355 354 353 351 348 345 342 339 338 337 335 333 333 332 331 330 329 328 328 328 328 328 328 329 329 330 330 331 331 331 332 332 332 333 334 334 335 335
355 356 356 356 356 355 355 353 351 349 346 343 340 339 337 336 335 334 333 332 330 329 329 329 328 328 328 328 328 329 330 331 331 331 332 333 334 334 335 335 336 337
356 356 357 357 357 356 356 355 353 351 349 347 344 342 340 338 337 335 334 333 332 331 330 330 329 329 329 329 329 329 330 331 332 332 334 335 335 336 336 337 339 339
356 356 357 357 357 357 357 356 355 354 352 351 348 346 343 340 338 337 336 335 334 334 332 331 331 331 330 331 330 331 331 332 333 335 336 336 337 338 339 339 340 341
356 357 357 357 358 358 358 358 357 356 355 354 352 350 348 344 340 339 337 336 336 335 334 333 333 332 332 332 332 332 333 334 335 337 338 339 340 341 341 342 343 344
357 358 358 359 359 359 359 359 358 358 357 356 355 354 352 350 346 343 341 339 338 337 337 336 334 334 334 334 334 334 335 336 338 338 340 340 341 342 343 343 344 346
358 359 359 360 360 360 360 359 359 359 359 359 358 357 356 355 352 350 347 344 342 341 340 339 336 336 336 336 336 336 337 339 340 340 341 342 342 343 344 345 346 348
360 360 361 361 361 361 361 361 361 361 361 361 360 360 359 358 357 355 353 351 348 346 344 342 339 338 338 338 338 339 341 341 342 342 343 343 344 344 345 347 348 349
361 361 361 361 361 361 362 362 362 362 363 363 362 362 362 361 360 358 357 355 353 350 348 345 342 341 340 340 340 342 343 343 344 345 345 346 346 346 347 348 349 350
362 362 362 362 362 362 362 363 363 363 364 364 364 364 363 362 361 360 359 358 356 354 352 350 347 345 343 342 342 344 345 345 346 347 347 347 348 348 349 350 351 352
363 363 363 363 363 363 363 364 364 364 365 365 365 365 364 364 363 362 360 359 358 357 355 354 351 349 347 346 345 346 347 347 348 349 349 349 350 350 351 352 352 353

ECMWFNIL_850_thetae_072.txt.gz
Theta_e
346 345 344 343 342 342 341 341 341 341 341 339 338 337 337 336 336 336 336 336 336 335 337 338 338 339 338 339 341 344 345 344 344 345 345 345 345 344 342 341 340 340
347 346 345 344 343 342 341 341 340 340 339 339 338 337 337 337 337 336 336 336 335 334 335 337 338 338 338 338 340 342 344 344 343 344 344 344 345 344 343 342 342 342
349 347 346 344 342 341 340 340 340 340 339 338 338 337 336 337 337 337 336 336 335 334 334 335 337 338 338 338 338 340 342 343 343 343 344 344 344 344 344 343 343 343
350 349 347 344 342 340 339 340 339 339 339 338 337 337 336 336 337 337 336 336 335 334 334 335 336 337 338 337 338 338 339 340 341 342 342 342 343 343 344 344 343 342
349 349 348 346 343 342 341 340 339 339 339 338 337 337 336 336 337 337 336 336 334 333 334 335 336 337 337 337 337 337 337 337 339 341 341 340 341 341 342 343 342 342
349 348 348 347 345 343 342 340 339 338 338 338 338 337 336 336 336 336 335 335 333 331 332 335 336 337 337 337 337 336 336 336 337 338 338 338 339 340 340 341 340 340
349 348 348 347 346 345 343 340 339 338 338 338 338 337 336 336 335 335 334 333 333 332 331 333 335 336 336 337 336 336 336 336 336 337 337 337 337 338 338 338 339 338
348 348 348 348 347 347 346 343 341 339 338 338 338 336 336 335 334 334 334 332 332 331 331 332 332 334 336 336 336 336 336 336 336 337 336 336 336 336 336 336 336 337
348 348 348 348 348 347 347 345 342 340 339 338 336 335 334 334 333 333 333 331 330 331 332 333 333 333 335 336 337 337 337 337 337 337 337 337 336 335 334 335 335 334
349 348 348 348 348 347 347 346 344 342 340 337 335 335 333 332 332 332 332 331 330 330 331 333 333 333 333 335 336 337 337 337 337 337 337 336 335 335 335 335 334 334
349 348 348 348 348 348 347 347 346 344 341 338 336 335 334 333 332 331 331 331 329 328 329 331 332 332 332 332 333 334 335 335 335 335 335 334 334 334 334 334 333 332
349 349 348 348 348 348 348 348 347 345 343 340 337 336 335 334 333 332 331 329 328 327 328 329 330 330 331 331 332 332 333 334 334 334 334 334 333 333 333 333 332 332
349 348 348 348 348 348 348 348 348 346 344 341 339 337 337 336 335 333 331 329 328 327 327 328 328 329 329 330 331 332 332 333 333 333 333 333 333 332 332 332 332 332
349 348 348 348 348 349 349 349 349 347 345 342 340 339 337 336 336 335 333 331 329 328 327 327 327 327 327 328 328 329 331 332 332 332 332 332 332 332 332 333 333 333
348 348 348 348 348 349 349 350 350 349 347 344 342 339 337 336 336 336 335 333 331 329 328 327 327 327 327 327 327 327 329 330 330 331 331 331 331 331 332 332 332 332
349 348 348 349 349 349 350 350 350 350 349 347 343 340 338 338 338 337 336 335 333 331 329 328 328 327 327 327 327 327 327 328 329 329 330 330 330 331 331 331 332 332
349 349 349 349 350 350 350 350 351 351 351 349 346 343 341 340 339 338 337 336 334 333 331 330 328 327 327 327 327 327 327 327 328 328 329 329 330 330 331 331 332 332
350 349 350 350 350 350 350 351 351 352 352 351 350 346 344 341 340 339 337 336 336 334 333 331 329 328 328 327 327 328 327 327 327 328 328 328 329 329 330 331 331 332
351 351 350 350 350 350 351 351 352 352 352 353 352 350 347 345 342 340 338 337 336 335 334 332 330 329 328 328 328 328 328 328 328 328 329 329 329 330 330 331 332 332
351 351 351 351 351 351 351 352 352 353 353 353 353 353 351 349 345 342 340 337 336 335 334 333 331 330 329 329 329 329 329 330 329 330 331 331 332 332 332 332 333 334
352 352 352 351 351 352 353 353 353 354 354 355 355 355 354 352 349 347 344 340 338 337 336 334 333 332 331 331 331 331 331 332 332 332 333 334 334 335 334 334 335 336
352 352 352 352 353 353 354 354 354 354 355 356 356 356 356 355 354 353 351 347 345 344 342 338 335 334 334 333 333 333 334 335 335 335 335 336 336 336 336 336 337 338
352 352 352 353 353 354 355 355 355 356 356 357 357 357 357 357 357 356 355 353 352 351 349 345 340 339 337 336 335 337 338 338 337 338 338 339 338 338 338 339 340 341
351 352 352 353 354 355 355 356 356 357 357 358 358 358 358 358 358 358 358 357 356 355 354 351 349 346 344 343 342 343 343 342 341 341 341 341 340 340 341 341 342 343
351 352 352 353 355 355 356 357 358 359 359 359 359 359 359 359 360 360 360 360 360 359 358 357 356 353 351 351 350 349 348 346 345 345 344 344 343 342 342 343 343 344
352 353 354 355 356 357 358 359 359 359 360 360 360 360 360 361 361 361 361 362 361 361 361 360 359 358 356 355 354 353 352 350 349 348 347 345 345 344 345 345 345 346

ECMWFNIL_850_thetae_075.txt.gz
Theta_e
344 341 339 339 339 339 340 341 341 341 341 340 341 341 341 340 338 338 338 338 339 340 340 339 338 338 338 339 338 339 341 343 344 344 345 345 345 345 345 343 342 340
347 345 344 343 342 341 340 341 341 341 340 340 340 341 340 340 339 338 338 338 339 339 339 339 338 338 338 338 338 339 339 341 343 344 344 345 344 344 344 344 343 342
349 349 348 346 344 342 341 341 341 341 341 340 340 340 340 339 339 338 338 338 338 338 338 338 337 337 337 338 338 339 338 339 342 343 343 343 344 344 344 345 344 344
350 350 350 348 346 344 343 343 342 342 342 341 339 340 340 339 339 339 338 338 338 338 338 338 337 337 336 337 338 338 338 338 339 341 341 342 342 343 343 344 345 344
349 349 350 349 348 346 345 343 343 342 342 340 339 339 339 339 339 339 338 337 338 338 337 336 336 336 336 336 337 337 338 337 338 338 339 339 340 340 340 342 342 344
349 349 349 349 349 348 347 345 343 342 341 340 339 339 338 338 338 338 338 337 337 337 337 336 335 335 335 336 336 337 337 337 337 337 337 337 338 339 339 339 340 341
348 349 349 349 349 349 349 347 344 342 340 340 339 338 338 338 337 337 337 337 336 337 337 336 335 334 334 335 336 337 337 337 337 336 337 337 336 337 337 337 338 339
348 348 348 348 349 349 348 348 346 343 342 341 340 338 337 337 337 337 336 336 336 337 337 336 334 334 334 335 336 337 337 337 337 336 335 336 336 336 336 336 337 337
347 348 348 348 348 348 348 348 347 345 343 342 340 339 338 336 336 336 336 336 335 335 336 336 334 333 333 333 334 336 337 337 337 336 335 336 336 335 336 336 336 336
347 348 348 348 348 348 347 347 347 346 344 342 341 340 338 336 335 335 334 335 335 334 335 334 334 333 332 332 332 333 335 336 336 336 336 336 336 336 336 336 337 336
347 348 348 348 348 347 347 347 347 346 345 344 343 341 338 336 335 334 334 333 333 333 332 332 332 332 332 331 331 331 332 334 336 337 336 336 335 335 336 336 335 336
347 348 348 348 348 347 346 347 347 347 345 345 345 343 340 338 335 333 332 331 331 330 330 330 330 331 331 332 332 332 332 333 334 336 336 335 334 334 334 334 334 334
347 347 347 347 348 347 347 347 347 346 346 345 345 344 342 339 335 333 331 330 329 329 329 329 328 329 330 331 332 332 332 332 332 334 334 334 333 333 333 333 333 332
347 347 347 348 348 347 347 347 346 346 346 346 346 344 343 339 336 334 332 330 330 328 328 328 327 328 328 329 330 330 331 331 331 331 332 332 332 333 333 333 332 332
347 347 347 348 347 347 348 347 346 346 346 346 346 345 343 341 338 336 334 332 331 329 329 328 327 327 327 328 329 329 330 330 330 331 331 332 332 332 332 333 332 332
347 347 347 347 348 347 347 348 347 347 347 348 347 346 345 343 340 338 335 333 332 332 331 330 328 327 326 327 328 327 328 328 329 329 329 329 330 330 331 331 331 331
347 347 347 348 348 348 348 347 348 347 348 347 347 348 347 345 342 339 336 335 334 333 333 331 329 327 325 326 326 326 327 327 327 328 328 327 327 328 329 329 329 329
348 347 347 347 348 348 348 347 347 347 347 348 348 348 348 347 344 340 337 335 334 333 333 332 329 327 326 326 326 326 327 327 327 327 327 327 327 327 327 328 328 328
348 348 347 347 347 348 348 347 348 348 348 348 348 349 349 349 347 344 340 337 335 333 332 332 330 328 326 327 327 326 327 327 328 328 327 327 327 327 328 327 328 327
348 348 347 347 347 348 348 348 348 347 348 348 348 349 349 350 349 349 346 341 337 334 333 332 331 329 328 328 327 327 327 328 329 328 328 328 327 328 327 327 327 327
349 348 347 348 348 348 348 348 348 348 348 348 349 349 350 350 351 351 350 346 342 339 336 334 332 330 329 328 328 328 329 330 330 329 329 329 329 329 328 328 328 328
348 348 348 348 347 348 348 348 348 348 348 348 350 349 350 351 352 352 353 351 348 346 344 338 333 331 330 330 329 330 331 331 331 331 332 332 331 331 330 330 330 330
348 349 348 348 348 348 348 349 349 349 349 349 350 351 351 351 352 352 353 353 352 352 350 344 337 334 332 332 331 332 333 334 334 333 334 334 334 333 333 332 332 332
349 348 348 348 349 349 349 350 349 349 350 350 350 351 352 352 352 353 354 354 355 355 354 351 346 342 339 337 337 337 338 340 338 338 338 338 338 338 336 335 336 335
349 349 349 349 349 349 349 350 350 350 350 351 352 352 353 353 354 354 355 356 356 357 356 356 354 352 349 346 345 346 347 348 347 346 346 344 343 342 341 339 339 337
349 349 349 349 350 350 350 350 351 352 352 352 353 353 354 355 355 355 357 357 358 358 358 358 358 357 355 353 352 353 353 353 353 352 351 349 348 347 346 344 342 340

ECMWFNIL_850_thetae_078.txt.gz
Theta_e
345 344 342 341 340 339 338 337 335 335 335 336 337 339 340 340 341 342 341 342 343 343 343 344 344 344 344 343 344 344 343 343 343 343 344 345 345 345 343 341 341 338
348 346 347 346 342 338 338 336 335 336 337 338 339 340 340 340 341 341 341 342 342 342 343 344 344 346 345 343 342 344 344 343 342 342 343 344 345 345 344 343 342 340
348 347 348 348 343 338 337 337 336 337 338 339 340 341 341 340 341 341 341 341 341 341 341 343 344 345 345 344 342 344 345 344 343 343 342 343 344 345 346 344 344 344
348 347 349 347 343 339 338 338 338 338 339 340 341 341 341 341 340 341 341 340 340 341 341 341 343 343 344 344 343 343 345 345 344 344 344 343 342 343 345 345 346 345
348 349 349 348 344 342 341 339 340 340 340 341 340 341 341 340 340 340 340 339 338 338 339 341 341 342 343 342 343 344 343 344 344 343 344 344 343 341 341 343 344 344
349 349 350 350 347 345 343 341 340 341 340 340 341 341 341 340 339 339 339 338 337 337 338 339 340 341 342 342 343 343 342 343 342 340 341 343 341 339 339 342 344 343
349 349 349 350 350 348 347 344 342 342 342 341 341 342 341 340 339 338 338 337 337 337 336 338 339 339 341 342 343 342 340 339 339 338 339 339 337 337 337 340 343 342
348 349 349 349 349 349 348 346 345 344 343 342 342 341 341 340 338 338 337 336 337 337 336 336 337 338 340 341 342 341 338 337 337 337 337 337 336 337 336 337 340 340
348 348 349 349 349 349 348 348 347 346 345 343 342 341 340 339 338 337 336 336 336 336 336 336 336 337 339 340 339 337 336 336 336 336 336 336 336 336 336 337 338 338
347 347 348 349 349 349 349 348 348 347 346 344 342 341 339 338 337 336 336 335 335 335 336 335 336 336 337 337 335 334 333 334 335 336 336 336 336 336 336 336 337 336
347 347 347 348 348 348 348 348 350 349 347 345 343 341 340 337 336 336 335 335 335 335 335 335 335 335 335 335 333 331 331 332 333 334 335 336 335 336 336 336 336 336
345 346 347 347 348 348 348 349 350 351 348 344 343 341 340 338 336 335 335 335 334 334 335 334 334 334 334 334 333 331 330 330 331 332 333 333 334 335 336 336 336 336
345 346 346 347 347 347 349 350 350 352 349 346 342 341 341 339 337 335 335 335 333 333 333 333 333 333 333 332 332 332 330 329 330 330 331 332 333 334 335 336 336 335
344 345 345 346 346 346 348 349 350 350 349 346 343 343 341 340 339 337 335 334 334 332 331 332 331 332 332 331 330 330 330 330 330 330 331 332 332 333 334 335 335 335
344 345 345 346 346 346 347 348 349 348 347 345 344 344 343 343 342 342 339 335 333 332 331 331 330 329 329 329 329 329 329 330 331 331 331 332 332 332 332 332 333 334
345 345 345 345 346 346 346 347 348 347 347 346 345 344 345 345 344 345 344 340 334 332 332 331 330 328 327 327 327 327 328 329 330 331 331 331 331 331 331 331 331 332
346 345 345 346 346 346 347 347 347 348 347 346 346 345 345 346 345 345 347 345 339 334 332 331 330 328 326 325 326 326 326 328 328 329 330 330 330 330 330 330 330 331
346 346 346 346 346 346 347 347 347 348 347 347 346 346 345 346 346 346 346 346 344 339 334 332 331 329 326 325 325 325 325 326 327 328 328 328 329 329 329 330 330 330
347 346 346 346 346 346 346 347 347 347 348 347 347 347 346 346 347 347 346 346 346 343 338 334 332 330 328 326 325 325 326 326 326 327 327 327 328 328 328 328 328 328
347 347 347 346 346 346 347 347 347 347 348 348 348 347 347 347 347 347 347 347 346 345 341 337 334 332 329 327 327 326 326 327 327 326 326 326 326 326 326 326 326 327
347 347 347 347 347 347 347 347 347 347 347 348 349 348 348 347 347 347 348 348 347 346 344 339 336 333 330 328 328 328 328 329 329 329 328 327 326 326 326 326 326 326
347 347 347 347 347 347 348 347 347 348 347 347 348 349 348 348 347 347 348 349 348 347 347 344 339 334 332 330 329 329 330 331 331 331 331 329 327 327 327 326 326 326
347 347 347 347 348 348 348 348 347 347 348 348 348 349 349 348 347 348 348 348 349 348 348 346 342 338 335 332 331 330 331 332 332 332 332 331 329 328 327 327 327 326
347 347 348 347 348 348 347 348 348 347 348 348 347 348 348 348 348 348 348 348 349 349 349 347 346 344 340 336 334 333 333 334 335 334 333 333 330 329 329 329 328 328
347 347 348 348 348 348 348 348 348 347 348 347 347 348 349 350 349 348 348 348 349 349 349 350 349 349 347 342 340 338 337 337 339 338 336 334 332 331 331 330 330 329
348 347 347 348 348 348 348 348 348 348 348 348 348 348 348 349 351 351 350 349 349 350 350 351 352 353 351 349 346 344 342 341 342 342 340 337 335 334 335 333 331 330

ECMWFNIL_850_thetae_081.txt.gz
Theta_e
334 334 333 334 334 334 335 333 332 331 331 336 343 341 339 342 344 349 354 351 345 344 343 342 343 344 345 345 343 345 345 342 347 350 347 343 343 347 349 349 349 346
338 338 337 337 337 336 337 336 336 336 333 333 343 348 348 348 347 345 347 347 344 343 343 342 343 343 344 344 343 346 346 342 344 347 345 344 344 345 349 349 349 345
342 343 341 340 339 338 337 338 337 337 337 335 339 348 352 352 350 345 342 342 341 341 343 341 342 343 344 344 342 343 346 344 343 345 345 343 343 345 349 352 352 349
344 344 343 341 342 341 338 341 340 337 341 344 341 345 350 353 353 347 342 341 340 340 342 341 342 343 343 345 344 343 345 345 343 344 344 342 342 343 347 352 355 354
344 345 345 342 344 347 344 344 345 340 341 348 346 344 348 351 352 348 341 341 341 340 341 340 339 342 342 343 345 343 343 345 345 343 343 343 344 343 345 349 350 352
346 346 346 345 345 348 348 345 345 341 340 346 347 347 349 348 348 349 344 341 341 341 345 344 339 339 341 341 342 343 341 345 350 348 343 343 345 346 348 350 348 346
347 346 346 347 347 348 347 343 341 340 341 346 347 347 350 348 344 345 346 341 340 343 347 349 345 338 339 339 340 342 341 342 348 350 345 343 344 345 350 352 350 344
346 346 345 346 348 348 345 344 342 340 340 346 348 346 348 349 344 342 344 342 342 346 346 350 350 342 338 339 339 340 341 340 342 345 343 343 343 342 344 348 347 343
347 347 346 346 348 349 346 346 345 341 339 342 347 347 346 347 346 343 343 340 342 347 346 345 347 341 337 340 338 338 340 340 340 341 340 340 342 341 338 338 340 341
348 348 348 348 351 353 351 352 351 348 343 339 343 350 349 345 343 344 342 338 338 344 343 339 340 338 336 338 338 336 338 339 340 340 340 339 337 337 336 335 337 340
348 351 353 352 353 356 356 356 357 354 351 343 340 349 354 348 341 341 342 339 336 338 339 335 335 335 335 337 337 337 337 337 338 338 338 338 336 335 336 337 337 340
349 351 355 353 353 357 359 357 357 356 356 351 344 348 355 354 346 340 339 339 336 336 336 334 334 334 334 336 338 341 339 336 336 337 335 333 334 334 335 336 336 337
349 349 352 355 353 356 359 359 356 354 356 355 351 349 353 356 352 345 338 337 335 335 334 334 334 333 334 334 336 341 343 339 337 340 338 334 333 334 334 338 341 340
346 348 350 354 357 356 358 358 357 354 355 357 356 353 353 355 355 351 343 337 335 334 334 333 333 333 333 334 333 336 342 340 336 339 342 338 335 333 333 340 347 350
345 348 350 353 358 359 357 358 358 356 355 357 358 355 354 353 355 355 352 343 336 334 334 333 333 333 333 333 332 332 336 338 334 332 336 338 337 336 335 337 342 348
347 349 351 352 357 358 356 357 359 357 355 358 359 356 353 353 353 355 357 352 342 334 333 333 334 332 331 331 332 331 331 334 335 330 330 334 335 336 338 340 342 345
350 349 349 349 354 355 352 353 358 359 357 357 360 358 353 351 353 354 357 357 353 343 335 332 332 332 331 329 329 330 329 330 333 331 329 330 331 330 332 337 341 345
351 348 346 346 349 350 348 347 353 359 359 358 361 358 352 350 352 353 355 357 358 355 347 338 334 331 330 330 328 328 328 328 329 331 330 329 329 329 328 329 334 339
352 348 346 345 345 345 345 343 347 354 359 360 360 358 350 347 348 350 352 354 356 360 358 351 344 336 329 330 330 327 327 328 327 329 332 333 329 328 328 327 328 330
355 350 346 344 344 343 343 343 344 347 353 358 360 358 351 346 347 349 349 348 350 356 360 359 355 348 336 329 330 329 328 328 327 327 331 336 336 332 329 328 327 327
356 352 348 345 343 343 342 343 344 345 349 354 359 359 352 345 346 349 348 345 345 351 357 358 357 356 347 334 329 331 330 329 329 329 330 333 335 332 330 329 327 327
357 354 351 347 344 344 343 343 344 345 345 350 357 360 357 349 345 346 348 348 345 346 352 355 356 356 352 341 331 329 330 330 331 330 330 329 329 329 328 327 327 326
357 354 352 349 346 346 344 344 344 345 345 347 352 358 361 357 350 347 348 349 347 345 346 351 353 353 350 344 337 332 331 332 332 331 331 329 328 328 327 327 327 325
355 353 352 350 348 347 345 344 344 345 345 346 347 353 360 362 358 355 352 348 348 347 345 346 349 351 348 345 342 338 334 334 332 333 332 332 330 329 329 329 327 325
354 353 350 349 348 347 346 346 345 345 346 346 346 349 355 360 362 361 358 353 348 348 348 347 347 349 349 347 345 342 339 338 337 336 335 334 332 332 331 330 329 328
354 351 349 348 349 348 347 348 347 347 347 347 347 348 353 357 360 361 362 360 356 354 354 352 349 348 350 349 346 343 342 341 341 340 339 337 335 333 333 333 332 329

ECMWFNIL_850_thetae_084.txt.gz
Theta_e
324 324 325 325 326 327 328 329 329 329 329 328 327 326 327 331 336 343 347 345 342 342 342 341 341 341 342 343 344 346 346 345 348 350 346 343 342 349 355 353 346 345
323 323 323 324 324 325 326 328 328 330 330 329 329 329 329 331 334 340 346 347 342 341 342 342 340 341 341 342 342 343 343 342 344 347 346 344 342 345 354 356 351 345
325 324 324 324 323 323 325 326 328 331 333 331 332 333 335 338 338 339 345 346 342 340 341 342 341 340 340 341 340 341 342 342 342 343 343 344 343 342 347 355 355 349
329 327 326 325 324 324 324 327 329 333 336 335 334 334 338 344 345 342 344 344 341 338 339 341 341 340 340 341 340 340 341 341 342 342 342 342 343 342 343 350 356 355
332 330 329 328 328 328 327 329 333 335 337 339 336 335 338 345 348 347 346 343 340 338 338 340 341 341 340 340 340 340 340 340 340 342 342 341 342 343 342 345 351 355
334 333 333 332 331 333 332 332 336 337 338 339 339 338 339 343 348 351 350 344 340 339 338 339 340 340 340 340 340 340 340 340 340 341 342 342 341 341 342 344 347 350
337 336 336 335 335 336 336 336 337 340 339 340 342 341 341 343 345 349 350 346 341 339 339 338 338 338 340 339 339 340 340 340 341 340 340 340 341 340 342 345 347 345
339 338 338 338 339 339 340 340 339 339 340 343 346 346 344 344 343 345 348 346 342 341 340 340 340 337 338 339 337 339 339 339 341 341 339 338 339 340 341 344 346 344
340 340 340 340 341 341 340 341 341 340 339 343 348 350 348 346 344 343 345 345 343 342 342 343 343 339 338 338 336 336 338 337 339 341 339 337 337 339 340 340 341 341
342 341 341 340 341 341 341 343 343 341 339 342 347 351 350 347 345 344 344 343 343 342 341 342 343 342 339 339 337 335 336 337 338 338 338 337 336 338 338 338 338 338
344 343 341 341 341 341 341 345 348 347 344 343 345 350 352 350 347 346 345 344 343 343 341 340 342 341 340 338 337 336 334 334 336 337 337 337 337 337 337 337 336 336
344 344 342 341 342 343 344 346 351 353 351 347 345 348 352 353 350 348 347 345 343 343 341 340 340 341 339 338 338 337 335 333 334 336 337 336 336 335 336 337 336 335
343 343 344 344 344 347 349 350 353 357 355 352 347 346 352 356 353 350 349 346 342 341 341 340 339 340 339 337 338 338 337 334 333 334 335 335 334 333 333 335 335 334
346 344 346 347 347 350 352 353 355 356 357 356 353 350 351 356 356 353 350 349 346 340 338 339 338 339 339 336 336 339 340 336 334 333 332 331 331 330 331 332 334 336
349 348 348 350 351 351 351 354 356 356 357 358 356 354 353 354 356 355 352 352 351 345 340 340 339 338 338 336 334 336 339 338 335 333 333 332 330 329 328 330 334 343
353 352 351 351 351 352 351 353 356 356 357 357 358 356 354 352 354 356 356 354 354 351 346 343 341 337 335 334 333 332 334 336 335 333 333 334 333 331 330 331 333 339
356 354 354 352 352 352 351 352 355 357 357 357 357 356 356 354 352 355 357 356 356 355 352 346 342 338 334 332 332 332 332 333 334 333 332 333 336 335 333 332 335 337
358 356 356 354 353 352 351 350 353 357 357 357 356 356 356 355 353 352 355 357 357 358 356 350 341 335 333 332 332 331 331 332 332 333 334 333 334 336 334 332 333 338
359 358 356 356 355 353 353 352 352 356 358 356 356 356 356 356 356 353 353 355 357 358 359 356 347 338 333 332 332 330 330 331 331 332 334 334 334 334 335 333 330 331
360 359 357 356 356 354 355 354 352 353 356 356 355 356 357 357 357 356 354 354 355 357 358 357 354 348 339 333 331 331 330 330 330 330 332 334 337 338 337 337 334 329
361 360 359 357 356 356 356 356 354 353 354 356 357 356 357 358 358 357 356 353 353 356 357 357 357 356 351 342 334 331 331 330 331 332 331 334 340 344 343 341 339 335
363 361 359 359 357 356 356 356 355 354 354 355 356 357 358 359 358 358 358 355 353 353 355 357 358 358 357 352 343 336 335 335 333 332 332 335 341 347 349 349 346 342
364 362 361 360 359 356 355 355 355 354 353 354 356 358 360 361 360 359 358 357 355 352 352 354 357 357 358 357 352 347 344 342 338 335 333 332 335 341 347 351 351 347
365 364 363 361 359 357 355 354 354 354 353 353 353 357 361 362 362 360 359 358 356 354 352 351 352 354 355 356 355 354 352 349 344 341 338 333 331 332 336 342 345 343
367 366 365 362 359 359 357 354 353 353 353 351 351 354 359 362 363 362 361 359 358 357 356 352 349 350 351 351 352 352 352 351 348 346 343 339 335 333 331 332 334 334
367 367 366 363 361 362 361 357 354 353 352 351 350 351 354 358 361 362 362 362 361 359 358 355 351 349 348 348 347 347 347 348 349 347 345 341 339 337 335 333 332 331

ECMWFNIL_850_thetae_087.txt.gz
Theta_e
326 326 326 326 326 326 326 326 326 326 326 326 326 325 326 326 327 329 333 337 340 340 340 340 341 341 344 348 351 351 350 347 346 346 344 342 341 341 344 348 349 348
326 327 326 326 326 326 326 326 326 327 326 326 326 325 326 326 326 328 330 332 337 341 341 339 339 341 341 343 346 347 346 344 344 345 343 342 342 339 340 345 346 347
323 325 326 326 326 326 326 327 326 326 326 326 326 326 326 326 325 328 330 331 333 338 341 340 339 339 340 340 342 343 342 342 342 343 343 341 341 340 339 341 343 346
322 323 325 326 327 327 326 326 327 326 326 326 326 326 326 326 326 328 330 332 332 335 339 341 340 339 338 338 339 341 341 341 342 342 342 341 340 340 340 339 343 347
324 322 323 324 326 326 327 326 327 327 326 326 326 325 325 326 326 327 331 333 333 333 335 338 339 339 338 338 338 338 339 341 342 341 341 342 341 340 339 338 343 348
327 325 323 323 323 324 325 325 326 326 326 325 325 325 325 326 326 327 329 332 334 334 335 336 338 339 339 338 337 337 338 338 340 341 340 341 340 340 340 338 341 346
331 329 325 324 323 322 322 323 324 324 324 324 324 324 325 327 328 328 329 331 333 335 335 335 336 338 338 339 339 337 337 337 338 340 340 340 341 340 340 340 340 343
334 332 329 327 325 324 323 323 323 323 323 323 323 324 325 327 330 329 330 332 333 335 336 335 336 337 337 338 338 337 337 337 337 337 338 340 340 340 339 339 339 340
337 335 333 330 329 327 326 324 324 323 323 324 323 324 325 327 330 332 332 332 333 334 336 335 336 337 337 336 336 337 337 337 336 336 336 337 339 339 339 339 340 339
341 337 336 334 332 330 329 327 327 326 326 326 326 326 327 327 331 334 334 335 335 335 336 336 335 337 338 337 335 336 336 336 336 335 335 336 336 337 338 339 340 340
345 341 339 337 334 333 331 331 330 329 329 329 330 331 330 331 333 336 338 338 336 335 335 335 336 336 337 337 336 336 336 336 335 335 335 335 334 335 336 337 338 338
349 345 342 339 337 336 335 334 334 334 333 333 333 335 335 335 336 338 340 340 338 337 335 335 336 335 335 336 336 336 337 336 336 335 335 335 334 334 334 335 336 335
351 347 343 341 339 338 337 336 336 338 337 335 335 337 338 338 338 340 342 341 339 338 337 336 336 336 335 335 335 336 335 335 335 334 334 334 333 334 334 334 335 334
353 349 346 343 341 340 339 338 339 340 340 340 339 339 340 339 338 339 341 341 339 339 337 337 337 337 336 335 335 335 335 335 335 334 334 333 333 332 332 332 332 332
355 352 349 346 343 342 341 340 341 342 343 343 343 343 342 341 340 340 341 341 340 340 339 338 339 338 337 335 335 335 334 333 333 334 333 333 333 333 332 331 330 329
357 354 352 349 346 344 343 343 342 344 345 345 344 344 344 345 346 345 344 343 342 341 341 341 340 339 337 335 335 334 333 333 332 332 332 332 332 332 332 331 330 329
360 357 355 353 350 347 345 344 344 345 346 346 346 346 347 348 350 351 349 347 345 343 342 342 341 338 336 335 334 333 334 333 332 332 332 331 332 331 331 331 329 328
362 359 357 354 352 350 348 346 346 347 348 349 349 349 350 351 352 353 353 350 349 348 345 343 340 337 334 334 334 333 333 333 333 332 332 332 331 331 331 330 330 329
363 361 358 356 354 353 351 350 349 349 350 351 352 351 352 353 353 353 354 354 353 352 350 347 343 339 336 335 334 333 333 333 333 333 332 332 331 331 331 331 330 331
365 363 360 358 357 355 354 353 351 350 351 352 354 353 354 355 354 354 354 355 355 355 353 351 346 343 339 337 336 335 334 334 334 334 334 333 332 332 332 331 330 331
365 363 361 359 358 356 355 355 353 352 352 354 355 356 355 355 356 355 354 354 355 356 355 354 351 347 343 341 340 338 336 336 337 336 335 335 335 334 333 332 331 331
365 364 362 360 359 357 357 356 354 354 353 354 356 357 357 357 357 356 356 354 355 356 356 355 355 352 349 346 343 341 341 341 341 340 338 337 337 335 335 334 333 333
365 364 363 361 360 359 357 357 356 354 353 354 356 358 358 358 358 357 356 355 354 355 356 356 356 355 353 350 347 345 345 346 344 342 339 338 337 337 337 336 335 334
365 364 364 362 361 359 358 357 356 355 354 354 356 358 358 358 357 357 356 355 354 353 354 355 357 356 355 353 351 350 350 349 347 344 341 339 339 339 339 339 338 336
365 364 363 362 361 360 358 357 356 356 355 354 355 357 358 358 357 357 356 356 355 353 353 354 355 356 355 355 354 353 353 352 352 351 348 344 341 340 340 340 338 335
365 364 364 363 363 362 360 358 357 357 356 356 355 355 357 358 357 357 357 356 356 356 354 353 354 355 356 356 355 355 354 354 356 356 352 345 342 340 339 339 337 334

ECMWFNIL_850_thetae_090.txt.gz
Theta_e
336 340 338 337 336 332 329 330 331 331 331 331 333 334 332 332 335 338 341 341 342 341 341 341 342 343 344 346 348 349 350 349 347 344 340 336 335 340 344 344 345 345
334 339 338 335 335 333 329 328 327 328 327 328 328 328 327 327 327 331 336 340 341 341 340 340 341 342 344 344 344 347 350 349 347 346 342 337 336 341 344 344 345 345
330 335 337 334 332 331 331 328 327 326 326 326 326 326 326 326 325 327 329 333 338 340 341 340 340 342 343 342 343 345 348 347 345 344 343 340 339 342 343 344 345 345
328 329 331 331 328 328 329 329 327 326 326 326 326 326 326 326 325 325 325 328 332 336 339 340 340 340 342 342 342 342 343 345 344 343 343 342 340 340 339 342 345 344
326 327 328 327 326 326 326 327 326 326 326 326 326 326 326 325 325 325 325 325 328 332 337 340 340 339 340 340 342 342 341 341 342 342 342 342 341 339 337 339 341 344
325 325 326 327 326 325 326 326 326 326 326 326 326 326 326 326 326 326 325 325 326 329 333 337 340 341 339 339 340 340 340 340 340 341 341 341 341 340 339 338 338 339
325 325 325 325 326 326 326 326 325 326 326 326 326 326 326 326 326 325 325 325 325 327 330 334 338 340 340 339 338 339 339 339 340 341 340 340 341 340 340 339 338 336
329 326 324 323 324 325 326 326 326 326 326 326 326 326 326 326 326 326 325 325 325 326 328 331 334 336 339 339 338 337 337 337 338 339 340 340 341 340 339 339 339 338
335 331 327 326 324 323 323 324 325 326 326 327 326 326 326 326 326 325 324 325 325 326 327 329 332 334 335 338 338 338 337 336 336 337 338 339 339 339 339 338 338 338
343 337 332 330 327 324 323 322 322 324 324 326 326 326 326 326 325 325 324 324 326 326 327 329 332 333 334 335 337 337 337 337 336 336 336 337 337 338 339 340 339 337
348 343 339 335 331 328 326 324 323 322 322 323 323 324 324 324 324 324 324 324 325 326 328 329 331 333 334 335 335 337 336 336 336 336 335 335 336 337 337 339 339 338
352 349 345 341 336 333 330 328 325 324 323 322 322 322 322 322 323 323 323 323 324 326 328 329 330 332 334 335 335 336 336 336 336 336 335 335 335 335 336 337 337 338
354 352 351 348 344 339 335 332 329 327 326 324 323 322 322 322 322 322 323 324 324 326 328 329 331 332 334 335 335 336 336 337 336 336 336 335 334 334 334 335 336 336
356 355 354 352 349 345 341 336 333 331 329 328 326 325 324 323 323 323 323 324 325 326 328 330 333 334 335 335 336 336 336 336 336 336 336 336 335 334 333 334 333 334
356 356 355 354 352 350 346 342 338 336 333 331 330 329 327 326 326 325 326 326 327 328 330 333 334 336 336 336 337 336 336 335 336 336 336 336 336 335 333 332 332 332
357 357 356 356 355 353 351 347 343 340 338 335 334 332 331 330 329 329 329 329 330 331 332 335 336 336 336 336 336 336 335 335 335 335 335 335 335 335 334 333 332 330
358 358 358 358 357 356 354 352 348 344 341 340 338 336 335 334 333 333 333 333 333 334 335 336 336 336 336 336 335 336 337 336 335 334 334 334 334 334 334 333 331 331
360 360 360 360 360 359 357 355 352 348 345 343 342 340 339 338 338 337 337 336 336 336 336 336 336 336 335 336 336 336 336 337 335 334 334 334 333 332 332 332 331 331
360 361 362 362 361 361 359 357 355 352 349 346 345 343 342 341 340 339 339 339 339 339 338 337 337 337 337 337 336 337 337 338 337 335 334 333 333 332 331 331 331 330
360 361 362 363 363 362 361 359 356 354 352 349 347 346 346 345 344 343 342 342 341 339 338 338 338 338 337 338 338 337 337 339 339 338 336 334 333 332 332 331 331 330
358 360 363 364 364 364 363 361 359 356 353 351 349 348 348 347 347 346 345 344 342 341 340 339 339 338 338 339 339 339 340 341 343 342 341 338 335 334 334 333 332 332
360 361 363 365 365 365 364 363 361 358 355 353 351 350 349 349 348 349 348 347 345 344 343 342 340 340 339 339 340 342 343 344 345 345 344 342 338 336 335 334 334 333
362 363 364 365 365 365 365 364 363 360 357 354 353 352 351 351 351 351 351 350 349 348 347 346 343 341 340 339 340 343 346 347 346 347 346 344 340 337 335 334 334 334
365 365 365 366 366 365 365 365 364 362 360 356 354 353 352 352 352 352 352 352 352 352 350 349 347 344 342 341 340 344 348 350 349 348 347 346 342 339 338 336 334 333
365 366 366 366 366 365 365 366 365 363 361 358 356 355 353 353 353 353 354 354 354 354 353 353 351 348 345 344 344 346 350 352 352 351 349 347 343 340 339 337 333 332
364 365 366 365 365 365 365 365 364 364 363 360 358 356 355 354 354 354 354 355 355 356 355 355 354 352 350 348 346 347 351 354 354 354 352 349 344 340 338 337 333 331

ECMWFNIL_850_thetae_093.txt.gz
Theta_e
334 337 338 339 338 336 334 335 335 333 334 335 335 334 335 337 339 340 339 338 339 338 340 341 341 343 345 346 346 348 349 347 346 344 341 340 341 342 343 343 343 343
332 334 337 338 338 338 337 335 334 333 332 335 335 334 334 335 337 340 340 339 339 338 339 340 340 341 343 345 345 348 350 348 347 346 343 339 337 338 341 343 345 345
332 333 335 336 337 338 339 337 335 333 332 334 335 335 335 335 336 338 339 340 340 339 339 340 340 339 341 343 343 345 348 347 346 346 344 339 335 335 340 344 345 345
331 331 332 334 335 336 338 339 337 334 332 333 334 335 335 335 334 333 333 335 338 340 341 340 340 339 340 341 341 342 346 347 346 345 343 340 336 334 339 343 344 344
331 331 331 331 332 334 335 337 337 333 331 331 330 330 333 332 331 329 327 328 331 335 339 340 340 340 339 340 339 340 343 345 346 346 343 341 338 335 338 342 343 343
330 330 330 329 330 331 333 334 334 332 329 328 327 327 328 328 327 327 326 326 326 327 331 335 338 339 340 339 339 339 340 342 344 345 344 342 341 339 339 341 342 343
330 330 330 329 329 331 332 332 333 332 330 328 326 325 326 326 326 326 325 325 325 325 326 328 332 337 339 339 339 339 339 340 341 343 343 342 342 341 340 339 339 340
333 330 329 329 329 330 333 333 332 331 331 329 327 325 326 325 326 325 325 326 326 325 325 325 327 331 336 339 339 339 339 339 339 340 340 341 341 341 340 339 338 337
339 333 329 329 329 329 331 333 331 331 331 331 328 326 325 325 326 326 325 325 326 326 325 325 326 327 331 336 338 339 339 339 339 339 339 339 339 340 340 340 339 338
344 341 335 331 329 329 330 331 331 330 330 330 329 328 326 325 325 325 325 325 325 326 325 326 325 326 328 331 335 338 339 339 340 339 338 338 337 338 339 340 339 338
346 346 343 338 332 328 327 328 329 329 329 329 328 327 326 325 326 325 325 325 326 326 326 326 325 325 326 328 331 334 336 338 339 339 339 338 337 337 337 338 339 339
348 347 347 345 339 332 327 326 327 327 327 327 326 326 326 325 326 326 325 325 326 326 326 325 325 324 325 326 327 331 333 335 337 338 339 339 338 338 337 337 338 338
349 349 349 349 347 342 335 328 326 325 325 325 325 325 325 325 326 325 326 326 326 326 326 326 325 324 324 324 326 328 332 333 335 336 337 338 338 338 337 337 337 336
350 350 350 351 350 349 346 341 334 328 326 325 324 323 324 324 324 324 324 324 325 325 324 324 324 323 323 323 325 328 330 333 335 335 336 337 337 337 338 337 337 336
351 351 351 352 352 351 351 349 345 339 334 330 327 325 324 323 323 323 323 323 323 322 323 322 323 323 322 323 324 326 329 331 333 334 335 336 336 336 336 336 336 336
352 351 352 353 353 353 353 352 351 349 345 340 335 332 329 327 325 325 324 323 323 322 322 321 321 322 323 323 324 326 329 331 333 334 335 335 336 336 335 336 335 335
352 352 353 353 353 353 354 354 354 352 350 348 345 341 338 334 331 329 327 326 325 324 324 323 322 323 323 324 325 326 329 332 333 334 334 334 335 335 335 335 335 334
353 353 354 354 354 354 354 354 355 354 353 352 350 348 345 342 338 335 332 330 329 328 327 326 325 324 325 326 326 328 330 332 334 335 335 335 335 335 335 335 335 334
354 354 354 355 355 355 355 355 355 355 355 354 353 352 349 347 344 340 337 335 333 331 331 330 329 329 329 329 329 330 332 333 335 335 336 336 336 335 335 334 334 334
355 355 355 355 355 356 356 356 356 356 356 355 355 354 352 351 349 345 342 339 337 335 334 334 333 332 332 332 332 333 334 335 336 336 337 336 336 336 336 334 334 333
356 356 356 356 356 356 357 357 357 357 357 357 357 357 355 354 352 349 346 343 340 338 338 337 336 336 335 335 334 334 334 335 336 338 339 339 338 338 336 335 334 334
358 357 357 357 358 357 357 357 358 358 358 359 359 359 358 356 354 352 349 346 343 341 340 339 338 337 337 336 335 335 335 336 337 339 341 341 340 339 338 336 335 334
359 359 359 358 359 359 358 359 359 359 359 360 361 361 359 358 356 354 351 348 346 344 341 341 339 338 338 337 337 336 337 338 339 340 341 342 341 341 339 337 335 334
359 360 360 360 360 360 360 360 360 359 359 361 362 363 361 360 358 356 353 350 346 343 342 341 340 339 339 339 338 339 340 341 340 342 343 343 343 342 341 339 337 335
357 359 360 361 361 360 360 360 359 359 360 361 363 364 363 361 360 357 355 352 348 346 343 342 341 340 340 340 340 340 341 342 343 344 345 345 345 345 344 341 339 337
355 358 359 359 360 360 359 359 358 359 361 362 363 364 363 362 361 359 358 355 352 349 346 344 342 341 341 342 341 342 343 344 346 347 347 347 346 346 345 343 341 338

ECMWFNIL_850_thetae_096.txt.gz
Theta_e
338 337 334 333 334 334 335 339 344 345 344 341 338 335 335 337 338 339 339 339 340 341 341 342 343 343 345 347 347 345 345 345 345 344 343 342 342 343 343 344 345 344
337 336 335 334 334 335 335 337 341 343 343 342 339 336 335 335 337 338 339 339 339 339 340 340 341 343 344 346 346 345 344 344 345 345 344 343 342 340 341 342 343 343
335 335 335 334 333 334 334 335 337 339 340 341 339 336 335 335 335 336 338 339 339 339 339 338 339 340 340 343 345 344 344 344 345 346 346 345 343 339 337 339 341 343
333 333 334 333 333 333 334 335 335 335 336 338 338 336 335 335 335 335 337 339 339 339 339 338 338 338 338 339 341 342 343 343 345 347 346 345 344 340 336 336 340 343
332 333 333 333 333 332 333 334 335 334 334 334 335 335 335 335 335 334 335 338 339 339 339 339 339 339 338 339 339 340 341 341 344 346 345 344 343 341 337 335 339 343
331 332 332 333 333 332 332 333 334 334 333 333 332 332 332 334 335 334 335 336 336 336 337 338 339 339 339 339 339 339 339 340 342 344 344 344 343 342 339 336 337 342
332 330 331 332 332 331 331 331 332 333 332 332 332 330 330 332 333 334 334 333 331 330 330 332 334 336 337 338 339 339 338 338 339 342 343 343 343 343 341 338 337 339
335 331 330 331 332 331 330 330 331 331 331 331 332 330 329 330 331 331 331 330 328 326 326 326 327 328 330 333 335 338 338 338 338 339 340 341 341 342 341 340 339 338
341 336 332 330 330 331 331 330 329 329 329 330 331 331 329 328 328 328 328 327 326 326 325 325 325 326 326 327 329 333 336 338 338 337 337 338 339 340 340 341 341 340
344 342 338 334 331 329 329 329 329 328 328 328 329 330 330 329 328 327 327 325 325 325 325 325 325 325 326 326 326 327 330 334 337 338 337 337 337 337 338 339 340 340
344 344 343 341 337 334 330 328 329 329 328 327 327 328 330 330 329 329 328 327 325 325 325 325 326 325 325 326 326 325 326 329 333 336 337 337 337 336 336 337 338 339
345 344 344 344 343 341 336 332 329 328 328 328 327 327 328 329 330 330 330 329 327 326 325 325 325 326 325 325 325 326 325 326 328 331 334 336 337 337 337 336 336 336
345 345 345 344 344 344 343 339 335 330 328 328 327 327 327 328 329 330 330 330 328 327 326 325 325 325 325 325 325 326 326 325 325 327 330 332 334 335 336 337 336 336
346 345 345 345 345 345 345 344 342 338 334 330 328 327 327 327 328 327 328 328 328 327 325 325 325 325 325 326 325 326 326 325 324 324 326 329 331 333 334 335 336 336
346 346 345 345 346 346 346 346 346 345 342 339 334 330 327 326 327 326 327 327 327 326 326 325 325 325 326 326 326 326 325 325 324 323 324 326 329 332 333 334 334 335
346 346 346 346 346 347 347 347 347 347 347 346 343 339 332 328 326 325 325 325 325 325 325 325 324 325 325 325 325 324 324 324 323 322 323 324 327 330 332 333 334 334
346 346 346 347 347 348 348 348 348 348 349 349 349 348 344 339 334 330 327 325 324 324 324 323 323 322 322 322 322 322 322 322 322 322 322 323 326 329 331 333 333 334
347 347 347 347 347 348 348 349 349 349 350 350 350 350 350 348 346 341 337 333 330 328 327 326 324 323 322 322 321 321 321 321 321 322 322 323 325 328 331 333 333 333
347 347 348 348 348 349 349 349 350 350 351 351 351 352 352 352 351 349 347 344 341 337 334 331 329 327 326 325 324 323 323 323 323 323 323 325 326 329 331 333 333 333
348 348 349 349 349 349 350 350 350 351 352 351 352 352 353 353 353 353 352 351 349 346 342 338 335 332 331 330 328 327 326 326 326 326 326 327 328 330 332 333 334 334
349 349 350 350 350 350 350 351 351 352 352 352 353 353 353 354 354 354 354 354 352 351 349 344 339 335 334 333 332 332 331 330 330 330 330 331 331 332 333 333 334 334
350 351 351 351 351 351 351 352 352 352 352 353 354 354 354 355 355 355 355 355 354 354 353 349 343 337 337 336 335 335 335 334 334 334 334 334 334 334 334 334 335 335
351 352 352 352 352 353 353 353 354 354 354 354 354 354 355 355 356 356 356 356 356 356 355 353 346 340 339 338 336 337 337 336 336 336 335 336 335 335 335 335 335 335
353 353 354 354 354 354 355 355 354 353 354 355 355 355 355 356 357 357 357 357 358 359 358 356 349 342 340 340 338 339 340 338 338 337 337 336 337 336 337 336 336 336
355 355 355 355 355 355 356 356 355 352 352 354 355 354 354 355 356 357 357 358 358 360 360 359 354 347 343 342 341 341 341 341 340 339 338 337 337 338 338 338 337 336
357 358 357 357 357 356 357 357 356 354 353 354 355 354 354 355 356 356 357 358 358 360 361 361 358 352 345 343 342 343 343 343 342 341 339 338 338 338 338 339 338 337

ECMWFNIL_850_thetae_099.txt.gz
Theta_e
338 338 339 337 335 333 333 334 337 343 345 345 342 340 339 339 338 340 340 342 343 343 344 344 343 343 344 346 346 345 345 345 345 345 344 344 344 344 344 345 345 345
336 338 338 338 336 334 333 333 334 338 342 345 344 341 339 338 337 338 339 341 342 342 343 343 343 343 344 345 346 346 346 345 345 345 344 344 343 343 342 343 344 344
333 336 337 338 336 335 334 334 334 335 339 343 345 343 340 338 337 337 338 339 341 341 342 342 343 343 343 344 346 346 346 346 345 345 345 345 344 343 342 341 342 343
332 333 335 336 336 335 335 334 334 335 336 339 343 343 341 339 337 335 336 337 339 340 341 340 341 341 342 342 344 345 346 346 346 346 346 346 345 343 343 341 340 340
333 331 332 334 334 334 334 334 333 334 334 336 340 342 341 339 337 336 336 337 338 339 339 340 341 340 340 341 341 342 344 345 345 346 347 347 346 345 344 341 340 340
335 332 331 331 332 333 333 334 332 333 334 335 336 338 340 339 338 336 336 337 338 338 339 340 341 340 340 340 340 339 340 341 342 344 345 346 346 346 345 342 340 339
339 336 333 331 331 332 332 332 332 332 333 333 335 336 337 339 338 337 337 337 338 338 339 339 340 341 341 340 340 339 338 339 339 340 342 343 345 346 345 343 340 338
341 340 337 334 331 331 332 332 331 331 331 332 334 334 335 336 337 337 336 337 337 337 337 338 337 336 337 337 337 336 336 338 338 338 338 340 342 344 344 342 340 338
343 342 341 338 334 332 331 332 332 331 330 330 332 333 334 334 335 335 335 335 336 336 336 335 332 330 330 330 329 329 330 332 335 337 338 338 339 340 341 342 341 339
344 343 342 341 339 334 330 330 331 330 330 329 330 331 332 333 334 334 333 332 334 335 335 332 329 327 326 326 326 326 326 327 329 332 334 337 338 337 337 339 340 340
345 344 343 342 342 339 333 330 330 330 330 330 329 329 329 330 331 332 331 330 331 332 331 330 327 326 326 325 326 326 326 325 325 326 328 331 335 337 337 336 337 338
345 344 344 344 343 343 340 335 331 329 329 329 329 329 328 327 328 329 329 328 328 328 327 326 325 325 325 325 325 325 326 326 325 326 325 326 328 331 335 336 336 336
345 345 344 344 344 344 344 342 338 335 331 329 328 328 328 327 326 327 328 326 326 326 325 325 325 325 325 325 325 325 325 325 325 325 326 325 325 326 329 332 334 335
345 345 345 345 345 344 345 344 343 342 339 336 333 329 327 327 327 327 327 326 326 325 325 325 325 325 325 325 325 325 325 325 325 325 325 326 325 325 325 327 330 333
346 345 345 345 345 345 345 345 344 344 344 343 340 337 332 329 327 327 326 326 326 326 325 325 325 325 325 325 325 325 325 325 325 325 325 325 325 325 324 324 326 329
345 345 345 345 346 345 345 345 345 345 345 345 344 344 342 338 333 330 328 326 326 326 326 326 325 326 325 325 326 325 325 325 325 325 326 326 325 325 324 323 323 326
345 346 346 346 346 346 345 346 345 345 345 346 346 346 346 345 343 340 336 332 328 326 325 325 325 325 325 325 325 325 325 325 325 325 325 325 325 324 323 323 323 324
345 345 345 346 345 346 346 346 346 346 346 346 346 346 347 347 346 346 345 342 338 334 330 327 324 322 322 323 323 323 323 323 323 323 323 323 323 323 322 322 322 323
345 345 345 346 346 346 346 346 346 346 346 346 347 347 347 348 348 348 348 347 347 344 340 335 330 325 323 323 323 322 323 323 323 322 322 321 322 322 321 321 322 322
345 346 345 346 346 346 346 346 347 346 347 347 347 347 347 349 349 349 350 350 350 349 348 345 341 334 330 328 326 326 325 326 326 326 325 323 322 322 322 322 322 323
345 345 346 346 346 346 346 346 346 346 347 347 347 347 348 348 349 350 351 351 351 351 351 351 349 345 340 336 332 331 331 332 333 332 330 328 326 324 325 324 324 325
346 346 346 346 346 346 346 346 346 347 347 347 348 348 348 349 350 350 351 352 352 352 353 353 353 351 349 346 341 338 339 340 339 337 334 332 330 328 327 327 328 328
346 346 346 347 346 346 347 346 347 348 348 348 348 348 349 350 351 351 352 353 353 353 353 354 354 353 353 351 349 347 347 346 343 341 338 336 333 332 331 331 331 332
349 348 348 348 347 347 347 348 348 349 349 349 349 349 350 351 352 352 353 353 354 354 355 355 354 354 354 354 352 351 351 349 347 345 342 339 337 335 334 333 333 333
350 350 349 349 348 348 348 349 349 349 350 350 350 351 351 352 352 353 353 354 354 355 355 355 356 356 356 356 355 354 353 351 349 349 347 342 339 337 336 335 335 334
351 351 351 351 350 350 350 350 350 351 351 351 351 352 353 353 353 353 354 355 355 355 356 356 357 357 357 358 358 357 356 353 351 351 348 344 340 338 337 336 335 334

ECMWFNIL_850_thetae_102.txt.gz
Theta_e
335 335 336 336 337 338 339 337 340 345 348 351 353 350 346 343 343 343 343 343 343 344 345 344 345 346 346 346 345 345 346 346 346 345 343 343 344 348 351 350 350 351
335 335 335 337 337 338 337 335 336 340 344 348 352 351 347 343 342 342 343 343 343 343 345 345 346 346 346 346 346 346 345 344 346 346 345 344 344 346 349 349 349 350
334 334 335 336 337 337 337 336 334 335 339 344 347 349 347 345 343 341 342 343 343 344 344 345 346 346 346 346 346 346 345 344 346 347 346 345 345 346 349 350 351 350
334 333 333 334 336 337 337 337 335 333 336 340 343 345 348 346 344 341 342 342 342 343 343 344 344 345 345 345 346 346 346 345 345 345 345 345 345 345 348 351 352 352
335 333 332 332 334 337 338 337 336 334 334 337 338 341 344 345 342 342 342 341 340 340 342 343 343 343 344 344 345 345 345 347 347 345 344 345 346 346 350 351 348 350
339 334 332 332 332 335 337 336 335 334 334 334 335 337 340 342 342 343 343 342 342 341 342 343 342 342 343 342 343 343 344 350 352 348 344 345 348 350 353 351 346 346
342 339 335 333 332 332 334 335 335 334 333 334 334 334 337 339 340 342 342 341 344 346 345 345 342 342 342 342 343 343 341 346 349 347 344 345 346 349 351 350 345 344
344 343 340 336 333 331 331 333 334 334 333 333 333 333 334 336 337 341 341 339 343 346 345 344 343 341 342 342 342 343 343 345 347 344 343 344 344 345 347 348 346 343
345 344 344 341 337 334 332 333 334 333 332 332 333 333 334 333 335 339 340 337 340 342 340 340 341 340 341 341 341 341 341 344 346 344 343 343 342 342 344 346 346 345
345 345 344 344 341 338 335 336 338 337 334 331 332 334 335 334 333 335 337 335 336 338 337 338 339 339 339 338 337 335 332 332 335 335 335 339 340 342 346 347 346 346
346 346 345 344 344 343 341 340 342 343 339 332 330 333 334 333 332 333 334 333 334 335 335 335 336 337 336 334 332 331 328 328 330 328 328 331 333 335 339 341 342 344
346 346 345 345 345 345 345 344 344 344 343 337 331 330 332 331 331 331 332 332 331 331 332 332 334 335 333 329 330 333 330 329 331 331 328 328 328 330 333 335 336 338
347 347 345 345 345 345 345 347 346 345 344 341 334 330 331 332 332 330 329 330 331 331 330 330 332 334 332 327 326 329 329 327 329 332 331 330 329 331 336 339 339 340
347 347 346 345 345 345 344 345 346 346 345 342 337 331 329 332 334 333 329 328 329 330 330 330 330 332 332 329 325 326 326 325 326 328 330 331 330 330 333 337 341 343
346 346 346 345 345 345 345 345 345 345 345 344 340 336 332 331 333 335 334 329 327 328 328 328 328 329 329 328 326 325 326 326 325 325 326 327 328 329 330 331 334 338
347 346 345 346 345 345 345 345 344 344 344 344 343 342 340 337 334 335 336 334 329 327 327 327 327 326 326 325 325 325 325 325 325 325 325 325 325 326 327 328 330 334
346 346 345 345 345 345 345 345 345 345 344 344 344 344 344 343 341 338 337 338 337 332 328 327 326 326 326 325 325 325 326 325 325 325 325 326 326 326 326 326 328 330
344 344 345 345 344 345 345 345 345 345 345 344 344 345 345 344 345 344 342 342 342 340 336 332 328 326 326 326 326 325 325 326 326 326 326 327 327 325 325 326 326 326
346 343 344 345 345 345 344 344 344 344 345 345 345 344 345 345 345 345 345 345 344 344 343 341 336 330 325 324 325 325 325 325 325 326 328 331 330 327 325 324 325 324
350 347 344 343 344 345 344 344 344 344 344 344 345 344 344 345 346 345 345 346 346 346 346 345 345 341 333 326 323 323 323 323 324 324 325 327 327 326 325 323 323 324
353 352 349 345 344 344 345 344 344 345 345 344 345 346 346 345 346 346 346 345 346 347 347 348 348 348 344 337 331 327 326 324 324 324 324 325 324 323 324 323 321 322
354 354 353 350 346 343 345 345 345 345 346 345 345 346 348 348 346 346 346 347 347 348 348 349 350 350 350 347 341 337 335 333 332 330 327 327 327 326 325 324 324 322
352 354 354 354 351 346 344 346 346 346 346 346 346 346 348 349 348 347 347 347 347 348 348 348 350 351 351 351 349 348 347 345 343 340 337 334 332 330 329 328 325 324
350 352 354 355 354 351 348 346 346 347 347 347 347 348 348 349 350 350 350 349 348 348 349 349 350 351 352 352 352 352 352 352 350 350 348 344 340 336 335 332 330 325
350 351 354 356 356 355 353 351 348 347 348 348 348 349 349 349 351 352 352 352 351 350 350 350 351 351 352 352 353 353 353 353 353 354 353 352 348 345 342 338 335 331
350 350 352 355 357 357 356 354 352 351 350 351 351 351 352 352 352 353 353 354 353 353 353 352 352 352 352 353 353 354 354 354 354 354 354 354 353 351 348 346 341 336

ECMWFNIL_850_thetae_105.txt.gz
Theta_e
335 336 336 338 343 347 351 350 351 353 355 355 355 354 354 353 354 355 354 349 343 344 345 344 345 345 345 346 345 348 347 348 355 352 344 344 348 352 355 353 353 354
335 336 337 340 343 344 348 351 351 352 353 355 356 356 354 349 348 348 350 349 345 345 346 345 347 346 347 349 346 347 347 345 353 354 345 343 350 354 355 354 354 353
335 337 336 340 344 344 346 349 350 351 351 353 355 356 355 351 347 344 343 345 346 347 347 344 346 347 347 348 345 347 348 344 349 357 349 342 348 354 356 354 353 354
335 336 336 341 347 348 349 348 349 350 350 351 353 355 355 353 351 346 341 341 343 346 347 345 345 346 346 346 346 347 348 344 347 353 350 343 345 351 355 354 354 354
334 334 335 342 348 349 349 349 349 349 349 350 351 352 353 353 353 350 344 341 341 342 345 345 344 345 346 346 346 348 348 347 348 347 345 346 347 349 354 356 354 355
338 335 334 337 345 349 349 350 349 349 348 349 349 349 351 351 352 352 349 346 345 346 348 348 346 346 347 346 344 346 346 349 352 349 344 347 349 349 355 357 354 353
342 340 336 334 340 344 347 350 351 349 348 348 348 349 349 350 349 349 350 350 351 350 350 350 350 350 351 349 345 343 345 348 352 350 345 348 349 350 355 358 354 350
343 343 340 337 340 342 343 349 351 351 349 347 347 348 349 349 349 347 348 349 350 351 351 351 351 349 351 352 349 343 343 348 350 347 344 347 348 347 351 355 353 348
345 347 344 342 345 345 344 346 349 350 350 348 347 347 347 348 348 349 350 348 346 348 349 351 350 346 346 351 353 348 345 348 352 351 347 346 346 346 347 352 354 351
347 349 350 349 349 346 345 345 346 348 350 349 347 346 346 346 346 348 350 348 343 342 343 346 347 344 342 345 350 351 347 347 351 353 352 350 350 352 352 352 354 355
352 352 353 353 350 347 345 345 345 345 347 348 348 345 344 346 346 345 349 347 340 336 337 339 340 341 339 341 348 350 347 347 349 349 349 349 350 352 353 353 354 354
357 355 354 353 352 349 346 345 344 343 344 346 348 347 344 345 346 346 347 345 337 332 334 335 335 338 337 339 347 350 348 348 348 347 346 347 347 349 351 351 352 352
359 357 355 353 352 351 348 346 344 343 343 344 346 347 346 343 344 347 347 345 337 332 334 335 332 333 334 335 341 348 349 349 348 347 347 347 346 347 348 348 349 350
360 359 357 355 353 353 351 348 346 343 343 342 343 346 347 344 342 344 347 348 343 336 335 338 335 330 331 332 334 340 346 349 348 346 347 347 346 346 346 347 346 346
359 359 359 358 356 354 353 350 348 346 344 344 344 344 345 344 342 342 343 347 349 344 338 340 341 335 329 330 332 334 337 343 347 347 344 346 346 345 345 345 344 343
359 359 359 359 358 358 355 351 348 349 347 345 346 346 345 345 344 343 342 343 349 349 344 340 342 340 333 328 330 331 332 335 341 343 343 343 344 345 343 343 343 342
357 358 359 359 359 360 358 354 350 350 351 348 348 348 347 347 347 345 343 342 344 349 348 344 342 341 337 330 327 330 330 330 333 338 339 338 339 341 339 338 340 340
355 357 359 359 359 360 360 357 353 353 354 352 351 351 351 351 350 349 345 342 341 343 347 348 346 343 338 332 326 327 329 329 331 337 341 338 338 339 337 336 337 338
354 355 357 357 358 358 359 358 355 354 354 354 353 353 354 354 353 352 349 346 344 342 343 345 345 345 343 336 329 325 326 328 329 334 340 342 342 343 344 342 338 335
352 353 356 357 356 357 358 357 355 353 351 353 354 354 354 355 353 352 350 347 345 345 344 344 344 345 346 342 336 329 326 326 326 329 333 337 340 343 345 347 345 340
353 353 354 356 356 358 358 356 356 355 353 353 355 355 355 355 351 350 349 346 345 346 346 347 346 345 345 345 343 338 331 327 326 325 327 329 332 335 337 340 344 345
352 353 354 355 356 357 358 357 357 358 357 355 354 354 355 355 353 351 350 348 346 345 345 348 349 348 347 346 346 344 339 336 334 331 329 328 327 328 330 331 333 338
350 351 353 354 355 356 357 358 358 359 358 357 357 355 354 355 355 355 354 352 350 348 347 347 347 348 348 347 347 347 346 345 344 343 341 337 332 330 331 330 329 329
349 350 350 352 354 356 356 357 357 358 358 357 358 356 355 354 354 355 356 356 355 354 351 349 347 347 347 347 347 348 348 348 348 349 349 347 344 340 338 335 331 327
346 348 349 350 351 354 356 356 356 355 356 356 356 356 356 355 354 354 354 356 356 356 356 354 351 349 348 348 348 348 348 349 349 349 350 350 350 349 347 345 341 335
342 344 347 349 350 352 354 355 355 354 354 354 354 355 355 355 355 355 354 354 355 356 356 356 355 354 352 350 349 349 349 349 349 350 350 351 352 351 351 351 349 346

ECMWFNIL_850_thetae_108.txt.gz
Theta_e
335 338 341 341 341 342 344 342 346 353 353 351 349 349 353 354 354 352 346 344 346 347 346 345 345 346 346 347 347 348 347 345 347 345 344 343 341 348 355 352 352 354
334 335 336 339 341 342 344 343 343 349 355 355 353 352 354 352 351 352 348 344 344 346 346 344 344 344 344 345 345 345 345 344 348 349 345 343 341 345 354 355 353 353
333 334 334 336 339 341 344 345 343 345 350 355 357 355 354 351 350 351 350 347 344 344 347 345 345 345 344 346 344 344 346 345 347 350 346 342 342 345 353 355 354 352
332 333 333 335 339 340 343 348 347 346 348 352 356 356 354 353 350 347 346 345 343 344 346 346 347 346 344 347 346 345 347 345 345 348 346 343 342 345 352 355 354 354
333 334 332 336 345 344 343 347 348 346 347 349 352 354 355 355 351 346 342 341 343 343 344 344 346 347 346 346 347 347 347 344 345 347 346 344 343 343 351 355 354 355
332 335 334 336 348 350 346 347 348 347 347 347 348 350 354 356 353 348 341 339 340 341 344 345 343 346 347 346 347 348 347 345 345 346 346 347 346 344 350 355 355 355
333 333 336 337 346 351 350 349 349 349 348 347 346 348 351 353 352 351 345 339 339 342 348 349 343 343 345 345 346 347 348 347 346 346 347 346 346 345 348 353 354 353
342 333 334 337 345 351 351 350 350 350 349 348 348 349 350 348 346 350 348 341 342 346 349 350 347 343 343 344 345 344 345 346 347 347 347 346 346 345 347 351 354 351
352 343 336 336 345 350 351 350 351 350 349 349 349 348 349 349 345 346 345 339 344 347 346 349 349 343 341 344 346 345 342 343 348 350 348 347 347 346 345 348 351 350
355 353 348 343 345 348 350 350 350 351 350 349 349 348 348 350 348 347 343 337 340 343 339 342 345 341 338 341 347 348 343 341 348 353 351 349 347 346 346 346 346 348
355 355 354 352 350 348 348 348 348 350 351 350 349 348 348 349 349 349 348 341 338 338 336 336 338 337 335 337 342 346 344 341 345 351 353 351 348 346 349 351 351 351
353 354 354 354 352 349 345 346 347 348 351 351 348 347 347 349 348 348 350 347 342 337 335 334 334 335 336 337 338 340 343 343 342 345 346 347 346 344 345 350 353 353
351 353 353 352 352 351 346 345 345 345 348 350 349 348 347 347 348 347 347 348 346 340 335 332 333 334 334 335 336 338 342 344 343 342 341 340 340 340 339 344 348 350
351 351 352 351 351 350 348 345 344 344 345 348 348 348 347 346 346 348 348 347 347 343 338 333 332 332 333 334 334 336 342 345 343 342 344 344 341 339 340 345 347 348
355 352 352 352 351 351 349 347 345 344 343 344 345 347 347 346 344 346 348 349 348 344 342 339 335 331 330 331 333 332 335 341 342 342 344 347 347 345 344 345 346 347
355 353 352 352 353 353 352 349 345 344 344 343 343 344 346 346 345 344 345 348 349 348 345 343 341 336 331 328 331 331 330 333 338 341 342 344 346 348 347 346 345 345
354 353 352 352 353 353 353 353 350 347 345 344 343 343 344 345 345 344 343 345 347 349 348 347 345 343 337 330 328 329 329 329 332 337 341 341 342 345 346 346 344 344
353 354 354 353 353 352 353 353 354 353 350 348 345 344 343 344 344 344 343 343 344 346 348 349 348 348 345 338 331 328 328 329 329 331 336 338 338 339 340 340 339 339
353 353 354 353 354 354 353 353 354 356 355 353 350 347 345 344 344 345 344 343 342 342 345 348 349 350 349 346 340 334 330 329 328 328 330 333 334 334 334 335 335 335
351 352 352 352 353 353 355 356 356 356 358 358 355 352 349 347 346 346 347 345 342 341 341 344 347 349 349 349 346 342 336 333 331 329 329 330 332 333 334 335 336 337
351 352 352 352 352 353 354 356 357 357 357 357 356 354 352 351 350 349 350 350 348 344 341 341 342 345 346 346 347 346 344 341 337 334 332 331 331 334 336 336 337 340
351 352 352 352 352 354 354 355 356 356 356 355 355 353 351 351 352 353 353 352 352 351 349 345 343 342 343 343 344 344 345 345 344 341 338 335 332 332 333 335 337 339
348 349 350 351 351 353 354 354 354 355 354 354 354 353 350 349 351 353 354 355 355 355 354 353 350 347 345 343 343 343 343 344 344 344 343 341 336 332 331 331 332 333
344 346 347 347 348 350 351 352 353 354 355 354 354 354 352 350 349 351 353 356 357 357 356 356 355 354 352 349 347 345 345 344 344 344 344 344 341 339 337 334 332 331
337 342 344 345 346 348 349 350 351 352 354 355 354 354 353 352 351 351 351 353 356 357 357 357 357 357 356 355 352 350 348 347 346 346 346 346 345 345 345 344 343 340
329 334 338 341 344 345 347 349 350 350 351 352 354 354 353 353 352 353 352 351 353 355 355 356 357 357 357 357 356 355 353 352 350 349 348 348 348 347 347 348 347 348

ECMWFNIL_850_thetae_114.txt.gz
Theta_e
344 345 348 348 348 349 348 347 347 345 343 343 343 342 342 342 342 343 344 344 345 346 345 345 346 348 348 348 346 344 342 343 341 341 341 341 344 344 344 347 349 350
342 346 349 349 348 348 348 347 346 345 344 343 344 345 343 342 341 341 342 344 346 345 346 347 347 348 349 347 346 345 344 343 341 341 342 342 342 343 344 346 349 350
341 345 349 350 348 347 347 347 346 345 346 345 345 347 346 345 342 342 341 343 347 347 345 346 346 346 348 348 348 348 347 346 343 341 342 342 342 342 344 347 348 349
337 341 347 349 347 346 346 346 345 345 346 346 345 346 347 347 346 345 344 344 346 347 345 344 344 345 346 348 349 348 348 348 346 343 341 342 342 341 342 346 347 347
334 336 341 345 344 344 345 346 343 343 345 345 345 346 346 346 346 347 348 348 347 346 345 345 344 344 344 346 347 346 347 347 346 344 343 343 343 341 341 342 344 346
333 333 335 338 340 340 342 342 343 343 343 344 346 346 345 346 346 345 347 349 349 346 344 344 345 344 343 344 344 344 344 344 344 344 343 344 344 343 341 341 343 345
333 334 333 335 336 338 338 339 340 342 343 345 347 347 346 346 346 345 344 346 348 346 344 343 344 344 343 343 343 343 344 343 343 344 344 343 345 344 341 340 342 345
332 333 334 334 335 336 336 336 338 339 341 344 347 348 349 348 347 345 343 343 343 342 342 342 342 343 344 344 343 343 343 343 343 345 344 343 344 344 342 341 341 343
333 333 334 334 334 335 335 335 335 337 339 342 344 348 350 351 350 348 345 343 342 339 339 339 340 342 342 343 344 343 343 343 343 344 344 343 343 344 343 342 342 343
337 335 337 338 336 333 333 334 334 337 341 342 341 344 348 350 351 350 348 347 345 341 338 337 337 338 340 341 343 343 343 343 343 343 343 343 343 344 344 343 343 343
345 339 338 344 346 341 336 334 334 339 345 346 344 342 344 347 349 350 350 349 347 345 343 339 337 336 337 337 338 340 342 342 343 343 343 343 342 343 343 343 343 342
352 347 341 343 350 350 346 341 339 344 349 350 348 345 344 345 347 348 348 347 346 345 345 342 340 337 336 335 336 337 339 340 341 341 342 341 341 342 342 342 342 342
354 353 347 342 344 349 351 349 346 348 352 352 351 350 348 347 348 348 348 346 345 344 343 342 341 339 338 336 336 337 338 338 339 339 340 340 340 340 339 340 340 341
354 353 352 349 345 345 348 351 350 350 352 353 352 351 349 349 348 348 347 347 346 346 344 343 342 341 339 337 336 336 336 336 336 337 338 339 339 338 338 338 338 339
353 352 352 351 350 347 346 351 353 352 352 353 352 350 350 350 349 349 347 346 345 346 346 346 345 343 340 337 336 335 334 334 334 335 335 336 337 337 337 338 337 337
352 352 352 351 351 349 346 348 352 353 352 352 351 350 350 349 350 350 349 347 345 344 346 346 347 346 343 340 338 336 334 333 332 333 333 334 335 336 336 336 336 336
350 351 351 351 350 349 346 345 347 352 353 352 349 349 348 349 348 349 350 349 348 346 345 345 345 345 345 344 343 341 339 337 334 333 332 332 333 334 334 334 334 334
351 351 351 351 351 350 349 349 350 351 353 352 350 348 347 347 347 347 348 349 349 348 346 345 345 344 344 344 345 344 343 342 341 338 335 333 331 330 331 331 332 331
351 352 352 352 352 352 352 352 352 352 352 352 350 349 347 346 346 347 347 347 348 349 348 347 346 345 344 344 344 344 345 344 344 343 341 339 336 333 331 330 330 330
350 351 352 352 353 353 353 353 353 353 352 352 351 349 348 347 346 347 347 348 348 349 348 348 347 346 345 345 344 344 344 345 346 346 344 343 342 340 338 334 331 329
348 349 350 351 351 351 352 353 353 353 353 352 352 351 349 348 347 346 347 349 349 348 348 348 347 346 345 346 346 345 344 344 346 346 347 346 345 345 344 341 338 335
344 345 347 348 349 349 350 351 352 352 352 352 353 353 352 350 349 348 347 348 349 348 347 348 348 347 346 346 346 346 347 347 346 345 345 346 346 347 346 345 343 342
337 340 343 344 346 347 347 348 350 351 351 352 352 353 353 353 352 350 350 350 350 349 347 346 346 346 347 347 346 345 346 347 346 345 344 344 344 345 345 346 345 345
328 333 339 342 343 344 345 346 347 348 349 350 351 352 353 353 353 353 353 351 351 350 349 348 346 346 348 349 348 347 346 345 345 345 345 344 344 344 344 344 344 345
321 326 332 337 339 341 342 343 344 346 347 348 349 350 351 352 352 353 353 353 352 351 350 350 349 348 348 347 348 349 349 348 347 347 348 348 347 348 348 346 345 344
318 319 322 326 329 331 333 333 335 339 342 345 346 347 348 349 350 350 351 352 353 352 352 352 352 350 349 349 349 350 352 352 352 352 352 352 352 352 353 352 351 349

ECMWFNIL_850_thetae_117.txt.gz
Theta_e
345 347 346 345 347 349 349 348 346 344 343 343 344 344 342 343 343 344 344 343 344 344 344 344 344 344 345 346 348 349 347 344 343 342 342 342 343 345 346 347 348 350
343 345 344 342 344 347 349 348 347 346 344 343 343 343 342 342 342 343 343 343 344 344 345 345 345 344 346 348 348 348 346 343 341 341 340 340 340 343 344 345 347 349
341 343 343 341 341 344 346 348 347 346 344 343 343 344 343 342 342 341 342 342 343 343 344 344 344 344 347 348 348 346 345 343 342 340 340 340 340 341 341 342 345 347
339 341 341 340 341 342 344 346 346 346 345 344 344 344 344 344 343 342 341 342 342 343 345 345 345 345 345 347 347 345 345 346 345 343 342 340 341 341 340 341 343 345
337 338 339 338 338 341 343 344 345 344 343 344 344 344 346 346 346 344 342 341 341 343 346 346 346 344 343 343 344 344 345 346 347 346 344 341 341 341 341 340 341 343
336 337 338 337 336 337 341 342 343 343 343 342 344 344 345 346 346 346 344 342 342 342 344 344 344 344 343 342 342 342 343 344 344 344 344 343 342 342 342 341 340 341
334 335 336 336 336 336 338 339 340 342 342 342 343 344 345 344 344 345 345 346 346 344 343 342 343 343 343 343 342 341 341 342 343 343 342 342 343 342 343 343 341 341
333 333 334 335 336 336 338 338 338 340 342 341 342 343 344 345 344 344 344 347 347 347 345 344 343 343 343 343 343 342 341 342 342 342 342 341 342 342 343 343 342 341
334 334 334 333 334 335 336 337 337 338 340 341 341 342 343 345 346 346 346 346 347 346 346 347 346 344 343 343 343 342 341 341 341 342 342 342 342 342 342 343 343 342
334 334 334 333 334 334 334 335 336 336 337 339 340 340 341 343 345 347 348 348 348 347 346 347 347 346 344 342 343 342 342 341 341 342 341 342 342 343 342 343 343 343
338 337 335 334 333 333 334 334 334 334 335 337 338 339 341 342 344 346 347 348 348 348 347 347 348 347 346 343 341 341 341 341 341 341 341 342 342 342 343 343 344 343
344 343 341 338 335 333 333 334 334 334 335 336 337 340 343 344 345 345 346 346 347 348 348 348 348 349 348 345 341 340 340 340 341 340 340 341 341 341 342 342 342 343
345 344 344 343 342 338 335 334 334 333 333 334 337 342 347 349 348 346 345 344 345 346 346 347 347 347 347 346 343 340 339 338 339 339 339 339 339 340 340 341 340 341
347 346 345 345 347 347 343 338 335 336 335 332 333 340 347 351 350 348 347 345 344 344 344 345 345 344 344 344 343 341 340 339 338 338 337 337 337 338 338 339 339 339
350 351 350 349 348 351 350 345 342 344 344 338 332 333 339 347 351 350 349 348 347 345 345 344 343 342 342 343 344 343 342 341 340 338 337 335 334 335 336 336 337 337
352 353 354 352 351 352 354 351 348 349 351 347 339 332 332 339 347 351 351 350 349 348 348 347 345 343 342 342 344 345 345 345 343 341 339 336 334 333 333 334 335 335
353 353 354 354 354 354 355 354 352 352 353 353 348 341 334 334 340 347 350 350 349 349 348 348 348 347 346 344 344 345 346 346 345 344 343 341 338 336 334 332 332 332
351 351 352 352 353 353 353 353 353 353 353 354 354 349 345 341 342 346 349 350 349 349 348 348 347 347 347 347 346 345 346 346 346 345 345 345 343 342 340 337 334 332
351 351 351 351 351 351 351 351 351 352 351 352 353 353 351 349 348 348 349 349 349 348 348 347 347 346 347 347 347 346 345 346 347 346 346 345 345 345 344 343 341 338
352 351 351 352 351 351 352 351 351 351 350 350 350 351 351 351 351 350 349 347 347 347 347 346 346 346 346 348 348 347 346 346 346 347 347 347 346 346 346 345 344 344
349 349 349 349 351 351 352 351 352 352 351 351 350 351 351 351 351 351 349 348 347 346 346 346 346 346 346 346 346 347 347 347 346 346 346 347 347 346 346 345 344 344
344 346 346 347 348 348 348 349 350 351 352 352 352 352 352 351 352 352 351 350 348 347 347 347 346 347 347 346 345 345 347 347 347 346 345 345 346 346 346 346 344 344
340 341 343 344 345 345 345 346 347 348 349 351 351 352 352 351 352 352 352 351 350 350 349 349 348 348 347 347 347 346 347 347 347 347 346 345 345 345 345 346 345 345
338 340 341 341 342 343 343 343 344 345 347 348 349 350 351 351 351 352 352 353 353 352 352 351 350 349 349 349 348 347 347 348 347 347 347 346 345 344 345 345 345 345
330 335 337 337 339 339 337 336 338 341 343 344 346 347 349 350 350 350 350 351 352 353 353 352 352 351 352 351 350 349 348 349 349 349 349 348 346 345 344 345 345 345
319 323 326 328 329 330 329 329 333 336 339 341 343 345 346 347 348 348 348 348 349 350 351 352 352 352 352 352 352 351 350 349 350 351 351 350 350 348 347 346 346 345

ECMWFNIL_850_thetae_120.txt.gz
Theta_e
347 348 348 348 348 348 349 349 348 347 347 346 345 345 345 345 344 344 344 343 343 343 343 342 342 342 342 342 342 344 346 347 347 345 345 344 344 344 345 346 347 347
344 347 348 348 348 348 349 350 350 350 349 347 345 345 345 344 344 344 343 343 343 344 343 343 343 343 343 343 343 344 346 347 346 343 342 342 342 342 343 344 346 346
339 344 346 347 346 347 348 350 350 350 349 348 346 345 345 344 343 342 343 343 343 343 344 344 344 344 344 344 344 345 347 347 345 342 341 340 340 340 340 342 344 344
336 340 343 345 345 345 346 348 349 350 349 348 346 346 345 345 344 342 341 342 343 343 344 344 344 344 344 344 345 346 346 345 344 343 341 340 340 339 340 341 341 342
335 337 340 342 344 342 343 345 347 348 348 348 347 346 346 346 345 343 342 341 341 342 343 344 344 345 345 345 346 346 346 345 346 346 344 342 341 340 340 340 340 341
334 336 337 339 341 340 339 341 342 344 345 346 347 346 346 347 347 346 344 343 342 341 342 343 345 345 346 346 346 345 344 345 346 347 345 344 342 340 340 340 340 340
332 335 336 337 338 337 336 336 338 340 341 343 345 345 346 346 346 347 347 346 344 342 341 343 345 346 345 345 345 344 344 344 344 345 344 343 343 341 341 341 341 340
332 334 335 336 336 336 335 334 334 337 339 341 342 343 344 345 345 346 346 347 347 345 343 344 344 344 344 343 343 343 343 343 343 343 343 343 342 342 341 341 342 342
333 333 334 334 335 335 334 333 332 333 335 338 340 341 342 343 344 345 346 347 347 348 348 347 346 345 344 344 343 343 343 343 343 343 343 343 343 342 342 343 343 342
334 334 334 333 334 334 333 333 332 332 333 335 337 339 340 342 343 344 346 347 347 347 348 348 347 346 345 345 344 343 343 342 343 343 343 343 343 343 343 344 343 342
334 333 334 333 333 333 332 332 332 332 333 334 335 336 337 339 341 342 344 345 346 347 347 347 346 345 345 344 343 342 341 341 342 342 343 343 343 344 344 344 344 343
338 334 333 333 332 332 333 332 333 333 333 334 334 334 335 335 336 338 340 342 344 346 347 347 347 346 346 345 345 343 341 339 339 339 340 341 341 342 343 343 344 344
345 340 336 335 334 334 333 332 332 333 334 334 334 333 333 334 334 334 336 338 341 344 346 346 347 347 346 346 345 345 343 341 339 338 337 337 338 339 339 340 341 342
349 346 343 341 340 340 339 336 334 332 332 334 335 334 333 333 333 334 335 335 337 341 344 346 347 346 345 345 344 344 344 342 341 340 339 338 337 337 337 338 337 338
351 349 348 349 349 348 347 345 343 340 338 337 338 338 338 337 335 336 338 339 340 340 343 345 346 346 345 345 345 344 344 343 342 342 341 340 339 339 338 336 336 336
352 351 351 353 354 352 352 352 351 350 348 345 344 344 344 344 342 339 341 343 345 345 345 346 347 347 347 347 347 346 345 344 344 344 344 344 343 342 341 338 337 335
354 354 354 353 353 353 353 353 354 353 353 352 351 350 350 350 348 345 343 344 347 347 347 347 347 347 347 347 347 348 347 346 345 344 345 345 345 345 344 343 342 340
352 352 352 352 353 353 353 354 354 354 353 353 354 354 353 352 351 350 348 346 347 347 347 346 346 345 346 347 347 348 348 348 347 346 346 345 345 345 345 345 345 345
350 350 350 351 351 352 353 354 353 353 353 352 353 353 353 353 352 352 351 350 348 347 346 347 346 345 345 346 346 347 347 348 349 348 347 346 345 345 345 344 344 344
349 350 350 350 350 350 351 351 352 352 352 352 352 350 351 352 352 352 352 352 350 349 347 347 347 346 346 346 346 346 346 345 346 347 347 347 346 346 345 344 344 344
346 348 349 349 349 349 349 350 350 351 351 351 351 351 350 351 351 351 351 351 351 350 349 348 348 347 347 346 346 345 345 345 345 345 346 347 347 346 346 345 345 344
342 344 345 346 347 347 348 349 350 351 351 351 350 351 351 350 350 350 350 350 351 351 351 350 349 349 348 347 347 346 346 346 345 345 345 345 345 346 346 346 346 345
339 340 341 342 343 344 345 346 346 347 348 350 350 351 351 351 351 351 350 351 351 350 351 351 351 350 350 349 349 348 347 346 346 346 345 345 345 345 345 346 346 346
338 338 339 339 340 342 342 342 342 343 344 345 346 347 348 348 349 349 349 350 350 351 351 352 352 351 350 350 349 349 349 348 348 346 346 345 345 345 345 345 345 346
333 334 334 334 335 334 334 335 337 339 340 342 343 343 344 345 346 347 347 348 348 349 350 351 351 351 351 351 351 350 351 350 350 349 349 348 347 346 346 345 345 345
323 324 326 328 327 325 327 332 335 336 338 340 342 343 343 344 344 345 346 346 347 348 348 349 350 350 351 351 351 352 352 352 351 351 350 350 349 348 348 347 346 346